[[{"header":{"parameterUnit":"m.s-1","parameterCategory":1,"la1":30.6,"la2":29.2853,"lo1":-89.7004,"lo2":-87.6739,"dy":0.0162,"dx":0.0183,"nx":112,"ny":82,"refTime":"2025-02-27T06:00:00:Z","depth":0,"parameterNumber":2,"parameterNumberName":"U-component_of_WINDS"},"data":[0.0,0.0,0.0,0.0,0.0,0.0,0.0,0.0,0.0,0.0,0.0,0.0,0.0,0.0,0.0,0.0,0.0,0.0,0.0,0.0,0.0,0.0,0.0,0.0,0.0,0.0,0.0,0.0,0.0,0.0,0.0,0.0,0.0,0.0,0.0,0.0,0.0,0.0,0.0,0.0,0.0,0.0,0.0,0.0,0.0,0.0,0.0,0.0,0.0,0.0,0.0,0.0,0.0,0.0,0.0,0.0,0.0,0.0,0.0,0.0,0.0,0.0,0.0,0.0,0.0,0.0,0.0,0.0,0.0,0.0,0.0,0.0,0.0,0.0,0.0,0.0,0.0,0.0,0.0,0.0,0.0,0.0,0.0,0.0,0.0,0.0,0.0,0.0,0.0,0.0,-2.2955,-2.3737,-2.5419,-2.6533,-2.6533,-2.6377,-2.59,-2.4883,0.0,0.0,0.0,0.0,0.0,0.0,0.0,0.0,0.0,0.0,0.0,0.0,0.0,0.0,0.0,0.0,0.0,0.0,0.0,0.0,0.0,0.0,0.0,0.0,0.0,0.0,0.0,0.0,0.0,0.0,0.0,0.0,0.0,0.0,0.0,0.0,0.0,0.0,0.0,0.0,0.0,0.0,0.0,0.0,0.0,0.0,0.0,0.0,0.0,0.0,0.0,0.0,0.0,0.0,0.0,0.0,0.0,0.0,0.0,0.0,0.0,0.0,0.0,0.0,0.0,0.0,0.0,0.0,0.0,0.0,0.0,0.0,0.0,0.0,0.0,0.0,0.0,0.0,0.0,0.0,0.0,0.0,0.0,0.0,0.0,0.0,0.0,0.0,0.0,0.0,0.0,0.0,0.0,0.0,0.0,0.0,0.0,0.0,0.0,0.0,0.0,0.0,0.0,0.0,-2.2418,-2.4996,-2.5995,-2.6533,-2.6533,-2.6013,-2.5473,-2.4858,0.0,0.0,0.0,0.0,0.0,0.0,0.0,0.0,0.0,0.0,0.0,0.0,0.0,0.0,0.0,0.0,0.0,0.0,0.0,0.0,0.0,0.0,0.0,0.0,0.0,0.0,0.0,0.0,0.0,0.0,0.0,0.0,0.0,0.0,0.0,0.0,0.0,0.0,0.0,0.0,0.0,0.0,0.0,0.0,0.0,0.0,0.0,0.0,0.0,0.0,0.0,0.0,0.0,0.0,0.0,0.0,0.0,0.0,0.0,0.0,0.0,0.0,0.0,0.0,0.0,0.0,0.0,0.0,0.0,0.0,0.0,0.0,0.0,0.0,0.0,0.0,0.0,0.0,0.0,0.0,0.0,0.0,0.0,0.0,0.0,0.0,0.0,0.0,0.0,0.0,0.0,0.0,0.0,0.0,0.0,0.0,0.0,0.0,0.0,0.0,0.0,0.0,0.0,-2.294,-2.4064,-2.5917,-2.6752,-2.6973,-2.6521,-2.6214,-2.5711,-2.487,-2.4305,0.0,0.0,0.0,0.0,0.0,0.0,0.0,0.0,0.0,0.0,0.0,0.0,0.0,0.0,0.0,0.0,0.0,0.0,0.0,0.0,0.0,0.0,0.0,0.0,0.0,0.0,0.0,0.0,0.0,0.0,0.0,0.0,0.0,0.0,0.0,0.0,0.0,0.0,0.0,0.0,0.0,0.0,0.0,0.0,0.0,0.0,0.0,0.0,0.0,0.0,0.0,0.0,0.0,0.0,0.0,0.0,0.0,0.0,0.0,0.0,0.0,0.0,0.0,0.0,0.0,0.0,0.0,0.0,0.0,0.0,0.0,0.0,0.0,0.0,0.0,0.0,0.0,0.0,0.0,0.0,0.0,0.0,0.0,0.0,0.0,0.0,0.0,0.0,0.0,0.0,0.0,0.0,0.0,0.0,0.0,0.0,0.0,0.0,0.0,0.0,0.0,0.0,-2.47,-2.5599,-2.6438,-2.704,-2.7162,-2.6521,-2.6339,-2.585,-2.4883,-2.4305,0.0,0.0,0.0,0.0,0.0,0.0,0.0,0.0,0.0,0.0,0.0,0.0,0.0,0.0,0.0,0.0,0.0,0.0,0.0,0.0,0.0,0.0,0.0,0.0,0.0,0.0,0.0,0.0,0.0,0.0,0.0,0.0,0.0,0.0,0.0,0.0,0.0,0.0,0.0,0.0,0.0,0.0,0.0,0.0,0.0,0.0,0.0,0.0,0.0,0.0,0.0,0.0,0.0,0.0,0.0,0.0,0.0,0.0,0.0,0.0,0.0,0.0,0.0,0.0,0.0,0.0,0.0,0.0,0.0,0.0,0.0,0.0,0.0,0.0,0.0,0.0,0.0,0.0,0.0,0.0,0.0,0.0,0.0,0.0,0.0,0.0,0.0,0.0,0.0,0.0,0.0,0.0,0.0,0.0,0.0,0.0,0.0,0.0,0.0,0.0,0.0,0.0,-2.4582,-2.5791,-2.6458,-2.6521,-2.6589,-2.6533,-2.5963,-2.5423,-2.4858,-2.4305,0.0,0.0,0.0,0.0,0.0,0.0,0.0,0.0,0.0,0.0,0.0,0.0,0.0,0.0,0.0,0.0,0.0,0.0,0.0,0.0,0.0,0.0,0.0,0.0,0.0,0.0,0.0,0.0,0.0,0.0,0.0,0.0,0.0,0.0,0.0,0.0,0.0,0.0,0.0,0.0,0.0,0.0,0.0,0.0,0.0,0.0,0.0,0.0,0.0,0.0,0.0,0.0,0.0,0.0,0.0,0.0,0.0,0.0,0.0,0.0,0.0,0.0,0.0,0.0,0.0,0.0,0.0,0.0,0.0,0.0,0.0,0.0,0.0,0.0,0.0,0.0,0.0,0.0,0.0,0.0,0.0,0.0,0.0,0.0,0.0,0.0,0.0,0.0,0.0,0.0,0.0,0.0,0.0,0.0,0.0,0.0,0.0,0.0,0.0,0.0,0.0,0.0,-2.4756,-2.6078,0.0,-2.6973,-2.704,-2.6521,-2.5937,-2.5222,-2.4368,0.0,0.0,0.0,0.0,0.0,0.0,0.0,0.0,0.0,0.0,0.0,0.0,0.0,0.0,0.0,0.0,0.0,0.0,0.0,0.0,0.0,0.0,0.0,0.0,0.0,0.0,0.0,0.0,0.0,0.0,0.0,0.0,0.0,0.0,0.0,0.0,0.0,0.0,0.0,0.0,0.0,0.0,0.0,0.0,0.0,0.0,0.0,0.0,0.0,0.0,0.0,0.0,0.0,0.0,0.0,0.0,0.0,0.0,0.0,0.0,0.0,0.0,0.0,0.0,0.0,0.0,0.0,0.0,0.0,0.0,0.0,0.0,0.0,0.0,0.0,0.0,0.0,0.0,0.0,0.0,0.0,0.0,0.0,0.0,0.0,0.0,0.0,0.0,0.0,0.0,0.0,0.0,0.0,0.0,0.0,0.0,0.0,0.0,0.0,0.0,0.0,0.0,-2.3037,-2.4959,-2.631,0.0,-2.6973,-2.7095,-2.6521,-2.5774,-2.4958,-2.4054,0.0,0.0,0.0,0.0,0.0,0.0,0.0,0.0,0.0,0.0,0.0,0.0,0.0,0.0,0.0,0.0,0.0,0.0,0.0,0.0,0.0,0.0,0.0,0.0,0.0,0.0,0.0,0.0,0.0,0.0,0.0,0.0,0.0,0.0,0.0,0.0,0.0,0.0,0.0,0.0,0.0,0.0,0.0,0.0,0.0,0.0,0.0,0.0,0.0,0.0,0.0,0.0,0.0,0.0,0.0,0.0,0.0,0.0,0.0,0.0,0.0,0.0,0.0,0.0,0.0,0.0,0.0,0.0,0.0,0.0,0.0,0.0,0.0,0.0,0.0,0.0,0.0,0.0,0.0,0.0,0.0,0.0,0.0,0.0,0.0,0.0,0.0,0.0,0.0,0.0,0.0,0.0,0.0,0.0,0.0,0.0,0.0,0.0,0.0,0.0,0.0,0.0,-2.3078,-2.5071,-2.6521,-2.6533,-2.6533,-2.6533,-2.6533,-2.5448,-2.4582,0.0,0.0,0.0,0.0,0.0,0.0,0.0,0.0,0.0,0.0,0.0,0.0,0.0,0.0,0.0,0.0,0.0,0.0,0.0,0.0,0.0,0.0,0.0,0.0,0.0,0.0,0.0,0.0,0.0,0.0,0.0,0.0,0.0,0.0,0.0,0.0,0.0,0.0,0.0,0.0,0.0,0.0,0.0,0.0,0.0,0.0,0.0,0.0,0.0,0.0,0.0,0.0,0.0,0.0,0.0,0.0,0.0,0.0,0.0,0.0,0.0,0.0,0.0,0.0,0.0,0.0,0.0,0.0,0.0,0.0,0.0,0.0,0.0,0.0,0.0,0.0,0.0,0.0,0.0,0.0,0.0,0.0,0.0,0.0,0.0,0.0,0.0,0.0,0.0,0.0,0.0,0.0,0.0,0.0,0.0,0.0,0.0,0.0,0.0,0.0,0.0,0.0,0.0,-2.2977,-2.472,-2.6013,-2.6483,-2.6533,-2.6533,-2.6533,-2.5448,-2.4406,-2.3452,0.0,0.0,0.0,0.0,0.0,0.0,0.0,0.0,0.0,0.0,0.0,0.0,0.0,0.0,0.0,0.0,0.0,0.0,0.0,0.0,0.0,0.0,0.0,0.0,0.0,0.0,0.0,0.0,0.0,0.0,0.0,0.0,0.0,0.0,0.0,0.0,0.0,0.0,0.0,0.0,0.0,0.0,0.0,0.0,0.0,0.0,0.0,0.0,0.0,0.0,0.0,0.0,0.0,0.0,0.0,0.0,0.0,0.0,0.0,0.0,0.0,0.0,0.0,0.0,0.0,0.0,0.0,0.0,0.0,0.0,0.0,0.0,0.0,0.0,0.0,0.0,0.0,0.0,0.0,0.0,0.0,0.0,0.0,0.0,0.0,0.0,0.0,0.0,0.0,0.0,0.0,0.0,0.0,0.0,0.0,0.0,0.0,0.0,0.0,0.0,0.0,0.0,-2.2927,-2.4569,-2.5824,-2.6471,-2.6533,-2.6533,-2.6533,-2.5448,-2.4343,-2.314,0.0,0.0,0.0,0.0,0.0,0.0,0.0,0.0,0.0,0.0,0.0,0.0,0.0,0.0,0.0,0.0,0.0,0.0,0.0,0.0,0.0,0.0,0.0,0.0,0.0,0.0,0.0,0.0,0.0,0.0,0.0,0.0,0.0,0.0,0.0,0.0,0.0,0.0,0.0,0.0,0.0,0.0,0.0,0.0,0.0,0.0,0.0,0.0,0.0,0.0,0.0,0.0,0.0,0.0,0.0,0.0,0.0,0.0,0.0,0.0,0.0,0.0,0.0,0.0,0.0,0.0,0.0,0.0,0.0,0.0,0.0,0.0,0.0,0.0,0.0,0.0,0.0,0.0,0.0,0.0,0.0,0.0,0.0,0.0,0.0,0.0,0.0,0.0,0.0,0.0,0.0,0.0,0.0,0.0,0.0,0.0,0.0,0.0,0.0,0.0,0.0,0.0,-2.2852,-2.4506,-2.5737,-2.6314,-2.6496,-2.6533,-2.6533,-2.5448,-2.4292,-2.3155,0.0,0.0,0.0,0.0,0.0,0.0,0.0,0.0,0.0,0.0,0.0,0.0,0.0,0.0,0.0,0.0,0.0,0.0,0.0,0.0,0.0,0.0,0.0,0.0,0.0,0.0,0.0,0.0,0.0,0.0,0.0,0.0,0.0,0.0,0.0,0.0,0.0,0.0,0.0,0.0,0.0,0.0,0.0,0.0,0.0,0.0,0.0,0.0,0.0,0.0,0.0,0.0,0.0,0.0,0.0,0.0,0.0,0.0,0.0,0.0,-2.0508,0.0,0.0,0.0,0.0,0.0,0.0,0.0,0.0,0.0,0.0,0.0,0.0,0.0,0.0,0.0,0.0,0.0,0.0,0.0,0.0,0.0,0.0,0.0,0.0,0.0,0.0,0.0,0.0,0.0,0.0,0.0,0.0,0.0,0.0,0.0,0.0,0.0,0.0,0.0,0.0,0.0,-2.2284,-2.3954,-2.5197,-2.5724,-2.6189,-2.6533,-2.6533,-2.5448,-2.4199,-2.2862,-2.0921,0.0,0.0,0.0,0.0,0.0,0.0,0.0,0.0,0.0,0.0,0.0,0.0,0.0,0.0,0.0,0.0,0.0,0.0,0.0,0.0,0.0,0.0,0.0,0.0,0.0,0.0,0.0,0.0,0.0,0.0,0.0,0.0,0.0,0.0,0.0,0.0,0.0,0.0,0.0,0.0,0.0,0.0,0.0,0.0,0.0,0.0,0.0,0.0,0.0,0.0,0.0,0.0,0.0,0.0,0.0,0.0,0.0,0.0,0.0,0.0,-2.1933,0.0,0.0,0.0,0.0,0.0,0.0,0.0,0.0,0.0,0.0,0.0,0.0,0.0,0.0,0.0,0.0,0.0,0.0,0.0,0.0,0.0,0.0,0.0,0.0,0.0,0.0,0.0,0.0,0.0,0.0,0.0,0.0,0.0,0.0,0.0,0.0,0.0,0.0,0.0,0.0,-2.2096,-2.3778,-2.5021,-2.5536,-2.6113,-2.6314,-2.5804,-2.4811,-2.3562,-2.2078,-2.0292,0.0,0.0,0.0,0.0,0.0,0.0,0.0,0.0,0.0,0.0,0.0,0.0,0.0,0.0,0.0,0.0,0.0,0.0,0.0,0.0,0.0,0.0,0.0,0.0,0.0,0.0,0.0,0.0,0.0,0.0,0.0,0.0,0.0,0.0,0.0,0.0,0.0,0.0,0.0,0.0,0.0,0.0,0.0,0.0,0.0,0.0,0.0,0.0,0.0,0.0,0.0,0.0,0.0,-2.2297,-2.2611,-2.2611,-2.2698,-2.3263,-2.4092,-2.3251,-2.3037,-2.3251,-2.2799,0.0,0.0,0.0,0.0,0.0,0.0,0.0,0.0,0.0,0.0,0.0,0.0,0.0,0.0,0.0,0.0,0.0,0.0,0.0,0.0,0.0,0.0,0.0,0.0,-2.0576,-2.1178,0.0,0.0,0.0,0.0,0.0,0.0,0.0,0.0,0.0,0.0,0.0,0.0,-2.1983,-2.364,-2.4883,-2.541,-2.5963,-2.5983,-2.5075,-2.4124,-2.2975,-2.1318,-1.9797,-1.8283,0.0,0.0,0.0,0.0,0.0,0.0,0.0,0.0,0.0,0.0,0.0,0.0,0.0,0.0,0.0,0.0,0.0,0.0,0.0,0.0,0.0,0.0,0.0,0.0,0.0,0.0,0.0,0.0,0.0,0.0,0.0,0.0,-1.0324,-1.0684,0.0,0.0,0.0,0.0,0.0,0.0,0.0,0.0,0.0,0.0,0.0,0.0,0.0,-2.0857,-2.138,-2.1933,-2.2196,-2.2221,-2.3276,-2.3778,-2.3791,-2.4268,-2.4569,-2.4732,-2.5034,0.0,-2.3879,-2.3803,0.0,0.0,0.0,0.0,0.0,0.0,0.0,0.0,0.0,0.0,0.0,0.0,0.0,0.0,0.0,0.0,0.0,0.0,0.0,0.0,0.0,0.0,-2.0614,-2.1495,-2.1709,-2.2015,0.0,-2.1521,-2.0253,-2.0469,-1.9736,0.0,0.0,0.0,0.0,0.0,0.0,0.0,-2.1506,-2.3062,-2.4318,-2.487,-2.5398,-2.5494,-2.504,-2.4469,-2.3317,-2.1466,-2.0012,-1.8806,-1.7866,-1.6697,0.0,0.0,0.0,0.0,0.0,0.0,0.0,0.0,0.0,0.0,0.0,0.0,0.0,0.0,0.0,0.0,0.0,0.0,0.0,0.0,0.0,0.0,0.0,0.0,0.0,0.0,0.0,0.0,0.0,-1.0527,-1.1806,-1.3204,-1.3912,-1.46,0.0,0.0,0.0,0.0,0.0,0.0,0.0,0.0,0.0,-2.1117,-2.143,-2.1707,-2.1945,-2.2498,-2.2937,-2.3263,-2.3766,-2.4318,-2.4895,-2.4845,-2.5159,-2.5737,-2.5636,-2.5322,-2.4845,-2.4255,-2.3653,-2.3015,0.0,0.0,0.0,0.0,-2.197,-2.1581,-2.2196,-2.1894,0.0,-2.0646,0.0,0.0,0.0,0.0,0.0,0.0,0.0,0.0,0.0,0.0,0.0,-2.0689,-2.0969,-2.1366,-2.2013,-2.1149,-2.0395,0.0,-2.0282,-1.9837,-1.8927,0.0,0.0,0.0,0.0,-2.0336,-2.1107,-2.2627,-2.3513,-2.3266,-2.393,-2.4141,-2.3345,-2.2922,-2.1999,-2.0629,-1.9788,-1.8914,-1.8027,-1.7461,-1.6719,0.0,0.0,0.0,0.0,0.0,0.0,0.0,0.0,0.0,0.0,0.0,0.0,0.0,0.0,0.0,0.0,0.0,0.0,0.0,0.0,0.0,0.0,0.0,0.0,0.0,0.0,0.0,0.0,-1.1873,-1.3102,-1.51,-1.5683,-1.6363,0.0,0.0,0.0,0.0,0.0,0.0,-2.0238,-2.1029,-2.1556,-2.1694,-2.2096,-2.2385,-2.2523,-2.2924,-2.3427,-2.4004,-2.4142,-2.4695,-2.5586,-2.5347,-2.5686,-2.6496,-2.6,-2.5737,-2.5536,-2.4732,-2.3991,-2.3276,-2.2447,-2.2046,-2.1958,-2.2372,-2.2359,-2.2234,-2.2899,-2.2384,-2.139,-2.1304,0.0,-1.8334,-1.744,0.0,0.0,0.0,0.0,-1.8291,-1.8828,-1.9434,-2.0007,-2.0341,-2.0552,-2.0777,-2.1311,-2.1094,-2.0709,0.0,-2.0643,-2.0334,-1.9076,0.0,0.0,0.0,0.0,-1.9901,-2.0602,-2.1859,-2.2578,-2.2024,-2.2749,-2.2941,-2.2092,-2.1723,-2.11,-2.0154,-1.9687,-1.916,-1.8525,-1.8389,-1.7773,-1.6582,0.0,0.0,0.0,0.0,0.0,0.0,0.0,0.0,0.0,0.0,0.0,0.0,0.0,0.0,0.0,0.0,0.0,0.0,0.0,0.0,0.0,0.0,0.0,0.0,0.0,0.0,0.0,0.0,0.0,-1.5196,-1.6797,0.0,0.0,0.0,0.0,-2.0523,-2.1079,-2.1405,-2.1405,-2.1455,-2.1732,-2.2246,-2.2297,-2.256,-2.3027,-2.3065,-2.3427,-2.4004,-2.4531,-2.5059,-2.5611,-2.6138,-2.6483,-2.6533,-2.6496,-2.6101,-2.5598,-2.5536,-2.4895,-2.3954,-2.3904,-2.354,-2.299,-2.3027,-2.3427,-2.3803,-2.3314,-2.2886,-2.2623,-2.2922,-2.1571,-1.961,-1.8764,-1.7968,0.0,0.0,-1.8281,-1.8799,-1.9629,-1.9883,-2.0236,-2.16,-2.1211,-2.0857,-2.178,-2.1565,-2.1174,0.0,-2.0448,-1.9829,-1.9666,0.0,-1.8811,-1.8952,-1.9376,-1.97,-1.9756,-2.0649,-2.1453,-2.1922,-2.2436,-2.2578,-2.2071,-2.2006,-2.1562,-2.0605,-2.0127,-1.9863,-1.9824,-1.9434,-1.8809,-1.793,-1.709,0.0,0.0,0.0,0.0,0.0,0.0,0.0,0.0,0.0,0.0,0.0,0.0,0.0,0.0,0.0,0.0,0.0,0.0,0.0,0.0,0.0,0.0,0.0,0.0,0.0,0.0,0.0,0.0,-1.7231,-1.8628,0.0,-2.0465,-2.0897,-2.1325,-2.1874,-2.2434,-2.2913,-2.3393,-2.3822,-2.3864,-2.3573,-2.3586,-2.3636,-2.369,-2.3265,-2.3778,-2.5021,-2.4883,-2.5285,-2.6163,-2.6433,-2.6533,-2.6533,-2.6533,-2.6408,-2.6151,-2.6151,-2.5511,-2.4519,-2.4519,-2.418,-2.374,-2.4092,-2.413,-2.3904,-2.3093,-2.3166,-2.3303,-2.1906,-2.0583,-1.9372,-1.8476,-1.8162,-1.8281,-1.8711,-1.9141,-1.96,-2.0185,-2.0332,-2.037,-2.0601,-2.0648,-2.0633,-2.0641,-2.0306,-1.9978,-2.0012,-1.9918,-1.9683,-1.902,-1.8353,-1.8239,-1.9265,-1.916,-1.9083,-1.9383,-1.9983,-2.0355,-2.0277,-2.0401,-2.0533,-2.0607,-2.0396,-2.0098,-1.9811,-1.96,-1.9385,-1.9102,-1.8945,-1.8594,-1.8018,-1.7441,-1.6504,0.0,0.0,0.0,0.0,0.0,0.0,0.0,0.0,0.0,0.0,0.0,0.0,0.0,0.0,0.0,0.0,0.0,0.0,0.0,0.0,0.0,0.0,0.0,0.0,0.0,0.0,-1.7323,-1.8361,-1.989,-2.1124,-2.1725,-2.1933,-2.2249,-2.273,-2.3362,-2.391,-2.4395,-2.5067,-2.5063,-2.435,-2.4477,-2.4365,-2.3991,-2.3803,-2.4343,-2.5598,-2.5247,-2.5561,-2.6533,-2.6533,-2.6533,-2.6521,-2.6251,-2.6163,-2.6163,-2.6163,-2.5737,-2.5084,-2.5084,-2.4757,-2.4318,-2.4695,-2.4707,-2.4404,-2.3185,-2.2775,-2.2567,-2.0882,-1.9877,-1.9198,-1.8768,-1.8616,-1.876,-1.9336,-1.9697,-2.0019,-2.0449,-2.0566,-2.0449,-2.0019,-2.0137,-2.0225,-1.9795,-1.9482,-1.9248,-1.9092,-1.9194,-1.9032,-1.844,-1.7909,-1.7965,-1.8955,-1.8708,-1.8506,-1.8813,-1.9233,-1.9354,-1.9105,-1.9199,-1.9404,-1.9678,-1.9443,-1.9287,-1.9287,-1.9287,-1.916,-1.8867,-1.8711,-1.8506,-1.8223,-1.7244,-1.5998,-1.4643,0.0,0.0,0.0,0.0,0.0,0.0,0.0,0.0,0.0,0.0,0.0,0.0,0.0,0.0,0.0,0.0,0.0,0.0,0.0,0.0,0.0,0.0,0.0,-1.4043,-1.6023,-1.769,-1.8474,-2.0556,-2.2031,-2.2326,-2.2824,-2.3138,-2.3185,-2.3884,-2.4337,-2.4408,-2.5063,-2.5119,-2.435,-2.4833,-2.4741,-2.4017,-2.4531,-2.5071,-2.5624,-2.5598,-2.59,-2.6533,-2.6533,-2.6521,-2.6471,-2.5837,-2.5586,-2.5573,-2.5586,-2.5598,-2.5598,-2.5611,-2.531,-2.4845,-2.487,-2.5172,-2.5282,-2.3526,-2.1879,-2.0475,-2.0005,-1.9599,-1.9316,-1.9687,-1.9302,-1.8828,-1.9658,-1.9912,-2.0029,-2.0449,-2.0557,-2.0439,-2.0,-1.9893,-1.9775,-1.9355,-1.9268,-1.9141,-1.8721,-1.8301,-1.8008,-1.8008,-1.8008,-1.8008,-1.8008,-1.8008,0.0,-1.8008,-1.8359,-1.8623,-1.8562,-1.9004,-1.9248,-1.9268,-1.9258,-1.9248,-1.9248,-1.9238,-1.9238,-1.9248,-1.8828,-1.8533,-1.8543,-1.64,-1.4547,-1.3244,0.0,0.0,0.0,0.0,0.0,0.0,0.0,0.0,0.0,0.0,0.0,0.0,0.0,0.0,0.0,0.0,0.0,0.0,0.0,0.0,0.0,-1.3114,-1.459,-1.528,-1.7,-1.8633,-1.976,-2.1243,-2.2387,-2.2827,-2.2977,-2.359,-2.4667,-2.4951,-2.555,-2.664,-2.6864,-2.6428,-2.5119,-2.5227,-2.5103,-2.4582,-2.4356,-2.4895,-2.6214,-2.5799,-2.59,-2.6533,-2.6533,-2.6226,-2.5824,-2.5661,-2.5385,-2.5059,-2.5435,-2.5598,-2.5636,-2.6063,-2.5887,-2.5435,-2.585,-2.5227,-2.3935,-2.3077,-2.1438,-1.9649,-1.9512,-1.8946,-1.8357,-1.8466,-1.8824,-1.916,-1.9394,-1.9902,-2.041,-2.0537,-2.0332,-1.999,-1.9561,-1.9453,-1.9346,-1.8906,-1.8818,-1.8779,-1.8662,-1.8301,-1.8008,-1.8008,-1.8008,-1.8008,-1.8008,-1.8008,0.0,-1.8008,-1.8115,-1.8301,-1.8603,-1.8467,-1.8486,-1.8789,-1.8535,-1.8359,-1.8359,-1.8076,-1.8047,-1.835,-1.7959,-1.7581,-1.7149,-1.5245,-1.4098,0.0,0.0,0.0,0.0,0.0,0.0,0.0,0.0,0.0,0.0,0.0,0.0,0.0,0.0,0.0,0.0,0.0,0.0,0.0,0.0,0.0,0.0,-1.3774,-1.5215,-1.6417,-1.7723,-1.8908,-1.9951,-2.142,-2.2435,-2.2761,-2.294,-2.359,-2.4851,-2.5231,-2.5892,-2.7086,-2.7137,-2.6587,-2.5453,-2.5308,-2.5024,-2.4469,-2.4607,-2.5146,-2.6101,-2.6,-2.6013,-2.6101,-2.6101,-2.5799,0.0,-2.5034,-2.4883,-2.4833,-2.4895,-2.5059,0.0,0.0,0.0,0.0,0.0,-2.4774,-2.2907,-2.2538,-2.0775,-1.8751,-1.8934,-1.8544,-1.8047,-1.8223,-1.875,-1.9326,-1.9502,-2.0039,-2.0518,-2.0342,-2.0098,-1.9766,-1.916,-1.9014,-1.8896,-1.8467,-1.8379,-1.8379,-1.8379,-1.8174,0.0,-1.8008,-1.8008,-1.8008,-1.8008,-1.8008,-1.8008,-1.8008,-1.8008,-1.8105,-1.835,-1.8154,-1.8105,-1.835,-1.8154,0.0,0.0,0.0,-1.7676,-1.7744,-1.7322,0.0,0.0,0.0,0.0,0.0,0.0,0.0,0.0,-1.2043,-1.1951,0.0,0.0,0.0,0.0,0.0,0.0,0.0,0.0,0.0,0.0,0.0,0.0,0.0,0.0,0.0,0.0,-1.4421,-1.5533,-1.7346,-1.8081,-1.8725,-1.9634,-2.1173,-2.2246,-2.2297,-2.2811,-2.3424,-2.4234,-2.4894,-2.5618,-2.6336,0.0,0.0,0.0,0.0,-2.4689,-2.4004,-2.4933,-2.5448,-2.5523,-2.6025,-2.6,-2.5511,-2.5511,-2.5222,-2.4695,-2.4217,-2.4243,-2.4594,-2.4167,-2.433,-2.4921,-2.5963,-2.6433,-2.6302,-2.5724,-2.4116,-2.2241,-2.1969,0.0,0.0,-1.8447,-1.8311,-1.8086,-1.8516,-1.8906,-1.9316,-1.9785,-2.0156,-2.0342,-2.0,-1.9844,-1.958,-1.8818,-1.8603,-1.8467,-1.8086,-1.8008,-1.8008,-1.8008,-1.8008,-1.8008,-1.8008,-1.8008,-1.8008,-1.8008,-1.8008,-1.8008,-1.8008,-1.8008,-1.8008,-1.8008,0.0,0.0,-1.8008,-1.8008,-1.8008,-1.8008,-1.8057,-1.7823,-1.7329,-1.6821,-1.5896,-1.453,-1.4213,-1.3701,-1.2876,-1.3333,-1.348,-1.3233,-1.2171,-1.2245,0.0,0.0,0.0,0.0,0.0,0.0,0.0,0.0,0.0,0.0,0.0,0.0,0.0,0.0,0.0,-1.3668,-1.4659,-1.582,-1.739,-1.7711,-1.8423,-2.0266,-2.1187,-2.182,-2.2272,-2.2811,-2.3424,-2.4234,-2.4452,-2.4851,-2.5563,-2.5618,-2.5287,-2.4509,-2.4456,-2.4287,-2.3991,-2.4205,-2.4531,-2.4971,0.0,0.0,-2.4971,-2.4971,-2.4669,-2.4155,-2.4054,-2.3791,-2.3489,-2.3853,-2.433,-2.4883,-2.5523,-2.5762,-2.5699,-2.5172,-2.3937,-2.2409,-2.1266,-2.0096,-1.8931,-1.83,-1.8076,-1.8086,-1.8516,-1.8691,0.0,-1.9697,-1.9727,-1.959,-1.9844,-1.9404,-1.8838,-1.8601,-1.8379,-1.8105,-1.8027,-1.8008,-1.8008,-1.8008,-1.8008,-1.8008,-1.8008,-1.8008,-1.8008,-1.8008,-1.8008,-1.8008,-1.8008,-1.8008,-1.8008,-1.8008,-1.8008,-1.8008,-1.8008,-1.8008,-1.8008,-1.8008,-1.833,-1.7894,-1.6615,-1.6404,-1.5764,-1.4585,-1.3818,-1.3277,-1.312,-1.324,-1.3387,-1.3554,-1.324,-1.334,0.0,0.0,0.0,0.0,0.0,0.0,0.0,0.0,0.0,0.0,0.0,-0.9901,-1.1328,0.0,-1.323,-1.4382,-1.5032,-1.5911,-1.7413,-1.7578,-1.8271,-2.003,-2.0978,-2.1594,-2.187,-2.2648,-2.3424,-2.4234,-2.4292,-2.4624,-2.5342,-2.5063,-2.4681,-2.4292,-2.3884,-2.3624,-2.3565,-2.3853,-2.4142,-2.4406,-2.4695,-2.4669,-2.4406,-2.4406,-2.4104,-2.3565,-2.3565,-2.3401,-2.3103,-2.3452,-2.3904,-2.4367,-2.4205,-2.4554,-2.5069,-2.4119,-2.3018,-2.1855,-2.0434,-1.9365,-1.8596,-1.8134,-1.8008,-1.8086,-1.8516,-1.8562,-1.8769,-1.9424,-1.9453,-1.9287,-1.9277,-1.8955,-1.8584,-1.8379,-1.8164,-1.8008,-1.8008,-1.8008,-1.8008,-1.8008,-1.8008,-1.8008,-1.8008,-1.8008,-1.8008,-1.8008,-1.8008,-1.8008,-1.8008,-1.8008,-1.8008,-1.8008,-1.8008,-1.8008,-1.8008,-1.8008,-1.7794,-1.7354,-1.761,-1.7213,-1.5877,-1.5551,-1.5096,-1.4409,-1.3736,-1.3427,-1.3427,-1.3574,-1.3728,-1.3868,-1.3868,-1.3868,0.0,0.0,0.0,0.0,0.0,0.0,0.0,0.0,-0.8176,-0.9013,-0.9294,-1.0079,-1.2225,-1.2714,-1.3348,-1.5109,-1.541,-1.5911,-1.7413,-1.7578,-1.8167,-1.9631,-2.0803,-2.1493,-2.1493,-2.2485,-2.3365,-2.4002,-2.406,-2.4337,-2.4951,-2.4394,-2.406,-2.406,-2.3424,-2.3078,-2.3078,-2.3602,-2.3841,-2.3841,-2.428,-2.4255,-2.3841,-2.3841,-2.3577,-2.3078,-2.3078,-2.3078,-2.3078,-2.3078,-2.328,-2.3505,-2.2838,-2.3103,-2.3842,-2.2846,-2.1855,-2.0864,-1.969,-1.8721,-1.8008,-1.8008,-1.8008,-1.8086,-1.8516,-1.8584,-1.8623,-1.9141,-1.917,-1.8975,-1.8711,-1.8574,-1.8428,-1.8086,-1.8008,-1.8008,-1.8008,-1.8008,-1.8008,-1.8008,-1.8008,-1.8008,-1.8008,-1.8008,-1.8008,-1.8008,-1.8008,-1.8008,-1.8008,-1.8008,-1.8008,-1.8008,-1.8008,-1.794,-1.7725,-1.7725,-1.7295,-1.6358,-1.659,-1.6237,-1.5064,-1.4781,-1.4451,-1.4048,-1.376,-1.3559,-1.3559,-1.3941,-1.4088,-1.4088,-1.4088,-1.4088,-0.4497,-0.4487,-0.4639,-0.5218,-0.5928,-0.6691,0.0,0.0,-0.8784,-0.9123,-0.9721,-1.0675,-1.2282,-1.311,-1.3935,-1.5168,-1.541,-1.5911,-1.7413,-1.7578,-1.8167,-1.9631,-2.0803,-2.1493,-2.1493,-2.2485,-2.3138,-2.3245,-2.3245,-2.3245,-2.3365,-2.3305,-2.3245,-2.3245,-2.3138,-2.3078,-2.3078,-2.3201,-2.3226,-2.3226,-2.3228,-2.3288,-2.3226,-2.3226,-2.3128,-2.3078,-2.3078,-2.3078,-2.3078,-2.3078,-2.2739,-2.2097,-2.2035,-2.1607,-2.1126,-2.1447,-2.0721,-1.9505,-1.9386,-1.8721,-1.8008,-1.8008,-1.8008,-1.8086,-1.8516,-1.8379,-1.8252,-1.9062,-1.874,-1.8232,-1.8555,-1.8359,-1.8066,-1.8018,-1.8008,-1.8008,-1.8008,-1.8008,-1.8008,-1.8008,-1.8008,-1.8008,-1.8008,-1.8008,-1.8008,-1.8008,-1.8008,-1.8008,-1.8008,-1.8008,-1.8008,-1.8008,-1.8008,-1.7647,-1.6853,-1.6733,-1.6385,-1.5446,-1.5719,-1.5463,-1.4335,-1.4606,-1.4328,-1.3311,-1.348,-1.3559,-1.3559,-1.3941,-1.4088,-1.4088,-1.4088,-1.4088,-0.3335,-0.4027,0.0,0.0,-0.5167,-0.5745,-0.7025,-0.7449,-0.7895,-0.923,-0.9576,-1.0077,-1.1371,-1.2142,-1.2998,0.0,-1.4811,-1.5628,-1.7368,-1.7578,-1.8167,-1.9631,-2.0803,-2.1493,-2.1493,-2.2485,-2.3078,-2.3078,-2.3078,-2.3078,-2.3078,-2.3078,-2.3078,-2.3078,-2.3078,-2.3078,-2.3078,-2.3078,-2.3078,-2.3078,-2.3078,-2.3078,-2.3078,-2.3078,-2.3078,-2.3078,-2.3078,-2.2823,-2.2384,-2.2384,-2.1865,-2.1101,-2.059,-2.0139,-1.9846,-2.0106,-1.9788,-1.9243,-1.8721,-1.8269,-1.8008,-1.8008,-1.8008,-1.8086,-1.8516,-1.834,-1.8135,-1.874,-1.8477,-1.8047,-1.8223,-1.8144,-1.8008,-1.8008,-1.8008,-1.8008,-1.8008,-1.8008,-1.8008,-1.8008,-1.8008,-1.8008,-1.8008,-1.7569,-1.7217,-1.7217,-1.7217,-1.7001,-1.6437,-1.6376,-1.6376,-1.6376,-1.6376,-1.6228,-1.579,-1.5807,-1.5384,-1.4386,-1.4634,-1.4364,-1.3156,-1.3628,-1.3577,-1.2946,-1.34,-1.3559,-1.3559,-1.3941,-1.4088,-1.4088,-1.4088,-1.4088,-0.1771,0.0,0.0,-0.4525,-0.4515,-0.4868,-0.6337,-0.6809,-0.7356,-0.8934,-0.9217,-0.9597,-1.0951,-1.1704,-1.2538,-1.3866,-1.4591,-1.5558,-1.7357,-1.7578,-1.8224,-1.9855,-2.0903,-2.1543,-2.1707,-2.2573,-2.3078,-2.3078,-2.3078,-2.3078,-2.3078,-2.3078,-2.3078,-2.3078,-2.3078,-2.3078,-2.3078,-2.3078,-2.3078,-2.3078,-2.3078,-2.3078,-2.3078,-2.3078,-2.3078,-2.3078,-2.2884,-2.2445,-2.1877,-2.1628,-2.1037,-2.0204,-1.9562,-1.9177,-1.8911,-1.8911,-1.8911,-1.8854,-1.8202,-1.8008,-1.8008,-1.8008,-1.8008,-1.8066,-1.8369,-1.8252,-1.8076,-1.8379,-1.8242,-1.8008,-1.8008,-1.8008,-1.8008,-1.8008,-1.7794,-1.7579,-1.7579,-1.7432,-1.7226,-1.7226,-1.7226,-1.7226,-1.7226,-1.6645,-1.614,-1.586,-1.5774,-1.5608,-1.5217,-1.5234,-1.5234,-1.5234,-1.5234,-1.5092,-1.4807,-1.4807,-1.4386,-1.3382,-1.3527,-1.3259,-1.2311,-1.2726,-1.2852,-1.2701,-1.3133,-1.344,-1.3527,-1.3821,-1.4008,-1.4088,-1.4088,-1.4088,0.0,0.0,-0.4507,-0.4484,-0.4508,-0.4707,-0.5378,-0.6637,-0.78,-0.8181,-0.8738,-0.9757,-1.1551,-1.2257,-1.3035,-1.4551,-1.5127,-1.5891,-1.7413,-1.7578,-1.8363,-2.0403,-2.1142,-2.1694,0.0,-2.2799,-2.3078,-2.3078,-2.3078,-2.3078,-2.3078,-2.3078,-2.3078,-2.3078,-2.3078,-2.3078,-2.3078,-2.3078,-2.3078,-2.3078,-2.3078,-2.3078,-2.3078,-2.3078,-2.3078,-2.3078,-2.2261,-2.1939,-2.1815,-2.0974,-2.0139,-1.9365,-1.9299,-1.8787,-1.8008,-1.8008,-1.8008,-1.8008,-1.8008,-1.8008,-1.8008,-1.8008,-1.8008,-1.8008,-1.8027,-1.8018,-1.8008,-1.8027,-1.8018,-1.8008,-1.8008,-1.8008,-1.8008,-1.8008,-1.7285,-1.6636,-1.6636,-1.5939,-1.5305,-1.5305,-1.5305,-1.5305,-1.5305,-1.5234,-1.4879,-1.3954,-1.3547,-1.3808,-1.5051,-1.5234,-1.5234,-1.5234,-1.5234,-1.4807,-1.3818,-1.3745,-1.331,-1.2372,-1.2378,-1.2311,-1.2305,-1.2318,-1.2325,-1.2318,-1.2619,-1.2919,-1.3227,-1.3514,-1.3808,-1.4088,-1.4088,-1.4088,-0.0,0.0,-0.1733,-0.2736,-0.3738,-0.4536,-0.4777,-0.5559,-0.6638,-0.7941,-0.8196,-0.8527,-0.9653,-1.0715,-1.1747,-1.2808,-1.3848,-1.5089,-1.6669,-1.7302,-1.8018,-1.9245,-2.063,0.0,0.0,0.0,0.0,-2.3078,-2.3078,-2.3078,-2.3078,-2.3078,-2.3078,-2.3078,-2.3078,-2.3078,-2.3078,-2.3078,-2.3078,-2.3078,-2.3078,-2.3078,-2.3065,-2.2567,-2.2322,-2.2261,-2.1428,-2.0719,-2.0139,-1.9879,-1.9233,-1.8462,-1.8462,-1.8269,-1.8008,-1.8008,-1.8008,-1.8008,-1.8008,-1.8008,-1.8008,-1.8008,-1.8008,-1.8008,-1.8008,-1.8008,-1.8008,-1.8008,-1.8008,-1.8008,-1.8008,-1.7579,-1.707,-1.707,-1.6358,-1.5649,-1.5649,-1.5446,-1.5234,-1.5234,-1.5234,-1.5234,-1.5234,-1.4665,-1.3807,-1.2677,-1.2597,-1.2762,-1.3013,-1.3179,-1.3302,-1.3302,-1.3302,-1.3164,-1.2806,-1.2732,-1.2666,-1.2298,-1.2305,-1.2305,-1.2305,-1.2305,-1.2305,-1.2305,-1.2592,-1.2899,-1.3213,-1.35,-1.3794,-1.4088,-1.4088,-1.4088,-0.0,-0.0,-0.0224,-0.1172,-0.2174,-0.3195,-0.4276,-0.4838,-0.5567,-0.6925,-0.7503,-0.7931,-0.862,-1.0,-1.1366,-1.2324,-1.3542,-1.482,-1.6275,-1.7146,-1.7975,-1.8922,-2.0465,-2.1568,0.0,0.0,0.0,-2.3078,-2.3078,-2.3078,-2.3078,-2.3078,-2.3078,-2.3078,-2.3078,-2.3078,-2.3078,-2.3078,-2.3078,-2.3078,-2.3078,-2.2944,-2.2628,-2.2125,-2.1753,-2.1365,-2.0526,-1.9814,-1.9288,-1.8812,-1.8388,-1.7998,-1.7842,-1.7881,-1.8008,-1.8008,-1.8008,-1.8008,-1.8008,-1.8008,-1.8008,-1.8008,-1.8008,-1.8008,-1.8008,-1.7794,-1.7501,-1.7501,-1.7295,-1.701,-1.701,-1.6576,-1.607,-1.607,-1.5367,-1.4665,-1.4665,-1.4378,-1.4163,-1.4163,-1.4163,-1.4163,-1.4163,-1.3576,-1.2714,-1.1756,-1.1804,-1.1957,-1.1877,-1.2124,-1.2305,-1.2305,-1.2305,-1.2305,-1.2305,-1.2305,-1.2305,-1.2305,-1.2305,-1.2305,-1.2305,-1.2305,-1.2305,-1.2305,-1.2492,-1.2792,-1.3213,-1.34,-1.3694,-1.4088,-1.4088,-1.4088,-0.0,-0.0,-0.0,-0.0,-0.0,-0.0726,-0.3633,-0.4398,-0.4707,-0.532,-0.6573,-0.7818,0.0,0.0,-1.1724,-1.2851,-1.3978,-1.5127,-1.6306,-1.7079,-1.8089,0.0,0.0,0.0,0.0,0.0,0.0,-2.3078,0.0,-2.3078,-2.3078,-2.3078,-2.3078,-2.3078,-2.3078,-2.3078,-2.3078,-2.3078,-2.3065,-2.3027,-2.3027,-2.2579,-2.1794,-2.1732,-2.1221,-2.0384,-1.9553,-1.917,-1.9073,-1.783,-1.7598,-1.7939,-1.7539,-1.7637,-1.8008,-1.8008,-1.8008,-1.8008,-1.8008,-1.8008,-1.8008,-1.8008,-1.8008,-1.8008,-1.794,-1.7285,-1.6567,-1.6567,-1.5869,-1.5234,-1.5234,-1.5163,-1.5092,-1.5092,-1.4378,-1.36,-1.36,-1.2952,-1.2305,-1.2305,-1.2305,-1.2305,-1.2305,-1.2051,-1.1657,-1.1096,-1.1236,-1.151,-1.181,-1.2098,-1.2285,-1.2305,-1.2305,-1.2305,-1.2305,-1.2305,-1.2305,-1.2305,-1.2305,-1.2305,-1.2305,-1.2305,-1.2305,-1.2305,-1.2305,-1.2599,-1.3213,-1.3213,-1.3507,-1.3997,-1.3997,-1.3997,0.0279,-0.0,-0.0,-0.0,-0.0,-0.0223,-0.0949,-0.2896,-0.457,-0.471,-0.5479,-0.6465,0.0,0.0,0.0,-1.2032,-1.3012,0.0,-1.5466,-1.68,0.0,-1.8089,0.0,-2.1091,-2.1644,-2.2196,0.0,0.0,-2.3078,-2.3078,-2.3078,-2.3078,-2.3078,-2.3078,-2.3078,-2.3078,-2.3078,-2.3078,-2.2613,-2.1656,-2.1656,-2.1081,-1.9927,-1.9321,-1.8892,-1.8582,-1.7734,-1.7362,-1.7362,-1.6998,-1.7158,-1.7529,-1.7422,-1.7637,-1.8008,-1.8008,-1.8008,-1.8008,-1.8008,-1.8008,-1.8008,-1.8008,-1.8008,-1.7872,-1.7148,-1.6784,-1.6419,-1.572,-1.5376,-1.5234,-1.5234,-1.4665,-1.4099,-1.4099,-1.3382,-1.2666,-1.2666,-1.2445,-1.2305,-1.2305,-1.2305,-1.2305,-1.2305,-1.1877,-1.149,-1.1336,-1.1196,-1.1209,-1.1503,-1.1797,-1.2064,-1.2278,-1.2305,-1.2305,-1.2305,-1.2305,-1.2305,-1.2305,-1.2305,-1.2305,-1.2305,-1.2305,-1.2305,-1.2305,-1.2305,-1.2599,-1.3213,-1.3213,-1.3089,-1.2766,-1.2766,-1.2334,0.2178,0.1005,-0.0,-0.0,-0.0,-0.0168,-0.0837,-0.2287,-0.3683,-0.4333,-0.5046,0.0,-0.702,0.0,0.0,0.0,0.0,0.0,-1.5148,-1.6517,-1.7398,0.0,-1.942,0.0,-2.1091,-2.1631,-2.2083,0.0,-2.2636,-2.2774,-2.2774,-2.2548,-2.241,-2.241,-2.241,-2.241,-2.241,-2.2105,-2.1592,-2.0866,-2.0499,-1.9812,-1.8715,-1.823,-1.7811,-1.7388,0.0,-1.6665,-1.6719,-1.6523,-1.6699,-1.708,-1.6885,-1.7187,-1.7715,-1.7519,-1.7349,-1.7129,-1.6949,-1.6683,-1.6434,-1.6957,-1.7281,-1.7179,-1.6085,-1.5583,-1.5226,-1.4665,-1.4235,-1.3947,-1.3947,-1.3528,-1.3098,-1.3098,-1.2666,-1.2305,-1.2305,-1.2305,-1.2305,-1.2305,-1.2305,-1.2225,-1.1964,-1.1643,-1.1336,-1.1082,-1.0909,-1.0909,-1.1196,-1.1603,-1.1931,-1.2098,-1.2225,-1.2305,-1.2305,-1.2305,-1.2305,-1.2305,-1.2305,-1.2305,-1.2305,-1.2305,-1.2305,-1.2305,-1.2305,-1.2365,-1.2473,-1.2473,-1.2168,-1.1552,-1.1552,-1.1209,0.4525,0.2563,0.0502,0.0112,-0.0,-0.0336,-0.1619,-0.2232,-0.2901,-0.4242,0.0,-0.5597,-0.6421,-0.7581,-0.9231,-1.1619,0.0,-1.3039,-1.4964,-1.6275,-1.7126,-1.7487,-1.9312,-2.063,-2.0706,-2.1104,-2.1405,-2.1481,-2.187,-2.2121,-2.2196,-2.1744,-2.1493,-2.1493,-2.1493,-2.1493,-2.1493,-2.0779,-2.033,-2.0143,-1.9387,-1.8572,-1.7624,-1.7624,-1.7267,-1.6553,0.0,0.0,-1.6523,-1.6133,-1.624,-1.6602,-1.6211,-1.6562,-1.7256,-1.6875,-1.6419,-1.5969,-1.5633,-1.4997,-1.4461,-1.5508,-1.6057,-1.6067,-1.484,-1.408,-1.3546,-1.3403,-1.286,-1.2238,-1.2198,-1.2245,-1.2291,-1.2258,-1.2245,-1.2245,-1.2245,-1.2211,-1.2198,-1.2238,-1.2211,-1.2051,-1.1617,-1.1443,-1.1209,-1.0742,-1.0672,-1.0648,-1.0902,-1.141,-1.1784,-1.1864,-1.2091,-1.2258,-1.2298,-1.2305,-1.2305,-1.2305,-1.2305,-1.2305,-1.2305,-1.2305,-1.2305,-1.2305,-1.215,-1.1898,-1.1484,-1.1324,-1.1002,-1.0351,-1.0351,-1.0265,0.4502,0.4114,0.3125,0.0614,-0.0,-0.0056,-0.0336,-0.2294,0.0,0.0,-0.4584,-0.5062,-0.6372,-0.6799,-0.8003,-1.1108,0.0,0.0,0.0,0.0,-1.7055,0.0,0.0,0.0,0.0,0.0,0.0,0.0,0.0,-2.1154,-2.1606,-2.1543,-2.1493,-2.1493,-2.1493,-2.1493,-2.1493,-2.0779,-1.9853,-1.8805,-1.8101,-1.7078,-1.5861,-1.5861,-1.5753,-1.5644,-1.5644,0.0,-1.5635,-1.5557,-1.5781,-1.6172,-1.6154,-1.6387,-1.6836,-1.6758,-1.623,-1.5605,-1.5533,-1.4997,-1.4353,-1.4552,-1.4678,-1.4521,-1.3545,-1.3104,-1.2877,-1.2054,-1.1891,-1.1884,-1.1643,-1.1937,-1.2238,-1.2004,-1.1944,-1.1944,-1.1944,-1.175,-1.165,-1.1897,-1.1744,-1.1697,-1.2084,-1.155,-1.1116,-1.1256,-1.0868,-1.0645,-1.0628,-1.0935,-1.1329,-1.1817,-1.1911,-1.2044,-1.2278,-1.2305,-1.2305,-1.2305,-1.2305,-1.2305,-1.2305,-1.2305,-1.2305,-1.2305,-1.1465,-1.12,-1.1484,-1.0589,-0.9844,-0.9235,-0.9235,-0.8623,0.433,0.4422,0.4141,0.2683,0.1173,-0.0,-0.0,0.0,0.0,0.0,-0.4474,-0.4956,-0.6317,0.0,0.0,0.0,0.0,0.0,0.0,0.0,0.0,0.0,0.0,0.0,0.0,0.0,0.0,0.0,0.0,-2.0464,-2.1029,-2.0778,-2.0614,-2.0614,-2.0614,-2.0614,-2.0614,-1.9476,-1.8622,-1.8003,-1.6922,-1.6006,-1.541,-1.541,-1.541,-1.541,-1.541,0.0,-1.541,-1.541,-1.5537,-1.5723,-1.5723,-1.5744,-1.5717,-1.5501,-1.4782,-1.3832,-1.3633,-1.3068,-1.2379,-1.2379,-1.2941,-1.333,-1.224,-1.2045,-1.203,-1.156,-1.153,-1.1603,-1.1463,-1.163,-1.181,-1.167,-1.1637,-1.1637,-1.1637,-1.1523,-1.1516,-1.181,-1.1757,-1.1744,-1.2024,-1.1597,-1.1209,-1.1202,-1.0835,-1.0428,-0.9977,-1.0032,-1.052,-1.1507,-1.1777,-1.1991,-1.2278,-1.1848,-1.1539,-1.1539,-1.1019,-1.0726,-1.0726,-1.0726,-1.0726,-1.0726,-1.0271,-0.9967,-0.9786,-0.9299,-0.8681,-0.7929,-0.7929,-0.7665,0.4107,0.4287,0.4433,0.4505,0.2447,0.0387,0.0053,-0.1143,0.0,0.0,-0.4638,-0.5117,-0.6367,0.0,-0.7812,0.0,0.0,0.0,0.0,0.0,0.0,0.0,0.0,0.0,0.0,0.0,0.0,0.0,0.0,0.0,-2.0492,-2.0049,-1.9798,-1.9798,-1.9643,-1.9579,-1.9579,-1.8124,-1.7357,-1.7357,-1.6026,-1.541,-1.541,-1.541,-1.541,-1.541,-1.541,0.0,0.0,-1.5225,-1.5108,-1.5118,-1.4932,-1.4703,-1.4453,-1.4081,-1.3244,-1.2258,-1.1924,-1.1288,-1.0624,-1.0624,-1.1446,-1.2196,-1.1231,-1.1056,-1.1243,-1.1243,-1.1283,-1.1316,-1.1256,-1.1329,-1.141,-1.1349,-1.1329,-1.1316,-1.1249,-1.1243,-1.1343,-1.1703,-1.1724,-1.1724,-1.185,-1.157,-1.1256,-1.1029,-1.0748,-1.0364,-0.9658,-0.9402,-0.9729,-1.0947,-1.1134,-1.1331,-1.1594,-1.0944,-1.049,-1.049,-0.9744,-0.9296,-0.9296,-0.9296,-0.9296,-0.9296,-0.9074,-0.8737,-0.8164,-0.8004,-0.7601,-0.7139,-0.7139,-0.7139,0.387,0.4046,0.4277,0.4464,0.3232,0.1659,0.0322,0.0,0.0,-0.4187,-0.4958,-0.5651,-0.648,-0.7128,-0.8296,0.0,0.0,0.0,0.0,0.0,0.0,0.0,0.0,0.0,0.0,0.0,0.0,0.0,0.0,0.0,-1.9823,-1.9823,-1.9798,-1.9798,-1.915,-1.8821,-1.8821,-1.7357,-1.6595,-1.6595,-1.5806,-1.541,-1.541,-1.541,-1.541,-1.541,-1.541,0.0,0.0,-1.4628,-1.4323,-1.4273,-1.3494,-1.3208,-1.3172,-1.3139,-1.2597,-1.1872,-1.1779,-1.1288,-1.0624,-1.0624,-1.0721,-1.0762,-1.0672,-1.0678,-1.0641,-1.0641,-1.0828,-1.0969,-1.0708,-1.1029,-1.1363,-1.1096,-1.1035,-1.0962,-1.0759,-1.0641,-1.0802,-1.1356,-1.1256,-1.1243,-1.1777,-1.1403,-1.1022,-1.0995,-1.0748,-1.0561,-1.0491,-0.9786,-0.9468,-0.9961,-0.934,-0.9118,-0.9562,-0.9523,-0.9448,-0.9448,-0.9372,-0.9296,-0.9296,-0.9296,-0.9296,-0.9296,-0.8389,-0.8038,-0.8164,-0.727,-0.6936,-0.7139,-0.7139,-0.7139,0.3899,0.3948,0.4141,0.4421,0.334,0.1831,0.0311,0.0,-0.2628,-0.4172,-0.5051,-0.5706,-0.6475,-0.7182,-0.8396,0.0,-1.0813,-1.1366,-1.3035,0.0,0.0,0.0,0.0,0.0,0.0,0.0,0.0,0.0,0.0,0.0,-1.8819,-1.8844,-1.8684,-1.8313,-1.825,-1.8031,-1.7675,-1.6894,-1.6492,-1.6492,-1.5748,-1.541,-1.541,-1.541,-1.541,-1.541,-1.541,0.0,0.0,-1.4323,-1.3906,-1.3433,-1.313,-1.2696,-1.2266,-1.2266,-1.1779,-1.1108,-1.1108,-1.0863,-1.0624,-1.0624,-1.0624,-1.0624,-1.0624,-1.0624,-1.0624,-1.0624,-1.0705,-1.0701,-1.0651,-1.0735,-1.0875,-1.0755,-1.0735,-1.0701,-1.0651,-1.0624,-1.0547,-1.0409,-1.0263,-1.0172,-1.0038,-0.9668,-0.9432,-0.9432,-0.9225,-0.8865,-0.8345,-0.7957,-0.7617,-0.7367,-0.806,-0.8811,-0.9261,-0.877,-0.8389,-0.8389,-0.7859,-0.748,-0.748,-0.748,-0.748,-0.748,-0.7099,-0.7032,-0.727,-0.6864,-0.6851,-0.7139,-0.7139,-0.7139,0.4088,0.3982,0.3999,0.4175,0.3559,0.2371,0.0,-0.1139,-0.2626,-0.4188,-0.5217,-0.5982,-0.648,-0.7402,-0.8613,0.0,-1.0813,-1.1366,-1.2949,-1.4061,0.0,0.0,0.0,0.0,0.0,0.0,0.0,0.0,0.0,0.0,-1.7458,-1.7412,-1.7407,-1.7315,-1.7151,-1.6877,-1.6472,-1.6027,-1.5807,-1.5807,-1.5385,-1.5225,-1.5234,-1.5352,-1.541,-1.541,-1.5177,0.0,0.0,-1.3551,-1.3015,-1.2474,-1.224,-1.1874,-1.1469,-1.1469,-1.1108,-1.0611,-1.0461,-1.0428,-1.0428,-1.0428,-1.0428,-1.0448,-1.0598,-1.0624,-1.0624,-1.0624,-1.0624,-1.0624,-1.0624,-1.0624,-1.0624,-1.0624,-1.0624,-1.0561,-1.0301,-1.0238,-1.0059,-0.9464,-0.9309,-0.9158,-0.8769,-0.8528,-0.84,-0.8266,-0.8123,-0.7762,-0.7177,-0.685,-0.6531,-0.6047,-0.704,-0.792,-0.8266,-0.7749,-0.7326,-0.7326,-0.6721,-0.6338,-0.6338,-0.6338,-0.6338,-0.6338,-0.6338,-0.6407,-0.6702,-0.6702,-0.6851,-0.7139,-0.7139,-0.7139,0.4391,0.4138,0.3849,0.3658,0.4066,0.3711,0.0,-0.1137,-0.2626,-0.4188,-0.5588,-0.6588,-0.6588,-0.7777,-0.9211,-1.0568,-1.0813,-1.1507,-1.3521,-1.4329,0.0,0.0,0.0,0.0,0.0,0.0,0.0,0.0,0.0,0.0,-1.5644,-1.5644,-1.6133,-1.7242,-1.5952,-1.5236,-1.5236,-1.4493,-1.4097,-1.415,-1.459,-1.4795,-1.4805,-1.5225,-1.541,0.0,0.0,0.0,0.0,-1.198,-1.1338,-1.1219,-1.0409,-1.0301,-1.0624,-1.0624,-1.0624,-1.0521,-1.0221,-1.012,-1.012,-1.012,-1.012,-1.0174,-1.0474,-1.0624,-1.0624,-1.0624,-1.0624,-1.0624,-1.0624,-1.0624,-1.0624,-1.0624,-1.0624,-1.0364,-0.953,-0.9338,-0.9144,-0.8513,-0.8425,-0.8425,-0.8425,-0.8425,-0.8281,-0.8062,-0.8027,-0.8027,-0.7962,-0.7242,-0.6726,-0.6848,-0.6268,-0.5864,-0.6017,-0.6173,-0.6338,-0.6338,-0.6338,-0.6338,-0.6338,-0.6338,-0.6338,-0.6338,-0.6338,-0.6407,-0.6702,-0.6702,-0.6851,-0.7139,-0.7139,-0.7139,0.4052,0.3791,0.3504,0.2589,0.3147,0.2656,-0.1997,-0.2598,-0.262,-0.4178,-0.5611,-0.6588,-0.6588,-0.8184,-0.9762,-1.0661,-1.1166,0.0,0.0,0.0,0.0,0.0,0.0,0.0,0.0,0.0,0.0,0.0,0.0,0.0,-1.5017,-1.4595,-1.4554,-1.4909,-1.474,-1.4469,-1.4042,-1.409,-1.4077,-1.4077,-1.4277,-1.4064,-1.3617,-1.3747,-1.357,0.0,0.0,0.0,0.0,-1.123,-1.0719,-1.0158,-0.9931,-0.988,-0.996,-0.996,-0.996,-0.9947,-0.9853,-0.982,-0.9853,-1.0053,-1.0114,-1.0174,-1.0474,-1.0624,-1.0624,-1.0624,-1.0174,-0.9722,-0.9722,-0.9262,-0.8807,-0.8807,-0.8807,-0.8737,-0.8484,-0.842,-0.8177,-0.7391,-0.7268,-0.7074,-0.6422,-0.6356,-0.6336,-0.6218,-0.621,-0.621,-0.621,-0.6013,-0.5837,-0.5888,-0.5768,-0.5715,-0.5861,-0.6013,-0.6101,-0.6101,-0.6101,-0.6149,-0.6257,-0.6338,-0.6338,-0.6338,-0.6338,-0.6352,-0.6546,-0.6546,-0.6702,-0.6997,-0.7095,-0.7139,0.0,0.381,0.3401,0.2689,0.2362,0.1054,-0.3445,-0.3755,-0.3464,-0.4752,-0.5868,-0.6696,-0.6966,-0.8554,-1.0012,-1.0712,-1.1366,0.0,0.0,0.0,0.0,0.0,0.0,0.0,0.0,0.0,0.0,0.0,0.0,0.0,-1.4422,-1.4003,-1.3684,-1.3467,-1.3675,-1.364,-1.3271,-1.3525,-1.3662,-1.3662,-1.3818,-1.3518,-1.2869,-1.3023,-1.2758,0.0,0.0,0.0,0.0,-1.0389,-0.9953,-0.9519,-0.9519,-0.9586,-0.9686,-0.9686,-0.9686,-0.9666,-0.9552,-0.9519,-0.9546,-0.9726,-0.9688,-0.9604,-0.9629,-0.9843,-1.004,-0.9716,-0.9198,-0.8812,-0.8812,-0.842,-0.8027,-0.8027,-0.8027,-0.7897,-0.7567,-0.7497,-0.7237,-0.6396,-0.6203,-0.6009,-0.5491,-0.5428,-0.5428,-0.5428,-0.5428,-0.5428,-0.5428,-0.5428,-0.5428,-0.5428,-0.5518,-0.561,-0.5627,-0.5823,-0.5942,-0.5942,-0.5996,-0.6071,-0.6169,-0.623,-0.6338,-0.6338,-0.6338,-0.6332,-0.6471,-0.6586,-0.6742,-0.6932,-0.7075,-0.7139,0.0,0.4131,0.3601,0.3601,0.1664,-0.0963,-0.3686,-0.4407,0.0,-0.5629,-0.6226,-0.6832,-0.7581,-0.8908,-1.0115,-1.0762,-1.1416,0.0,0.0,0.0,0.0,0.0,0.0,0.0,0.0,0.0,0.0,0.0,0.0,0.0,-1.3815,-1.3732,-1.3457,-1.2929,-1.2881,-1.2881,-1.2881,-1.2881,-1.2881,-1.2832,-1.3221,-1.2987,-1.2314,-1.2672,-1.2506,0.0,0.0,0.0,0.0,-0.9528,-0.915,-0.915,-0.915,-0.9379,-0.9619,-0.9619,-0.9619,-0.9515,-0.918,-0.9081,-0.9026,-0.9026,-0.8912,-0.8612,-0.8084,-0.8479,-0.9011,-0.8221,-0.7962,-0.7897,-0.7897,-0.7897,-0.7832,-0.7832,-0.7832,-0.7572,-0.6785,-0.658,-0.6384,-0.5554,-0.5428,-0.5428,-0.5428,-0.5428,-0.5428,-0.5428,-0.5428,-0.5428,-0.5428,-0.5428,-0.5428,-0.5428,-0.5498,-0.5564,-0.5428,-0.5633,-0.58,-0.58,-0.5945,-0.6034,-0.6047,-0.6183,-0.6338,-0.6338,-0.6338,-0.6325,-0.6458,-0.6763,-0.6912,-0.6915,-0.7068,-0.7139,0.3876,0.0,0.3577,0.3611,0.0406,-0.269,0.0,-0.3285,-0.4249,0.0,0.0,-0.6789,-0.7955,-0.946,-1.0762,-1.1466,-1.2187,-1.3084,0.0,0.0,0.0,0.0,0.0,0.0,0.0,0.0,0.0,0.0,0.0,-1.4376,-1.32,-1.3104,-1.3065,-1.2881,-1.2881,-1.2881,-1.2881,-1.2881,-1.2608,-1.208,-1.2172,-1.1556,-1.0446,-1.0533,-1.0204,0.0,0.0,0.0,-0.9164,-0.8958,-0.8911,-0.8911,-0.8911,-0.8951,-0.9011,-0.9011,-0.8648,-0.8159,-0.8092,-0.7664,-0.725,-0.7486,-0.7714,-0.7663,-0.6974,-0.7469,-0.8285,-0.8027,-0.7502,-0.6976,-0.7033,-0.6523,-0.6017,-0.6017,-0.6017,-0.5951,-0.5752,-0.5683,-0.562,-0.5425,-0.5428,-0.5428,-0.5428,-0.5428,-0.5428,-0.5428,-0.5428,-0.5428,-0.5428,-0.5428,-0.5428,-0.5428,-0.5428,-0.5498,-0.5564,-0.5703,-0.58,-0.58,-0.5945,-0.6084,-0.6203,-0.624,-0.6338,-0.6338,-0.6338,-0.6355,-0.6312,-0.661,-0.6756,-0.6759,-0.7017,-0.7139,0.0489,0.0136,-0.0138,-0.0138,-0.1473,-0.2799,-0.2906,0.0,0.0,0.0,0.0,-0.7314,-0.8587,-0.9984,-1.1256,-1.2113,-1.2638,0.0,0.0,0.0,0.0,0.0,0.0,0.0,0.0,0.0,0.0,0.0,0.0,-1.4154,-1.2968,-1.2881,-1.2881,-1.2881,-1.2881,-1.2881,-1.2881,-1.2559,-1.2187,-1.1814,-1.1466,-1.0813,-0.9814,-0.9814,-0.9413,0.0,0.0,0.0,-0.8804,-0.8804,-0.8804,-0.8804,-0.8804,-0.8573,-0.8277,-0.8277,-0.7805,-0.7178,-0.7175,-0.6961,-0.6615,-0.6503,-0.6619,-0.6569,-0.5942,-0.6117,-0.6588,-0.6654,-0.633,-0.5935,-0.5994,-0.5609,-0.5292,-0.5362,-0.5428,-0.5428,-0.5428,-0.5428,-0.5428,-0.5428,-0.5428,-0.5428,-0.5428,-0.5428,-0.5428,-0.5428,-0.5428,-0.5428,-0.5428,-0.5428,-0.5428,-0.5428,-0.5428,-0.5428,-0.5568,-0.5703,-0.5823,-0.5798,-0.5832,-0.5993,-0.6149,-0.6156,-0.6186,-0.6335,-0.6338,-0.6338,-0.6338,-0.6485,-0.663,-0.6705,-0.6936,-0.7078,-0.3633,-0.4391,-0.484,-0.4738,-0.361,-0.2863,-0.4185,0.0,0.0,0.0,0.0,0.0,0.0,0.0,0.0,0.0,0.0,0.0,0.0,0.0,0.0,0.0,0.0,0.0,0.0,0.0,0.0,0.0,0.0,-1.4071,-1.2978,-1.2881,-1.2881,-1.2881,-1.2774,-1.2715,-1.2715,-1.2129,-1.1715,-1.1466,-1.0914,-1.0312,-0.9666,-0.9666,-0.9361,0.0,0.0,0.0,-0.8804,-0.8685,-0.8633,-0.8626,-0.8508,-0.8094,-0.7518,-0.7553,-0.7046,-0.643,-0.6288,-0.6263,-0.6204,-0.5742,-0.5629,-0.5529,-0.5001,-0.4895,-0.489,-0.5022,-0.5055,-0.5101,-0.5074,-0.5087,-0.5156,-0.5292,-0.5362,-0.5428,-0.5428,-0.5428,-0.5428,-0.5428,-0.5428,-0.5428,-0.5428,-0.5428,-0.5428,-0.5428,-0.5428,-0.5428,-0.5428,-0.5428,-0.5428,-0.5428,-0.5428,-0.5495,-0.5634,-0.5744,-0.5762,-0.5848,-0.5845,-0.5928,-0.6061,-0.6064,-0.6129,-0.6257,-0.6338,-0.6338,-0.6338,-0.6403,-0.6539,-0.6668,-0.6824,-0.697,-0.5591,-0.6107,-0.6304,-0.5721,-0.5701,-0.5738,-0.5679,0.0,0.0,0.0,0.0,0.0,0.0,0.0,0.0,0.0,0.0,0.0,0.0,0.0,0.0,0.0,0.0,0.0,0.0,0.0,0.0,0.0,0.0,-1.3647,-1.2929,-1.2881,-1.2881,-1.2881,-1.2295,-1.1972,-1.1972,-1.1864,-1.1216,-1.0115,-1.0012,-0.9614,-0.8956,-0.8956,-0.891,0.0,0.0,-0.8804,-0.8752,-0.81,-0.7864,-0.7805,-0.7167,-0.6881,-0.6791,-0.6786,-0.632,-0.5576,-0.5014,-0.4846,-0.4791,-0.4732,-0.4673,-0.4688,-0.4745,-0.4738,-0.4716,-0.4773,-0.4848,-0.4915,-0.4957,-0.502,-0.5087,-0.5156,-0.5292,-0.5428,-0.5428,-0.5428,-0.5428,-0.5428,-0.5428,-0.5428,-0.5428,-0.5428,-0.5428,-0.5428,-0.5428,-0.5428,-0.5428,-0.5428,-0.5428,-0.5428,-0.5428,-0.5498,-0.5771,-0.5719,-0.5723,-0.5973,-0.612,-0.62,-0.6224,-0.6227,-0.6237,-0.6261,-0.6338,-0.6338,-0.6338,-0.6403,-0.6485,-0.6512,-0.6664,-0.6817,-0.6463,-0.709,-0.7556,-0.7649,-0.7328,-0.6913,-0.6556,0.0,0.0,0.0,0.0,0.0,0.0,0.0,0.0,0.0,0.0,0.0,0.0,0.0,0.0,0.0,0.0,0.0,0.0,0.0,0.0,0.0,0.0,0.0,-1.292,-1.2881,-1.2881,-1.2881,-1.2171,-1.1635,-1.1247,-1.0873,-1.0386,-0.9776,-0.9451,-0.9113,-0.8804,-0.8804,-0.8804,-0.8804,0.0,-0.8804,-0.8752,-0.8448,-0.8055,-0.7643,-0.7344,-0.6701,-0.5964,-0.5584,-0.5262,-0.4919,-0.4632,-0.4519,-0.4519,-0.4519,-0.4519,-0.4519,-0.4574,-0.4577,-0.4577,-0.4577,-0.4681,-0.4762,-0.4777,-0.4813,-0.4894,-0.4947,-0.5087,-0.5156,-0.5223,-0.5223,-0.5292,-0.5362,-0.5428,-0.5428,-0.5428,-0.5428,-0.5428,-0.5428,-0.5428,-0.5428,-0.5428,-0.5428,-0.5428,-0.5428,-0.5428,-0.5498,-0.5701,-0.5612,-0.5702,-0.586,-0.6022,-0.613,-0.6105,-0.628,-0.6338,-0.6338,-0.6338,-0.6338,-0.6338,-0.6325,-0.6396,-0.6474,-0.6546,-0.6658,-0.767,-0.8292,-0.8915,-0.947,0.0,-0.7955,-0.7943,0.0,0.0,0.0,0.0,0.0,0.0,0.0,0.0,0.0,0.0,0.0,0.0,0.0,0.0,0.0,0.0,0.0,0.0,0.0,0.0,0.0,0.0,0.0,-1.292,-1.2783,-1.2706,-1.2618,-1.196,-1.1219,-1.0589,-0.9883,-0.9563,-0.9563,-0.9047,-0.8804,-0.8804,-0.8804,-0.8804,-0.8804,-0.8626,-0.8567,-0.8514,-0.8159,-0.7676,-0.7187,-0.6999,-0.6248,-0.5203,-0.4688,-0.4519,-0.4519,-0.4519,-0.4519,-0.4519,-0.4519,-0.4519,-0.4519,-0.4519,-0.4519,-0.4519,-0.4519,-0.4574,-0.4632,-0.4632,-0.4688,-0.4752,-0.4846,-0.4887,-0.4954,-0.5021,-0.5058,-0.5156,-0.5292,-0.5362,-0.5428,-0.5428,-0.5428,-0.5428,-0.5428,-0.5428,-0.5428,-0.5428,-0.5428,-0.5428,-0.5428,-0.5428,-0.5428,-0.5564,-0.5636,-0.5666,-0.5819,-0.5947,-0.6033,-0.6037,-0.6256,-0.6338,-0.6338,-0.6338,-0.6338,-0.6338,-0.6338,-0.6318,-0.6424,-0.6424,-0.6505,-1.0108,-1.0394,-1.0463,-1.0504,0.0,0.0,-1.0463,-1.0743,0.0,0.0,0.0,0.0,0.0,0.0,0.0,0.0,0.0,0.0,0.0,0.0,0.0,0.0,0.0,0.0,0.0,0.0,0.0,0.0,0.0,0.0,-1.2861,-1.25,-1.2148,-1.1905,-1.1236,-1.0531,-0.9895,-0.92,-0.885,-0.885,-0.8804,-0.8804,-0.8804,-0.8804,-0.8804,-0.8752,-0.8094,-0.7799,-0.7688,-0.6312,-0.5708,-0.5619,-0.498,-0.4688,-0.4574,-0.4519,-0.4519,-0.4519,-0.4519,-0.4519,-0.4519,-0.4519,-0.4519,-0.4519,-0.4519,-0.4519,-0.4519,-0.4519,-0.4519,-0.4519,-0.4519,-0.4632,-0.4702,-0.4689,-0.4815,-0.493,-0.493,-0.5027,-0.5087,-0.5087,-0.5292,-0.5428,-0.5428,-0.5428,-0.5428,-0.5428,-0.5428,-0.5428,-0.5428,-0.5428,-0.5428,-0.5428,-0.5428,-0.5428,-0.5428,-0.5677,-0.5773,-0.5773,-0.5949,-0.6093,-0.624,-0.6254,-0.6338,-0.6338,-0.6338,-0.6338,-0.6338,-0.6338,-0.6345,-0.6278,-0.6278,-0.6352,-1.0452,-1.0908,-1.1322,-1.1808,0.0,0.0,0.0,0.0,0.0,0.0,0.0,0.0,0.0,0.0,0.0,0.0,0.0,0.0,0.0,0.0,0.0,0.0,0.0,0.0,0.0,0.0,0.0,0.0,0.0,0.0,0.0,-1.1599,-1.1269,-1.1175,-1.014,-0.9577,-0.9551,-0.8909,-0.8633,-0.8804,-0.8804,-0.8804,-0.8804,-0.8804,-0.8804,-0.8752,-0.8035,-0.7711,-0.7606,-0.6608,-0.5914,-0.5408,-0.4783,-0.4519,-0.4519,-0.4519,-0.4519,-0.4519,-0.4519,-0.4519,-0.4519,-0.4519,-0.4519,-0.4519,-0.4519,-0.4519,-0.4519,-0.4519,-0.4519,-0.4519,-0.4519,-0.4519,-0.4574,-0.4574,-0.4632,-0.4688,-0.4746,-0.488,-0.4975,-0.5085,-0.5292,-0.5428,-0.5428,-0.5428,-0.5428,-0.5428,-0.5428,-0.5428,-0.5428,-0.5428,-0.5428,-0.5428,-0.5428,-0.5428,-0.5428,-0.5564,-0.5662,-0.5672,-0.5898,-0.6099,-0.6261,-0.6338,-0.6338,-0.6338,-0.6338,-0.6338,-0.6338,-0.6338,-0.6338,-0.6338,-0.6338,-0.6288,-1.1272,-1.1811,-1.2477,0.0,0.0,0.0,0.0,0.0,0.0,0.0,0.0,0.0,0.0,0.0,0.0,0.0,0.0,0.0,0.0,0.0,0.0,0.0,0.0,0.0,0.0,0.0,0.0,0.0,0.0,0.0,0.0,-1.0855,-1.0454,-1.0195,-0.9366,-0.889,-0.8904,-0.8464,-0.833,-0.8508,-0.8389,-0.8389,-0.8448,-0.8212,-0.81,-0.8041,-0.7342,-0.7004,-0.6955,-0.6248,-0.5665,-0.5148,-0.4688,-0.4519,-0.4519,-0.4519,-0.4519,-0.4519,-0.4519,-0.4519,-0.4519,-0.4519,-0.4519,-0.4519,-0.4519,-0.4519,-0.4519,-0.4519,-0.4519,-0.4519,-0.4519,-0.4519,-0.4519,-0.4519,-0.4519,-0.4519,-0.4632,-0.4802,-0.4934,-0.5042,-0.5156,-0.5292,-0.5362,-0.5359,-0.5359,-0.5362,-0.5428,-0.5428,-0.5428,-0.5428,-0.5428,-0.5428,-0.5428,-0.5428,-0.5428,-0.5498,-0.5616,-0.5665,-0.5854,-0.608,-0.6177,-0.6261,-0.6338,-0.6338,-0.6338,-0.6338,-0.6338,-0.6338,-0.6338,-0.6338,-0.6338,-0.6338,-1.2914,-1.3443,-1.3973,0.0,0.0,0.0,0.0,0.0,0.0,0.0,0.0,0.0,0.0,0.0,0.0,0.0,0.0,0.0,0.0,0.0,0.0,0.0,0.0,0.0,0.0,0.0,0.0,0.0,0.0,0.0,0.0,-1.0326,-0.9697,-0.8914,-0.8888,-0.8558,-0.7906,-0.7869,-0.7905,-0.7905,-0.7495,-0.7448,-0.7688,-0.6939,-0.6601,-0.6544,-0.5813,-0.5515,-0.5436,-0.4802,-0.4519,-0.4519,-0.4519,-0.4519,-0.4519,-0.4519,-0.4519,-0.4519,-0.4519,-0.4519,-0.4519,-0.4519,-0.4519,-0.4519,-0.4519,-0.4519,-0.4519,-0.4519,-0.4519,-0.4519,-0.4519,-0.4519,-0.4519,-0.4519,-0.4519,-0.4519,-0.4519,-0.4691,-0.4876,-0.4909,-0.5017,-0.5153,-0.5352,-0.5219,-0.5156,-0.5362,-0.5428,-0.5428,-0.5428,-0.5428,-0.5428,-0.5428,-0.5428,-0.5428,-0.5428,-0.5498,-0.5616,-0.5662,-0.5892,-0.6016,-0.6009,-0.618,-0.6338,-0.6338,-0.6338,-0.6338,-0.6338,-0.6338,-0.6338,-0.6338,-0.6338,-0.6338,-1.2098,-1.2775,0.0,0.0,0.0,0.0,0.0,0.0,0.0,0.0,0.0,0.0,0.0,0.0,0.0,0.0,0.0,0.0,0.0,0.0,0.0,0.0,0.0,0.0,0.0,0.0,0.0,0.0,0.0,0.0,0.0,-0.884,-0.8443,-0.8205,-0.7787,-0.7586,-0.7609,-0.7178,-0.7096,-0.7348,-0.6248,-0.6326,-0.7394,-0.6867,-0.6574,-0.6574,-0.5823,-0.5508,-0.5436,-0.4802,-0.4519,-0.4519,-0.4519,-0.4519,-0.4519,-0.4519,-0.4519,-0.4519,-0.4519,-0.4519,-0.4519,-0.4519,-0.4519,-0.4519,-0.4519,-0.4519,-0.4519,-0.4519,-0.4519,-0.4519,-0.4519,-0.4519,-0.4519,-0.4519,-0.4519,-0.4519,-0.4519,-0.4574,-0.4697,-0.4844,-0.5153,-0.5226,-0.5106,-0.521,-0.5359,-0.5362,-0.5428,-0.5428,-0.5428,-0.5428,-0.5428,-0.5428,-0.5428,-0.5428,-0.5428,-0.5428,-0.5437,-0.5474,-0.454,-0.4635,-0.6177,-0.6268,-0.6274,-0.6274,-0.6281,-0.6285,-0.6285,-0.6285,-0.6285,-0.6285,-0.6285,-0.6285,-1.2664,0.0,0.0,0.0,0.0,0.0,0.0,0.0,0.0,0.0,0.0,0.0,0.0,0.0,0.0,0.0,0.0,0.0,0.0,0.0,0.0,0.0,0.0,0.0,0.0,0.0,0.0,0.0,0.0,0.0,0.0,-0.819,-0.779,-0.7534,-0.6974,-0.6784,-0.6979,-0.6367,-0.6174,-0.6355,-0.5417,-0.5423,-0.6258,-0.5815,-0.5669,-0.5724,-0.5317,-0.5089,-0.5089,-0.4688,-0.4519,-0.4519,-0.4519,-0.4519,-0.4519,-0.4519,-0.4519,-0.4519,-0.4519,-0.4519,-0.4519,-0.4519,-0.4519,-0.4519,-0.4519,-0.4519,-0.4519,-0.4519,-0.4519,-0.4519,-0.4519,-0.4519,-0.4519,-0.4519,-0.4519,-0.4522,-0.4487,-0.4546,-0.4656,-0.4832,-0.4581,-0.4232,-0.4068,-0.4107,-0.4164,-0.43,-0.43,-0.43,-0.43,-0.43,-0.43,-0.43,-0.43,-0.43,-0.43,-0.43,-0.4643,-0.5329,-0.3867,-0.3925,-0.6051,-0.6207,-0.5886,-0.501,-0.5015,-0.5018,-0.5018,-0.5018,-0.5018,-0.5018,-0.5018,-0.5018,-1.3955,0.0,0.0,0.0,0.0,0.0,0.0,0.0,0.0,0.0,0.0,0.0,0.0,0.0,0.0,0.0,0.0,0.0,0.0,0.0,0.0,0.0,0.0,0.0,0.0,0.0,0.0,0.0,0.0,0.0,0.0,-0.8103,-0.7561,-0.7014,-0.6458,-0.6187,-0.6204,-0.5561,-0.5229,0.0,-0.4781,-0.4595,-0.4617,-0.4299,-0.4291,-0.446,-0.4519,-0.4519,-0.4519,-0.4519,-0.4519,-0.4519,-0.4519,-0.4519,-0.4519,-0.4519,-0.4519,-0.4519,-0.4519,-0.4519,-0.4519,-0.4519,-0.4519,-0.446,-0.4353,-0.4408,-0.4519,-0.4519,-0.4519,-0.4463,-0.4353,-0.4298,-0.4298,-0.4298,-0.4408,-0.4473,-0.4514,-0.464,-0.4699,-0.4416,-0.3327,-0.2463,-0.2451,-0.2228,-0.2093,-0.2432,-0.2703,-0.284,-0.2499,-0.2432,-0.2432,-0.2432,-0.2432,-0.2432,-0.2432,-0.2432,-0.3179,-0.4824,-0.3489,-0.3442,-0.5188,-0.5905,-0.5416,-0.3439,-0.3046,-0.2812,-0.2812,-0.2812,-0.2812,-0.2812,-0.2812,-0.2812,0.0,-1.4172,0.0,0.0,0.0,0.0,0.0,0.0,0.0,0.0,0.0,0.0,0.0,0.0,0.0,0.0,0.0,0.0,0.0,0.0,0.0,0.0,0.0,0.0,0.0,0.0,0.0,0.0,0.0,0.0,-0.7384,-0.7259,-0.7134,-0.7021,-0.6458,-0.6209,-0.6188,-0.5145,-0.4609,0.0,-0.4083,-0.3899,-0.4014,-0.403,-0.4119,-0.4291,-0.4405,-0.4519,-0.4519,-0.4519,-0.4519,-0.4519,-0.4519,-0.4519,-0.4519,-0.4519,-0.4519,-0.4519,-0.4519,-0.4519,-0.4519,-0.4519,-0.4519,-0.4298,-0.3081,-0.3524,-0.4519,-0.4519,-0.4519,-0.4242,-0.3026,-0.2691,-0.2691,-0.2691,-0.3633,-0.4522,-0.4473,-0.4536,-0.386,-0.1513,-0.0785,-0.0585,-0.0595,-0.0539,-0.0472,-0.0539,-0.2976,-0.3794,-0.0944,-0.0607,-0.0607,-0.0607,-0.0607,-0.0607,-0.0607,-0.0607,-0.0742,-0.1146,-0.2136,-0.2229,-0.1287,-0.4501,-0.6067,-0.5587,-0.2352,-0.0706,-0.0706,-0.0706,-0.0706,-0.0706,-0.0706,-0.0706,0.0,0.0,0.0,0.0,0.0,0.0,0.0,0.0,0.0,0.0,0.0,0.0,0.0,0.0,0.0,0.0,0.0,0.0,0.0,0.0,0.0,0.0,0.0,0.0,0.0,0.0,0.0,0.0,0.0,-0.7748,-0.7444,-0.6927,-0.6603,-0.6603,-0.5767,-0.5348,-0.5341,-0.4454,-0.4039,-0.3991,-0.3718,-0.3626,-0.3728,-0.39,-0.4085,-0.4233,-0.4291,-0.4405,-0.4519,-0.4519,-0.4076,-0.3413,-0.3413,-0.3413,-0.3413,-0.3413,-0.3413,-0.3413,-0.3413,-0.3413,-0.3413,-0.3413,-0.3922,-0.4212,-0.2641,-0.2296,-0.251,-0.3186,-0.3925,-0.4327,-0.3492,-0.2757,-0.2193,-0.2193,-0.2802,-0.3413,-0.3413,-0.3981,-0.4042,-0.2471,-0.101,-0.0,-0.0,-0.0,-0.0,-0.0,-0.1619,-0.2161,-0.027,-0.0,-0.0,-0.0,-0.0,-0.0,-0.0,-0.0,-0.0,-0.0,-0.0853,-0.0955,-0.0074,-0.2088,-0.3273,-0.3295,-0.1099,-0.0,-0.0,-0.0,-0.0,-0.0,-0.0,-0.0,0.0,0.0,0.0,0.0,0.0,0.0,0.0,0.0,0.0,0.0,0.0,0.0,0.0,0.0,0.0,0.0,0.0,0.0,0.0,0.0,0.0,0.0,0.0,0.0,0.0,0.0,0.0,0.0,0.0,-0.7709,-0.7615,-0.6717,-0.615,-0.6047,-0.499,-0.4418,-0.4405,-0.3854,-0.3581,-0.3581,-0.3581,-0.3581,-0.3626,-0.381,-0.3992,-0.4151,-0.42,-0.4187,-0.4132,-0.4415,-0.3755,-0.2531,-0.2023,-0.1797,-0.1797,-0.1797,-0.1797,-0.1797,-0.1797,-0.1797,-0.1797,-0.1797,-0.2701,-0.3498,-0.2193,-0.0954,-0.028,-0.1459,-0.2757,-0.3727,-0.3727,-0.2757,-0.1797,-0.1797,-0.1797,-0.1797,-0.1797,-0.2815,-0.3727,-0.3727,-0.1685,-0.0,-0.0,-0.0,-0.0,-0.0,-0.0,-0.0,-0.0,-0.0,-0.0,-0.0,-0.0,-0.0,-0.0,-0.0,-0.0,-0.0,-0.0,-0.0,-0.0,-0.0,-0.0,-0.0,-0.0,-0.0,-0.0,-0.0,-0.0,-0.0,-0.0,-0.0,0.0,0.0,0.0,0.0,0.0,0.0,0.0,0.0,0.0,0.0,0.0,0.0,0.0,0.0,0.0,0.0,0.0,0.0,0.0,0.0,0.0,0.0,0.0,0.0,0.0,0.0,0.0,0.0,-0.7155,-0.6906,-0.6437,-0.6295,-0.5979,-0.5448,-0.475,-0.4389,-0.4405,-0.3854,-0.3581,-0.3581,-0.3581,-0.3581,-0.3581,-0.3626,-0.376,-0.3965,-0.4118,-0.3548,-0.2583,-0.3949,-0.4353,-0.3955,-0.1291,-0.028,-0.028,-0.028,-0.028,-0.028,-0.028,-0.028,-0.028,-0.028,-0.0449,-0.0561,-0.0336,-0.0168,-0.0056,-0.0224,-0.0449,-0.0617,-0.0617,-0.0449,-0.028,-0.028,-0.028,-0.028,-0.028,-0.0449,-0.0617,-0.0617,-0.028,-0.0,-0.0,-0.0,-0.0,-0.0,-0.0,-0.0,-0.0,-0.0,-0.0,-0.0,-0.0,-0.0,-0.0,-0.0,-0.0,-0.0,-0.0,-0.0,-0.0,-0.0,-0.0,-0.0,-0.0,-0.0,-0.0,-0.0,-0.0,-0.0,-0.0,-0.0,-1.42,0.0,0.0,0.0,0.0,0.0,0.0,0.0,0.0,0.0,0.0,0.0,0.0,0.0,0.0,0.0,0.0,0.0,0.0,0.0,0.0,0.0,0.0,0.0,0.0,0.0,0.0,0.0,-0.6042,-0.5947,-0.5714,-0.5363,-0.5077,-0.4825,-0.4268,-0.3947,-0.3947,-0.3718,-0.3581,-0.3581,-0.2915,-0.2603,-0.2603,-0.2603,-0.3004,-0.3732,-0.3845,-0.2778,-0.101,-0.1685,-0.1967,-0.1853,-0.0505,-0.0,-0.0,-0.0,-0.0,-0.0,-0.0,-0.0,-0.0,-0.0,-0.0,-0.0,-0.0,-0.0,-0.0,-0.0,-0.0,-0.0,-0.0,-0.0,-0.0,-0.0,-0.0,-0.0,-0.0,-0.0,-0.0,-0.0,-0.0,-0.0,-0.0,-0.0,-0.0,-0.0,-0.0,-0.0,-0.0,-0.0,-0.0,-0.0,-0.0,-0.0,-0.0,-0.0,-0.0,-0.0,-0.0,-0.0,-0.0,-0.0,-0.0,-0.0,-0.0,-0.0,-0.0,-0.0,-0.0,-0.0,-0.0,-0.0,0.0,0.0,0.0,0.0,0.0,0.0,0.0,0.0,0.0,0.0,0.0,0.0,0.0,0.0,0.0,0.0,0.0,0.0,0.0,0.0,0.0,0.0,0.0,0.0,0.0,0.0,0.0,0.0,-0.5285,-0.5237,-0.5099,-0.467,-0.4405,-0.422,-0.3806,-0.3581,-0.3581,-0.3312,-0.3274,-0.3595,-0.2702,-0.2074,-0.1803,-0.1803,-0.2474,-0.3595,-0.3619,-0.2221,-0.0,-0.0,-0.0,-0.0,-0.0,-0.0,-0.0,-0.0,-0.0,-0.0,-0.0,-0.0,-0.0,-0.0,-0.0,-0.0,-0.0,-0.0,-0.0,-0.0,-0.0,-0.0,-0.0,-0.0,-0.0,-0.0,-0.0,-0.0,-0.0,-0.0,-0.0,-0.0,-0.0,-0.0,-0.0,-0.0,-0.0,-0.0,-0.0,-0.0,-0.0,-0.0,-0.0,-0.0,-0.0,-0.0,-0.0,-0.0,-0.0,-0.0,-0.0,-0.0,-0.0,-0.0,-0.0,-0.0,-0.0,-0.0,-0.0,-0.0,-0.0,-0.0,-0.0,-0.0,0.0,0.0,0.0,0.0,0.0,0.0,0.0,0.0,0.0,0.0,0.0,0.0,0.0,0.0,0.0,0.0,0.0,0.0,0.0,0.0,0.0,0.0,0.0,0.0,0.0,0.0,0.0,0.0,-0.5287,-0.5051,-0.4489,-0.4591,-0.4361,-0.367,-0.3626,-0.3581,-0.3581,-0.2471,-0.2481,-0.3584,-0.3539,-0.2895,-0.1803,-0.1803,-0.2438,-0.3584,-0.3587,-0.2221,-0.0,-0.0,-0.0,-0.0,-0.0,-0.0,-0.0,-0.0,-0.0,-0.0,-0.0,-0.0,-0.0,-0.0,-0.0,-0.0,-0.0,-0.0,-0.0,-0.0,-0.0,-0.0,-0.0,-0.0,-0.0,-0.0,-0.0,-0.0,-0.0,-0.0,-0.0,-0.0,-0.0,-0.0,-0.0,-0.0,-0.0,-0.0,-0.0,-0.0,-0.0,-0.0,-0.0,-0.0,-0.0,-0.0,-0.0,-0.0,-0.0,-0.0,-0.0,-0.0,-0.0,-0.0,-0.0,-0.0,-0.0,-0.0,-0.0,-0.0,-0.0,-0.0,-0.0,-0.0,0.0,0.0,0.0,0.0,0.0,0.0,0.0,0.0,0.0,0.0,0.0,0.0,0.0,0.0,0.0,0.0,0.0,0.0,0.0,0.0,0.0,0.0,0.0,0.0,0.0,0.0,0.0,0.0,0.0,-0.4128,-0.3899,-0.3947,-0.3499,-0.2471,-0.2426,-0.2834,-0.3612,-0.3164,-0.2393,-0.1305,-0.1305,-0.1079,-0.0629,-0.0629,-0.09,-0.1305,-0.1305,-0.0787,-0.0,-0.0,-0.0,-0.0,-0.0,-0.0,-0.0,-0.0,-0.0,-0.0,-0.0,-0.0,-0.0,-0.0,-0.0,-0.0,-0.0,-0.0,-0.0,-0.0,-0.0,-0.0,-0.0,-0.0,-0.0,-0.0,-0.0,-0.0,-0.0,-0.0,-0.0,-0.0,-0.0,-0.0,-0.0,-0.0,-0.0,-0.0,-0.0,-0.0,-0.0,-0.0,-0.0,-0.0,-0.0,-0.0,-0.0,-0.0,-0.0,-0.0,-0.0,-0.0,-0.0,-0.0,-0.0,-0.0,-0.0,-0.0,-0.0,-0.0,-0.0,-0.0,-0.0,-0.0,0.0,0.0,0.0,0.0,0.0,0.0,0.0,0.0,0.0,0.0,0.0,0.0,0.0,0.0,0.0,0.0,0.0,0.0,0.0,0.0,0.0,0.0,0.0,0.0,0.0,0.0,0.0,0.0,0.0,0.0,-0.3004,-0.3369,-0.2876,-0.126,-0.1214,-0.1576,-0.2393,-0.2393,-0.1576,-0.0,-0.0,-0.0,0.0045,0.0855,0.1305,0.1485,0.0945,0.0443,-0.0,-0.0,0.0617,0.1403,0.0393,-0.0,-0.0,-0.0,-0.0,-0.0,-0.0,-0.0,-0.0,-0.0,-0.0,-0.0,-0.0,-0.0,-0.0,-0.0,-0.0,-0.0,-0.0,-0.0,-0.0,-0.0,-0.0,-0.0,-0.0,-0.0,-0.0,-0.0,-0.0,-0.0,-0.0,-0.0,-0.0,-0.0,-0.0,-0.0,-0.0,-0.0,-0.0,-0.0,-0.0,-0.0,-0.0,-0.0,-0.0,-0.0,-0.0,-0.0,-0.0,-0.0,-0.0,-0.0,-0.0,-0.0,-0.0,-0.0,-0.0,-0.0,-0.0,-0.0,0.0,0.0,0.0,0.0,0.0,0.0,0.0,0.0,0.0,0.0,0.0,0.0,0.0,0.0,0.0,0.0,0.0,0.0,0.0,0.0,0.0,0.0,0.0,0.0,0.0,0.0,0.0,0.0,-0.2424,-0.1758,-0.1758,-0.285,-0.2438,-0.009,-0.0,0.0045,0.009,0.009,0.009,0.0045,0.0045,0.0045,0.0135,0.2483,0.3864,0.4378,0.2908,0.1434,0.0112,0.0056,0.1797,0.4129,0.1234,0.0112,0.0056,0.0056,0.0056,-0.0,-0.0,-0.0,-0.0,-0.0,-0.0,-0.0,-0.0,-0.0,-0.0,-0.0,-0.0,-0.0,-0.0,-0.0,-0.0,-0.0,-0.0,-0.0,-0.0,-0.0,-0.0,-0.0,-0.0,-0.0,-0.0,-0.0,-0.0,-0.0,-0.0,-0.0,-0.0,-0.0,-0.0,-0.0,-0.0,-0.0,-0.0,-0.0,-0.0,-0.0,-0.0,-0.0,-0.0,-0.0,-0.0,-0.0,-0.0,-0.0,-0.0,-0.0,-0.0,-0.0,-0.0,-0.0,-1.3694,0.0,0.0,0.0,0.0,0.0,0.0,0.0,0.0,0.0,0.0,0.0,0.0,0.0,0.0,0.0,0.0,0.0,0.0,0.0,0.0,0.0,0.0,0.0,0.0,0.0,0.0,0.0,-0.0674,-0.0494,-0.0494,-0.081,-0.0674,-0.0,-0.0,0.0855,0.2575,0.262,0.2166,0.1305,0.1305,0.1305,0.1305,0.1984,0.2884,0.385,0.3843,0.3613,0.3178,0.2073,0.2079,0.2869,0.313,0.2571,0.1572,0.1572,0.0898,-0.0,-0.0,-0.0,-0.0,-0.0,-0.0,-0.0,-0.0,-0.0,-0.0,-0.0,-0.0,-0.0,-0.0,-0.0,-0.0,-0.0,-0.0,-0.0,-0.0,-0.0,-0.0,-0.0,-0.0,-0.0,-0.0,-0.0,-0.0,-0.0,-0.0,-0.0,-0.0,-0.0,-0.0,-0.0,-0.0,-0.0,-0.0,-0.0,-0.0,-0.0,-0.0,-0.0,-0.0,-0.0,-0.0,-0.0,-0.0,-0.0,-0.0,-0.0,-0.0,-0.0,-0.0,-0.0,0.0,0.0,0.0,0.0,0.0,0.0,0.0,-1.4116,0.0,0.0,0.0,0.0,0.0,0.0,0.0,0.0,0.0,0.0,0.0,0.0,0.0,0.0,0.0,0.0,0.0,0.121,0.1521,0.1521,0.1521,0.1299,0.0764,0.0764,0.0764,0.0764,0.0764,0.144,0.285,0.3344,0.3242,0.2558,0.2558,0.2558,0.2558,0.2558,0.296,0.3735,0.4147,0.4341,0.4294,0.3522,0.3135,0.3246,0.4132,0.3965,0.3135,0.3135,0.2627,0.1786,0.112,0.0898,0.0898,0.0898,0.0898,0.0898,0.0898,0.0898,0.0898,0.0898,0.0898,0.0898,0.0898,0.0898,0.0898,0.0898,0.0898,0.0898,0.0898,0.0898,0.0729,0.0112,-0.0,-0.0,-0.0,-0.0,-0.0,-0.0,-0.0,-0.0,-0.0,-0.0,-0.0,-0.0,-0.0,-0.0,-0.0,-0.0,-0.0,-0.0,-0.0,-0.0,-0.0,-0.0,-0.0,-0.0,-0.0,-0.0,-0.0,-0.0,-0.0,-0.0,-0.0,-0.0,0.0,0.0,0.0,0.0,0.0,0.0,-1.3669,-1.3003,-1.2293,0.0,0.0,0.0,0.0,0.0,0.0,0.0,0.0,0.0,0.0,0.0,0.0,0.0,0.0,0.0,0.1891,0.3049,0.3718,0.367,0.3718,0.3226,0.207,0.1981,0.1981,0.1981,0.1981,0.1981,0.1981,0.3049,0.3581,0.3581,0.3581,0.3581,0.3581,0.3626,0.3718,0.3899,0.3991,0.4115,0.4233,0.4405,0.4519,0.4519,0.4519,0.4519,0.4519,0.4519,0.4519,0.4294,0.2914,0.2471,0.2471,0.2471,0.2471,0.2471,0.2471,0.2471,0.2471,0.2471,0.2471,0.2471,0.2471,0.2471,0.2471,0.2471,0.2471,0.2471,0.2471,0.2471,0.2076,0.0728,0.0224,-0.0,-0.0,-0.0,-0.0,-0.0,-0.0,-0.0,-0.0,-0.0,-0.0,-0.0,-0.0,-0.0,-0.0,-0.0,-0.0,-0.0,-0.0,-0.0,-0.0,-0.0,-0.0,-0.0,-0.0,-0.0,-0.0,-0.0,-0.0,-0.0,-0.0,-0.0,-1.4996,-1.498,-1.4799,-1.408,0.0,0.0,-1.2445,-1.1669,-1.1073,0.0,0.0,0.0,0.0,0.0,0.0,0.0,0.0,0.0,0.0,0.0,0.0,0.0,0.0,0.0,0.3223,0.3995,0.4409,0.4268,0.4405,0.4135,0.3271,0.3271,0.3271,0.3271,0.3271,0.3271,0.3271,0.3493,0.3581,0.3581,0.3581,0.3581,0.3626,0.3718,0.3762,0.3854,0.4083,0.4167,0.4233,0.4405,0.4519,0.4519,0.4519,0.4519,0.4519,0.4519,0.4519,0.4463,0.4132,0.4076,0.4076,0.4076,0.4076,0.4076,0.4076,0.4076,0.4076,0.4076,0.4076,0.4076,0.4076,0.4076,0.4076,0.4076,0.4076,0.4076,0.4076,0.4076,0.3962,0.368,0.1675,-0.0,-0.0,-0.0,-0.0,-0.0,-0.0,-0.0,-0.0,-0.0,-0.0,-0.0,-0.0,-0.0,-0.0,-0.0,-0.0,-0.0,-0.0,-0.0,-0.0,-0.0,-0.0,-0.0,-0.0,-0.0,-0.0,-0.0,-0.0,-0.0,-0.0,-0.0,-1.5509,-1.5442,-1.5069,-1.4178,0.0,0.0,0.0,-1.0767,-0.9958,-0.9627,0.0,0.0,0.0,0.0,0.0,0.0,0.0,0.0,0.0,0.0,0.0,0.0,0.0,0.0,0.3991,0.4595,0.4979,0.4851,0.4938,0.4847,0.4479,0.446,0.4454,0.4454,0.4454,0.4454,0.4454,0.4454,0.4454,0.4454,0.4131,0.3991,0.3991,0.3854,0.3787,0.3813,0.4069,0.4189,0.4233,0.4405,0.4519,0.4519,0.4519,0.4519,0.4519,0.4519,0.4519,0.4519,0.4519,0.4519,0.4519,0.4519,0.4519,0.4519,0.4519,0.4519,0.4519,0.4519,0.4519,0.4519,0.4519,0.4519,0.4519,0.4519,0.4519,0.4519,0.4519,0.4519,0.4519,0.4519,0.3289,0.2011,0.1233,0.1122,0.1122,0.1122,0.1122,0.0842,0.0112,-0.0,-0.0,-0.0,-0.0,-0.0,-0.0,-0.0,-0.0,-0.0,-0.0,-0.0,-0.0,-0.0,-0.0,-0.0,-0.0,-0.0,-0.0,-0.0,-0.0,-0.0,-0.0,-0.0,0.0,0.0,0.0,0.0,0.0,-1.2526,0.0,0.0,0.0,-0.849,0.0,0.0,0.0,0.0,0.0,0.0,0.0,0.0,0.0,0.0,0.0,0.0,0.0,0.0,0.0,0.5345,0.5701,0.573,0.5761,0.5714,0.5487,0.5491,0.5433,0.5296,0.5296,0.5296,0.5296,0.534,0.534,0.5296,0.4872,0.4657,0.4639,0.422,0.4052,0.4119,0.4233,0.4236,0.4291,0.446,0.4574,0.4688,0.4574,0.4519,0.4519,0.4519,0.4519,0.4519,0.4519,0.4519,0.4519,0.4519,0.4519,0.4519,0.4519,0.4519,0.4519,0.4519,0.4519,0.4519,0.4519,0.4519,0.4519,0.4519,0.4519,0.4519,0.4519,0.4519,0.4519,0.4519,0.4519,0.4132,0.2858,0.2637,0.2637,0.2637,0.2637,0.2186,0.1007,0.0616,0.0449,0.0449,0.0449,0.0449,0.0449,0.0441,0.0404,0.0404,0.0404,0.0396,0.0441,0.0395,0.0472,0.0539,0.0539,0.0337,-0.0,-0.0,-0.0,-0.0,-0.0,-0.0,0.0,0.0,0.0,0.0,-1.2697,0.0,0.0,0.0,-0.9843,-0.8934,0.0,0.0,0.0,0.0,0.0,0.0,0.0,0.0,0.0,0.0,0.0,0.0,0.0,0.0,0.0,0.6829,0.7194,0.7265,0.7461,0.7167,0.6133,0.6108,0.5843,0.5334,0.5291,0.5291,0.5291,0.5519,0.5519,0.5291,0.5477,0.5561,0.5533,0.5016,0.4908,0.5089,0.4632,0.446,0.446,0.4519,0.486,0.5321,0.4746,0.4519,0.4519,0.4519,0.4519,0.4519,0.4519,0.4519,0.4519,0.4519,0.4519,0.4519,0.4519,0.4519,0.4519,0.4519,0.4519,0.4519,0.4519,0.4519,0.4519,0.4519,0.4519,0.4519,0.4519,0.4519,0.4519,0.4519,0.4519,0.4463,0.4298,0.4242,0.4242,0.4242,0.4242,0.4184,0.4015,0.2798,0.1967,0.1967,0.1967,0.1967,0.1967,0.1957,0.1957,0.1957,0.1957,0.1952,0.1939,0.1951,0.2093,0.2364,0.2364,0.1619,-0.0,-0.0,-0.0,-0.0,-0.0,-0.0,0.0,0.0,0.0,0.0,0.0,0.0,-1.0691,0.0,-0.9204,0.0,0.0,0.0,0.0,0.0,0.0,0.0,0.0,0.0,0.0,0.0,0.0,0.0,0.0,0.0,0.0,0.0,0.0,0.0,0.8248,0.8246,0.7997,0.7792,0.7405,0.6833,0.679,0.6645,0.6271,0.6409,0.639,0.6288,0.6085,0.6083,0.6188,0.5761,0.571,0.5954,0.5784,0.5724,0.5724,0.5724,0.5899,0.6124,0.5846,0.5697,0.5665,0.5262,0.5089,0.5033,0.4632,0.4519,0.4519,0.4519,0.4519,0.4519,0.4519,0.4519,0.4519,0.4519,0.4519,0.4519,0.4519,0.4519,0.4519,0.4519,0.4519,0.4519,0.4519,0.4519,0.4519,0.4519,0.4519,0.4519,0.4519,0.4519,0.4519,0.4519,0.4519,0.4519,0.4519,0.391,0.3524,0.3524,0.3524,0.3524,0.3524,0.3531,0.3517,0.3517,0.3517,0.3517,0.3517,0.3517,0.358,0.3764,0.3898,0.3692,0.3149,0.2087,0.1552,0.1552,0.0472,-0.0,-1.4907,0.0,0.0,0.0,0.0,0.0,0.0,0.0,0.0,0.0,0.0,0.0,0.0,0.0,0.0,0.0,0.0,0.0,0.0,0.0,0.0,0.0,0.0,0.0,0.0,0.0,0.0,0.0,0.0,0.916,0.9288,0.9014,0.8651,0.8118,0.8127,0.7849,0.7265,0.7314,0.7256,0.6984,0.669,0.6693,0.6921,0.6454,0.6391,0.6758,0.6638,0.6584,0.6584,0.6584,0.6698,0.6916,0.6887,0.7031,0.7106,0.6173,0.5686,0.5436,0.4919,0.4632,0.4519,0.4519,0.4519,0.4519,0.4519,0.4632,0.4746,0.4574,0.4632,0.4746,0.4574,0.4519,0.4519,0.4519,0.4519,0.4519,0.4519,0.4519,0.4519,0.4519,0.4519,0.4519,0.4519,0.4519,0.4519,0.4519,0.4519,0.4519,0.4519,0.4519,0.4519,0.4519,0.4519,0.4519,0.4519,0.4519,0.4519,0.4519,0.4519,0.4519,0.4519,0.4519,0.4519,0.4574,0.4766,0.4981,0.5244,0.3974,0.3368,0.337,0.1078,-0.0,0.0,0.0,0.0,-1.203,0.0,0.0,0.0,0.0,-0.9706,0.0,0.0,0.0,0.0,0.0,0.0,0.0,0.0,0.0,0.0,0.0,0.0,0.0,0.0,0.0,0.0,0.0,0.0,0.0,0.0,0.0,0.9322,0.9289,0.9098,0.8699,0.8668,0.8396,0.7891,0.8139,0.7821,0.6989,0.7328,0.7602,0.7843,0.7104,0.7114,0.7641,0.6897,0.6607,0.6607,0.6607,0.7008,0.7641,0.7688,0.81,0.8527,0.712,0.6098,0.5495,0.5491,0.5033,0.4519,0.4519,0.4519,0.4519,0.4519,0.4974,0.5321,0.4688,0.4974,0.5321,0.4688,0.4519,0.4519,0.4519,0.4519,0.4519,0.4519,0.4519,0.4519,0.4519,0.4519,0.4519,0.4519,0.4519,0.4519,0.4519,0.4519,0.4519,0.4519,0.4519,0.4519,0.4519,0.4519,0.4519,0.4519,0.4519,0.4519,0.4519,0.4519,0.4519,0.4519,0.4519,0.4574,0.4688,0.4709,0.472,0.4834,0.4948,0.509,0.5226,0.1679,-0.0,0.0,0.0,-1.309,-1.1956,0.0,0.0,0.0,0.0,0.0,0.0,0.0,0.0,0.0,0.0,0.0,0.0,0.0,0.0,0.0,0.0,0.0,0.0,0.0,0.0,0.0,0.0,0.0,0.0,1.0043,0.0,0.0,1.0838,1.0595,1.0118,1.0096,0.968,0.8833,0.8551,0.8146,0.7602,0.7314,0.7314,0.7645,0.7542,0.7747,0.8159,0.8094,0.8041,0.8041,0.8041,0.8212,0.8448,0.8448,0.8573,0.8685,0.7688,0.7158,0.6891,0.6385,0.6073,0.5899,0.5899,0.5899,0.5899,0.5899,0.6073,0.6165,0.5932,0.5697,0.5436,0.5207,0.486,0.4519,0.4519,0.4519,0.4519,0.4519,0.4519,0.4519,0.4519,0.4519,0.4519,0.4519,0.4519,0.4519,0.4519,0.4519,0.4519,0.4519,0.4519,0.4519,0.4519,0.4519,0.4519,0.4519,0.4519,0.4519,0.4519,0.4519,0.4519,0.4519,0.4519,0.4519,0.4574,0.4574,0.4632,0.4746,0.4786,0.4949,0.5203,0.4076,0.2954,-1.3769,-1.3272,0.0,-1.191,-1.1089,0.0,-0.9833,0.0,0.0,0.0,0.0,0.0,0.0,0.0,0.0,0.0,0.0,0.0,0.0,0.0,0.0,0.0,0.0,0.0,0.0,0.0,0.9748,1.0309,0.0,0.0,0.0,0.0,1.1596,1.1087,1.1087,1.0695,0.9835,0.9514,0.9089,0.8595,0.8085,0.8051,0.8527,0.8522,0.8689,0.8923,0.9102,0.9042,0.8804,0.8804,0.8804,0.8804,0.8804,0.8804,0.8745,0.8271,0.7923,0.7594,0.6858,0.6613,0.6613,0.6613,0.6613,0.6613,0.6613,0.6792,0.6939,0.6691,0.646,0.6168,0.5652,0.5203,0.4802,0.4574,0.4519,0.4519,0.4519,0.4519,0.4519,0.4519,0.4519,0.4519,0.4519,0.4519,0.4519,0.4519,0.4519,0.4519,0.4519,0.4519,0.4519,0.4519,0.4519,0.4519,0.4519,0.4519,0.4519,0.4519,0.4519,0.4519,0.4519,0.4519,0.4519,0.4519,0.4519,0.4519,0.4632,0.4632,0.4746,0.5049,0.5147,0.4631]},{"header":{"parameterUnit":"m.s-1","parameterCategory":1,"la1":30.6,"la2":29.2853,"lo1":-89.7004,"lo2":-87.6739,"dy":0.0162,"dx":0.0183,"nx":112,"ny":82,"refTime":"2025-02-27T06:00:00:Z","depth":0,"parameterNumber":3,"parameterNumberName":"V-component_of_WINDS"},"data":[0.0,0.0,0.0,0.0,0.0,0.0,0.0,0.0,0.0,0.0,0.0,0.0,0.0,0.0,0.0,0.0,0.0,0.0,0.0,0.0,0.0,0.0,0.0,0.0,0.0,0.0,0.0,0.0,0.0,0.0,0.0,0.0,0.0,0.0,0.0,0.0,0.0,0.0,0.0,0.0,0.0,0.0,0.0,0.0,0.0,0.0,0.0,0.0,0.0,0.0,0.0,0.0,0.0,0.0,0.0,0.0,0.0,0.0,0.0,0.0,0.0,0.0,0.0,0.0,0.0,0.0,0.0,0.0,0.0,0.0,0.0,0.0,0.0,0.0,0.0,0.0,0.0,0.0,0.0,0.0,0.0,0.0,0.0,0.0,0.0,0.0,0.0,0.0,0.0,0.0,-2.9381,-3.0381,-3.1112,-3.1482,-3.1482,-3.1435,-3.0866,-2.9654,0.0,0.0,0.0,0.0,0.0,0.0,0.0,0.0,0.0,0.0,0.0,0.0,0.0,0.0,0.0,0.0,0.0,0.0,0.0,0.0,0.0,0.0,0.0,0.0,0.0,0.0,0.0,0.0,0.0,0.0,0.0,0.0,0.0,0.0,0.0,0.0,0.0,0.0,0.0,0.0,0.0,0.0,0.0,0.0,0.0,0.0,0.0,0.0,0.0,0.0,0.0,0.0,0.0,0.0,0.0,0.0,0.0,0.0,0.0,0.0,0.0,0.0,0.0,0.0,0.0,0.0,0.0,0.0,0.0,0.0,0.0,0.0,0.0,0.0,0.0,0.0,0.0,0.0,0.0,0.0,0.0,0.0,0.0,0.0,0.0,0.0,0.0,0.0,0.0,0.0,0.0,0.0,0.0,0.0,0.0,0.0,0.0,0.0,0.0,0.0,0.0,0.0,0.0,0.0,-2.8437,-3.0322,-3.1117,-3.1482,-3.1482,-3.1001,-3.0357,-2.9624,0.0,0.0,0.0,0.0,0.0,0.0,0.0,0.0,0.0,0.0,0.0,0.0,0.0,0.0,0.0,0.0,0.0,0.0,0.0,0.0,0.0,0.0,0.0,0.0,0.0,0.0,0.0,0.0,0.0,0.0,0.0,0.0,0.0,0.0,0.0,0.0,0.0,0.0,0.0,0.0,0.0,0.0,0.0,0.0,0.0,0.0,0.0,0.0,0.0,0.0,0.0,0.0,0.0,0.0,0.0,0.0,0.0,0.0,0.0,0.0,0.0,0.0,0.0,0.0,0.0,0.0,0.0,0.0,0.0,0.0,0.0,0.0,0.0,0.0,0.0,0.0,0.0,0.0,0.0,0.0,0.0,0.0,0.0,0.0,0.0,0.0,0.0,0.0,0.0,0.0,0.0,0.0,0.0,0.0,0.0,0.0,0.0,0.0,0.0,0.0,0.0,0.0,0.0,-2.746,-2.83,-3.075,-3.091,-3.1029,-3.1467,-3.124,-3.0642,-2.9639,-2.8966,0.0,0.0,0.0,0.0,0.0,0.0,0.0,0.0,0.0,0.0,0.0,0.0,0.0,0.0,0.0,0.0,0.0,0.0,0.0,0.0,0.0,0.0,0.0,0.0,0.0,0.0,0.0,0.0,0.0,0.0,0.0,0.0,0.0,0.0,0.0,0.0,0.0,0.0,0.0,0.0,0.0,0.0,0.0,0.0,0.0,0.0,0.0,0.0,0.0,0.0,0.0,0.0,0.0,0.0,0.0,0.0,0.0,0.0,0.0,0.0,0.0,0.0,0.0,0.0,0.0,0.0,0.0,0.0,0.0,0.0,0.0,0.0,0.0,0.0,0.0,0.0,0.0,0.0,0.0,0.0,0.0,0.0,0.0,0.0,0.0,0.0,0.0,0.0,0.0,0.0,0.0,0.0,0.0,0.0,0.0,0.0,0.0,0.0,0.0,0.0,0.0,0.0,-2.8165,-2.8934,-3.123,-3.097,-3.0837,-3.1467,-3.139,-3.0806,-2.9654,-2.8966,0.0,0.0,0.0,0.0,0.0,0.0,0.0,0.0,0.0,0.0,0.0,0.0,0.0,0.0,0.0,0.0,0.0,0.0,0.0,0.0,0.0,0.0,0.0,0.0,0.0,0.0,0.0,0.0,0.0,0.0,0.0,0.0,0.0,0.0,0.0,0.0,0.0,0.0,0.0,0.0,0.0,0.0,0.0,0.0,0.0,0.0,0.0,0.0,0.0,0.0,0.0,0.0,0.0,0.0,0.0,0.0,0.0,0.0,0.0,0.0,0.0,0.0,0.0,0.0,0.0,0.0,0.0,0.0,0.0,0.0,0.0,0.0,0.0,0.0,0.0,0.0,0.0,0.0,0.0,0.0,0.0,0.0,0.0,0.0,0.0,0.0,0.0,0.0,0.0,0.0,0.0,0.0,0.0,0.0,0.0,0.0,0.0,0.0,0.0,0.0,0.0,0.0,-2.9167,-3.06,-3.1392,-3.1467,-3.1409,-3.1482,-3.0941,-3.0298,-2.9624,-2.8966,0.0,0.0,0.0,0.0,0.0,0.0,0.0,0.0,0.0,0.0,0.0,0.0,0.0,0.0,0.0,0.0,0.0,0.0,0.0,0.0,0.0,0.0,0.0,0.0,0.0,0.0,0.0,0.0,0.0,0.0,0.0,0.0,0.0,0.0,0.0,0.0,0.0,0.0,0.0,0.0,0.0,0.0,0.0,0.0,0.0,0.0,0.0,0.0,0.0,0.0,0.0,0.0,0.0,0.0,0.0,0.0,0.0,0.0,0.0,0.0,0.0,0.0,0.0,0.0,0.0,0.0,0.0,0.0,0.0,0.0,0.0,0.0,0.0,0.0,0.0,0.0,0.0,0.0,0.0,0.0,0.0,0.0,0.0,0.0,0.0,0.0,0.0,0.0,0.0,0.0,0.0,0.0,0.0,0.0,0.0,0.0,0.0,0.0,0.0,0.0,0.0,0.0,-2.8478,-2.9736,0.0,-3.1029,-3.097,-3.1467,-3.0911,-3.0058,-2.9041,0.0,0.0,0.0,0.0,0.0,0.0,0.0,0.0,0.0,0.0,0.0,0.0,0.0,0.0,0.0,0.0,0.0,0.0,0.0,0.0,0.0,0.0,0.0,0.0,0.0,0.0,0.0,0.0,0.0,0.0,0.0,0.0,0.0,0.0,0.0,0.0,0.0,0.0,0.0,0.0,0.0,0.0,0.0,0.0,0.0,0.0,0.0,0.0,0.0,0.0,0.0,0.0,0.0,0.0,0.0,0.0,0.0,0.0,0.0,0.0,0.0,0.0,0.0,0.0,0.0,0.0,0.0,0.0,0.0,0.0,0.0,0.0,0.0,0.0,0.0,0.0,0.0,0.0,0.0,0.0,0.0,0.0,0.0,0.0,0.0,0.0,0.0,0.0,0.0,0.0,0.0,0.0,0.0,0.0,0.0,0.0,0.0,0.0,0.0,0.0,0.0,0.0,-2.7455,-2.8586,-2.9869,0.0,-3.1029,-3.0896,-3.1467,-3.0717,-2.9744,-2.8667,0.0,0.0,0.0,0.0,0.0,0.0,0.0,0.0,0.0,0.0,0.0,0.0,0.0,0.0,0.0,0.0,0.0,0.0,0.0,0.0,0.0,0.0,0.0,0.0,0.0,0.0,0.0,0.0,0.0,0.0,0.0,0.0,0.0,0.0,0.0,0.0,0.0,0.0,0.0,0.0,0.0,0.0,0.0,0.0,0.0,0.0,0.0,0.0,0.0,0.0,0.0,0.0,0.0,0.0,0.0,0.0,0.0,0.0,0.0,0.0,0.0,0.0,0.0,0.0,0.0,0.0,0.0,0.0,0.0,0.0,0.0,0.0,0.0,0.0,0.0,0.0,0.0,0.0,0.0,0.0,0.0,0.0,0.0,0.0,0.0,0.0,0.0,0.0,0.0,0.0,0.0,0.0,0.0,0.0,0.0,0.0,0.0,0.0,0.0,0.0,0.0,0.0,-2.7625,-2.9879,-3.1467,-3.1482,-3.1482,-3.1482,-3.1482,-3.0328,-2.9295,0.0,0.0,0.0,0.0,0.0,0.0,0.0,0.0,0.0,0.0,0.0,0.0,0.0,0.0,0.0,0.0,0.0,0.0,0.0,0.0,0.0,0.0,0.0,0.0,0.0,0.0,0.0,0.0,0.0,0.0,0.0,0.0,0.0,0.0,0.0,0.0,0.0,0.0,0.0,0.0,0.0,0.0,0.0,0.0,0.0,0.0,0.0,0.0,0.0,0.0,0.0,0.0,0.0,0.0,0.0,0.0,0.0,0.0,0.0,0.0,0.0,0.0,0.0,0.0,0.0,0.0,0.0,0.0,0.0,0.0,0.0,0.0,0.0,0.0,0.0,0.0,0.0,0.0,0.0,0.0,0.0,0.0,0.0,0.0,0.0,0.0,0.0,0.0,0.0,0.0,0.0,0.0,0.0,0.0,0.0,0.0,0.0,0.0,0.0,0.0,0.0,0.0,0.0,-2.7505,-2.946,-3.1001,-3.1422,-3.1482,-3.1482,-3.1482,-3.0328,-2.9086,-2.7949,0.0,0.0,0.0,0.0,0.0,0.0,0.0,0.0,0.0,0.0,0.0,0.0,0.0,0.0,0.0,0.0,0.0,0.0,0.0,0.0,0.0,0.0,0.0,0.0,0.0,0.0,0.0,0.0,0.0,0.0,0.0,0.0,0.0,0.0,0.0,0.0,0.0,0.0,0.0,0.0,0.0,0.0,0.0,0.0,0.0,0.0,0.0,0.0,0.0,0.0,0.0,0.0,0.0,0.0,0.0,0.0,0.0,0.0,0.0,0.0,0.0,0.0,0.0,0.0,0.0,0.0,0.0,0.0,0.0,0.0,0.0,0.0,0.0,0.0,0.0,0.0,0.0,0.0,0.0,0.0,0.0,0.0,0.0,0.0,0.0,0.0,0.0,0.0,0.0,0.0,0.0,0.0,0.0,0.0,0.0,0.0,0.0,0.0,0.0,0.0,0.0,0.0,-2.7445,-2.928,-3.0776,-3.1407,-3.1482,-3.1482,-3.1482,-3.0328,-2.9011,-2.77,0.0,0.0,0.0,0.0,0.0,0.0,0.0,0.0,0.0,0.0,0.0,0.0,0.0,0.0,0.0,0.0,0.0,0.0,0.0,0.0,0.0,0.0,0.0,0.0,0.0,0.0,0.0,0.0,0.0,0.0,0.0,0.0,0.0,0.0,0.0,0.0,0.0,0.0,0.0,0.0,0.0,0.0,0.0,0.0,0.0,0.0,0.0,0.0,0.0,0.0,0.0,0.0,0.0,0.0,0.0,0.0,0.0,0.0,0.0,0.0,0.0,0.0,0.0,0.0,0.0,0.0,0.0,0.0,0.0,0.0,0.0,0.0,0.0,0.0,0.0,0.0,0.0,0.0,0.0,0.0,0.0,0.0,0.0,0.0,0.0,0.0,0.0,0.0,0.0,0.0,0.0,0.0,0.0,0.0,0.0,0.0,0.0,0.0,0.0,0.0,0.0,0.0,-2.7355,-2.9205,-3.0672,-3.136,-3.1437,-3.1482,-3.1482,-3.0328,-2.9079,-2.784,0.0,0.0,0.0,0.0,0.0,0.0,0.0,0.0,0.0,0.0,0.0,0.0,0.0,0.0,0.0,0.0,0.0,0.0,0.0,0.0,0.0,0.0,0.0,0.0,0.0,0.0,0.0,0.0,0.0,0.0,0.0,0.0,0.0,0.0,0.0,0.0,0.0,0.0,0.0,0.0,0.0,0.0,0.0,0.0,0.0,0.0,0.0,0.0,0.0,0.0,0.0,0.0,0.0,0.0,0.0,0.0,0.0,0.0,0.0,0.0,-2.5213,0.0,0.0,0.0,0.0,0.0,0.0,0.0,0.0,0.0,0.0,0.0,0.0,0.0,0.0,0.0,0.0,0.0,0.0,0.0,0.0,0.0,0.0,0.0,0.0,0.0,0.0,0.0,0.0,0.0,0.0,0.0,0.0,0.0,0.0,0.0,0.0,0.0,0.0,0.0,0.0,0.0,-2.6557,-2.8547,-3.0028,-3.0657,-3.121,-3.1482,-3.1482,-3.0328,-2.9486,-2.9131,-2.6657,0.0,0.0,0.0,0.0,0.0,0.0,0.0,0.0,0.0,0.0,0.0,0.0,0.0,0.0,0.0,0.0,0.0,0.0,0.0,0.0,0.0,0.0,0.0,0.0,0.0,0.0,0.0,0.0,0.0,0.0,0.0,0.0,0.0,0.0,0.0,0.0,0.0,0.0,0.0,0.0,0.0,0.0,0.0,0.0,0.0,0.0,0.0,0.0,0.0,0.0,0.0,0.0,0.0,0.0,0.0,0.0,0.0,0.0,0.0,0.0,-2.6138,0.0,0.0,0.0,0.0,0.0,0.0,0.0,0.0,0.0,0.0,0.0,0.0,0.0,0.0,0.0,0.0,0.0,0.0,0.0,0.0,0.0,0.0,0.0,0.0,0.0,0.0,0.0,0.0,0.0,0.0,0.0,0.0,0.0,0.0,0.0,0.0,0.0,0.0,0.0,0.0,-2.6333,-2.8338,-2.9819,-3.0432,-3.112,-3.164,-3.2007,-3.0776,-3.0022,-2.9973,-2.7674,0.0,0.0,0.0,0.0,0.0,0.0,0.0,0.0,0.0,0.0,0.0,0.0,0.0,0.0,0.0,0.0,0.0,0.0,0.0,0.0,0.0,0.0,0.0,0.0,0.0,0.0,0.0,0.0,0.0,0.0,0.0,0.0,0.0,0.0,0.0,0.0,0.0,0.0,0.0,0.0,0.0,0.0,0.0,0.0,0.0,0.0,0.0,0.0,0.0,0.0,0.0,0.0,0.0,-2.6572,-2.6946,-2.6946,-2.7051,-2.7724,-2.8712,-2.7709,-2.7455,-2.7709,-2.7171,0.0,0.0,0.0,0.0,0.0,0.0,0.0,0.0,0.0,0.0,0.0,0.0,0.0,0.0,0.0,0.0,0.0,0.0,0.0,0.0,0.0,0.0,0.0,0.0,-2.9939,-2.9828,0.0,0.0,0.0,0.0,0.0,0.0,0.0,0.0,0.0,0.0,0.0,0.0,-2.6198,-2.8173,-2.9654,-3.0283,-3.0941,-3.166,-3.2532,-3.144,-3.0767,-3.1017,-2.9076,-2.7622,0.0,0.0,0.0,0.0,0.0,0.0,0.0,0.0,0.0,0.0,0.0,0.0,0.0,0.0,0.0,0.0,0.0,0.0,0.0,0.0,0.0,0.0,0.0,0.0,0.0,0.0,0.0,0.0,0.0,0.0,0.0,0.0,-2.5235,-2.5953,0.0,0.0,0.0,0.0,0.0,0.0,0.0,0.0,0.0,0.0,0.0,0.0,0.0,-2.5077,-2.548,-2.6138,-2.6452,-2.6482,-2.7739,-2.8338,-2.8353,-2.8921,-2.928,-2.9475,-2.9834,0.0,-2.8457,-2.8368,0.0,0.0,0.0,0.0,0.0,0.0,0.0,0.0,0.0,0.0,0.0,0.0,0.0,0.0,0.0,0.0,0.0,0.0,0.0,0.0,0.0,0.0,-3.2048,-3.1275,-3.1293,-3.115,0.0,-2.8046,-2.6039,-2.4612,-2.352,0.0,0.0,0.0,0.0,0.0,0.0,0.0,-2.563,-2.7485,-2.8981,-2.9639,-3.0268,-3.1203,-3.2485,-3.1889,-3.1946,-3.3055,-3.1112,-3.0096,-3.0482,-2.8631,0.0,0.0,0.0,0.0,0.0,0.0,0.0,0.0,0.0,0.0,0.0,0.0,0.0,0.0,0.0,0.0,0.0,0.0,0.0,0.0,0.0,0.0,0.0,0.0,0.0,0.0,0.0,0.0,0.0,-2.5257,-2.5463,-2.6196,-2.6027,-2.5287,0.0,0.0,0.0,0.0,0.0,0.0,0.0,0.0,0.0,-2.5166,-2.554,-2.5869,-2.6153,-2.6811,-2.7335,-2.7724,-2.8323,-2.8981,-2.9669,-2.9609,-2.9983,-3.0672,-3.0552,-3.0178,-2.9609,-2.8906,-2.8188,-2.755,0.0,0.0,0.0,0.0,-2.6183,-2.5719,-2.6452,-2.6678,0.0,-2.6426,0.0,0.0,0.0,0.0,0.0,0.0,0.0,0.0,0.0,0.0,0.0,-3.3271,-3.3557,-3.3538,-3.2482,-3.1062,-2.9399,0.0,-2.6313,-2.505,-2.3902,0.0,0.0,0.0,0.0,-2.5452,-2.6535,-2.8446,-2.9961,-3.0596,-3.1612,-3.2625,-3.3652,-3.3042,-3.3079,-3.3996,-3.277,-3.1791,-3.1224,-3.0243,-2.8958,0.0,0.0,0.0,0.0,0.0,0.0,0.0,0.0,0.0,0.0,0.0,0.0,0.0,0.0,0.0,0.0,0.0,0.0,0.0,0.0,0.0,0.0,0.0,0.0,0.0,0.0,0.0,0.0,-2.5754,-2.5854,-2.6419,-2.6758,-2.6187,0.0,0.0,0.0,0.0,0.0,0.0,-2.4118,-2.5061,-2.5689,-2.5854,-2.6333,-2.6677,-2.6841,-2.732,-2.7919,-2.8607,-2.8771,-2.943,-3.0492,-3.0208,-3.0612,-3.1437,-3.0986,-3.0672,-3.0432,-2.9475,-2.8592,-2.7739,-2.6752,-2.6273,-2.6168,-2.6662,-2.6647,-2.6497,-2.729,-2.7765,-2.7876,-2.6903,0.0,-2.7963,-2.6984,0.0,0.0,0.0,0.0,-3.1681,-3.2611,-3.366,-3.4479,-3.4532,-3.5065,-3.5273,-3.4104,-3.3271,-3.2196,0.0,-2.8674,-2.723,-2.578,0.0,0.0,0.0,0.0,-2.6529,-2.759,-2.9406,-3.0793,-3.1454,-3.264,-3.3693,-3.4511,-3.4098,-3.4097,-3.4732,-3.41,-3.3186,-3.2087,-3.185,-3.0784,-2.8721,0.0,0.0,0.0,0.0,0.0,0.0,0.0,0.0,0.0,0.0,0.0,0.0,0.0,0.0,0.0,0.0,0.0,0.0,0.0,0.0,0.0,0.0,0.0,0.0,0.0,0.0,0.0,0.0,0.0,-2.6454,-2.7411,0.0,0.0,0.0,0.0,-2.4567,-2.5121,-2.551,-2.551,-2.557,-2.5899,-2.6512,-2.6572,-2.6886,-2.7565,-2.761,-2.7919,-2.8607,-2.9235,-2.9864,-3.0522,-3.115,-3.1422,-3.1482,-3.1437,-3.1106,-3.0507,-3.0432,-2.9669,-2.8547,-2.8487,-2.8053,-2.752,-2.7565,-2.7919,-2.8368,-2.7784,-2.8388,-2.9218,-2.7931,-2.7859,-2.8399,-2.8895,-2.9465,0.0,0.0,-3.1664,-3.256,-3.3998,-3.4438,-3.4526,-3.4568,-3.5128,-3.5407,-3.4686,-3.4013,-3.2919,0.0,-2.9339,-2.8318,-2.8217,0.0,-2.7242,-2.7192,-2.7801,-2.8265,-2.8345,-2.9627,-3.0781,-3.1454,-3.2191,-3.316,-3.4478,-3.4543,-3.4844,-3.5509,-3.4861,-3.4404,-3.4336,-3.366,-3.2577,-3.1055,-2.96,0.0,0.0,0.0,0.0,0.0,0.0,0.0,0.0,0.0,0.0,0.0,0.0,0.0,0.0,0.0,0.0,0.0,0.0,0.0,0.0,0.0,0.0,0.0,0.0,0.0,0.0,0.0,0.0,-2.6281,-2.6727,0.0,-2.5272,-2.5576,-2.5526,-2.4615,-2.5136,-2.5336,-2.4867,-2.5213,-2.5816,-2.6528,-2.6542,-2.7071,-2.8233,-2.785,-2.8338,-2.9819,-2.9654,-3.0133,-3.118,-3.1362,-3.1482,-3.1482,-3.1482,-3.1332,-3.1165,-3.1165,-3.0402,-2.922,-2.922,-2.8816,-2.8293,-2.8712,-2.8757,-2.8614,-2.8773,-2.8865,-2.8905,-2.8808,-2.9125,-2.9688,-3.0299,-3.0988,-3.1664,-3.2408,-3.3152,-3.3947,-3.4962,-3.5216,-3.5104,-3.4628,-3.5054,-3.538,-3.4695,-3.3963,-3.3249,-3.2497,-3.1265,-3.0021,-2.9148,-2.9088,-2.8907,-2.8162,-2.854,-2.9107,-2.9564,-3.0479,-3.1495,-3.2608,-3.2968,-3.3506,-3.4466,-3.4114,-3.395,-3.4141,-3.3947,-3.3575,-3.3085,-3.2814,-3.2205,-3.1207,-3.0209,-2.8586,0.0,0.0,0.0,0.0,0.0,0.0,0.0,0.0,0.0,0.0,0.0,0.0,0.0,0.0,0.0,0.0,0.0,0.0,0.0,0.0,0.0,0.0,0.0,0.0,0.0,0.0,-2.6173,-2.6222,-2.6757,-2.6796,-2.6006,-2.6138,-2.605,-2.5579,-2.572,-2.564,-2.5152,-2.5286,-2.5728,-2.6457,-2.6712,-2.7418,-2.8592,-2.8368,-2.9011,-3.0507,-3.0088,-3.0462,-3.1482,-3.1482,-3.1482,-3.1467,-3.1285,-3.118,-3.118,-3.118,-3.0672,-2.9894,-2.9894,-2.9505,-2.8981,-2.943,-2.9445,-2.9342,-3.0216,-2.9816,-2.9015,-2.9822,-3.0174,-3.0426,-3.1082,-3.1763,-3.2493,-3.3491,-3.4117,-3.4675,-3.5419,-3.5622,-3.5419,-3.4675,-3.4878,-3.503,-3.4286,-3.3744,-3.3339,-3.3068,-3.2102,-3.1058,-3.0092,-3.0253,-3.0197,-2.9469,-2.965,-3.0052,-3.0551,-3.1233,-3.2051,-3.2925,-3.3254,-3.3609,-3.4083,-3.3677,-3.3406,-3.3406,-3.3406,-3.3186,-3.2679,-3.2408,-3.2053,-3.1562,-3.0479,-2.9161,-2.754,0.0,0.0,0.0,0.0,0.0,0.0,0.0,0.0,0.0,0.0,0.0,0.0,0.0,0.0,0.0,0.0,0.0,0.0,0.0,0.0,0.0,0.0,0.0,-2.4571,-2.5893,-2.6727,-2.6262,-2.7527,-2.7946,-2.6726,-2.72,-2.7575,-2.7509,-2.6878,-2.6443,-2.6404,-2.5728,-2.5673,-2.6457,-2.7101,-2.7842,-2.8622,-2.9235,-2.9879,-3.0537,-3.0507,-3.0866,-3.1482,-3.1482,-3.1467,-3.1407,-3.0791,-3.0492,-3.0477,-3.0492,-3.0507,-3.0507,-3.0522,-3.0163,-2.9609,-2.9639,-2.9998,-3.0669,-3.1939,-3.1102,-2.9653,-3.0953,-3.0912,-3.0467,-3.1203,-3.1809,-3.2611,-3.4049,-3.4489,-3.4692,-3.5419,-3.5605,-3.5402,-3.4641,-3.4455,-3.4252,-3.3525,-3.3372,-3.3152,-3.2425,-3.1698,-3.119,-3.119,-3.119,-3.119,-3.119,-3.119,0.0,-3.119,-3.1799,-3.2256,-3.2313,-3.2916,-3.3339,-3.3372,-3.3355,-3.3339,-3.3339,-3.3322,-3.3322,-3.3339,-3.2611,-3.2263,-3.228,-3.0521,-2.9499,-2.9229,0.0,0.0,0.0,0.0,0.0,0.0,0.0,0.0,0.0,0.0,0.0,0.0,0.0,0.0,0.0,0.0,0.0,0.0,0.0,0.0,0.0,-2.4925,-2.527,-2.4813,-2.5684,-2.6365,-2.6342,-2.6826,-2.7158,-2.7325,-2.7505,-2.7137,-2.6108,-2.5837,-2.5217,-2.4092,-2.3872,-2.4323,-2.5673,-2.5896,-2.7038,-2.9295,-2.9026,-2.9669,-3.124,-3.0746,-3.0866,-3.1482,-3.1482,-3.1255,-3.0776,-3.0582,-3.0253,-2.9864,-3.0313,-3.0507,-3.0552,-3.1061,-3.0851,-3.0313,-3.0806,-3.0739,-3.0499,-3.0348,-3.0194,-3.0113,-3.0481,-3.0767,-3.1009,-3.1194,-3.2117,-3.3186,-3.3592,-3.4472,-3.5351,-3.5571,-3.5216,-3.4624,-3.388,-3.3694,-3.3508,-3.2747,-3.2594,-3.2527,-3.2324,-3.1698,-3.119,-3.119,-3.119,-3.119,-3.119,-3.119,0.0,-3.119,-3.1376,-3.1698,-3.2222,-3.1985,-3.2019,-3.2544,-3.2104,-3.1799,-3.1799,-3.1309,-3.1258,-3.1782,-3.1106,-3.1074,-3.1915,-3.0744,-3.0061,0.0,0.0,0.0,0.0,0.0,0.0,0.0,0.0,0.0,0.0,0.0,0.0,0.0,0.0,0.0,0.0,0.0,0.0,0.0,0.0,0.0,0.0,-2.5369,-2.5447,-2.504,-2.5667,-2.6145,-2.6001,-2.6334,-2.6737,-2.7126,-2.746,-2.7137,-2.596,-2.5563,-2.4894,-2.3649,-2.359,-2.415,-2.5342,-2.598,-2.719,-2.916,-2.9325,-2.9968,-3.1106,-3.0986,-3.1001,-3.1106,-3.1106,-3.0746,0.0,-2.9834,-2.9654,-2.9594,-2.9669,-2.9864,0.0,0.0,0.0,0.0,0.0,-3.1006,-3.0817,-3.0459,-3.0513,-3.0749,-3.1049,-3.117,-3.1258,-3.1562,-3.2476,-3.3474,-3.3778,-3.4709,-3.5537,-3.5233,-3.481,-3.4235,-3.3186,-3.2933,-3.273,-3.1985,-3.1833,-3.1833,-3.1833,-3.1478,0.0,-3.119,-3.119,-3.119,-3.119,-3.119,-3.119,-3.119,-3.119,-3.136,-3.1782,-3.1444,-3.136,-3.1782,-3.1444,0.0,0.0,0.0,-3.0615,-3.0734,-3.0772,0.0,0.0,0.0,0.0,0.0,0.0,0.0,0.0,-3.2426,-3.2834,0.0,0.0,0.0,0.0,0.0,0.0,0.0,0.0,0.0,0.0,0.0,0.0,0.0,0.0,0.0,0.0,-2.5883,-2.5597,-2.5239,-2.5703,-2.5891,-2.5358,-2.6031,-2.6512,-2.6572,-2.7186,-2.7306,-2.6563,-2.5892,-2.5175,-2.4452,0.0,0.0,0.0,0.0,-2.7783,-2.8607,-2.9714,-3.0328,-3.0417,-3.1016,-3.0986,-3.0402,-3.0402,-3.0058,-2.943,-2.8861,-2.8891,-2.931,-2.8801,-2.8996,-2.9699,-3.0941,-3.1362,-3.1345,-3.0657,-3.0729,-3.1181,-3.123,0.0,0.0,-3.1952,-3.1715,-3.1326,-3.207,-3.2747,-3.3457,-3.4269,-3.4912,-3.5233,-3.4641,-3.437,-3.3914,-3.2594,-3.2222,-3.1985,-3.1326,-3.119,-3.119,-3.119,-3.119,-3.119,-3.119,-3.119,-3.119,-3.119,-3.119,-3.119,-3.119,-3.119,-3.119,-3.119,0.0,0.0,-3.119,-3.119,-3.119,-3.119,-3.1275,-3.1026,-3.0319,-3.147,-3.2057,-3.1884,-3.3687,-3.4782,-3.5137,-3.6633,-3.7037,-3.6358,-3.344,-3.3642,0.0,0.0,0.0,0.0,0.0,0.0,0.0,0.0,0.0,0.0,0.0,0.0,0.0,0.0,0.0,-2.5979,-2.6309,-2.6199,-2.5303,-2.5294,-2.5242,-2.4805,-2.5362,-2.6004,-2.6542,-2.7186,-2.7306,-2.6563,-2.6336,-2.596,-2.5231,-2.5175,-2.5508,-2.6283,-2.6572,-2.7331,-2.8592,-2.8846,-2.9235,-2.9759,0.0,0.0,-2.9759,-2.9759,-2.94,-2.8786,-2.8667,-2.8353,-2.7993,-2.8427,-2.8996,-2.9654,-3.0417,-3.0702,-3.0627,-2.9998,-2.9824,-2.9873,-2.9814,-3.0076,-3.0593,-3.1223,-3.1309,-3.1326,-3.207,-3.2374,0.0,-3.4117,-3.4167,-3.3931,-3.437,-3.3609,-3.2628,-3.2381,-3.1833,-3.136,-3.1224,-3.119,-3.119,-3.119,-3.119,-3.119,-3.119,-3.119,-3.119,-3.119,-3.119,-3.119,-3.119,-3.119,-3.119,-3.119,-3.119,-3.119,-3.119,-3.119,-3.119,-3.119,-3.1749,-3.1952,-3.1579,-3.3265,-3.4391,-3.4781,-3.5533,-3.5988,-3.6046,-3.6376,-3.678,-3.7239,-3.6626,-3.6652,0.0,0.0,0.0,0.0,0.0,0.0,0.0,0.0,0.0,0.0,0.0,-2.4817,-2.5593,0.0,-2.5964,-2.635,-2.657,-2.635,-2.5335,-2.5221,-2.4918,-2.419,-2.5001,-2.5734,-2.6063,-2.6991,-2.7306,-2.6563,-2.651,-2.6176,-2.5453,-2.5728,-2.6122,-2.651,-2.6878,-2.7417,-2.8083,-2.8427,-2.8771,-2.9086,-2.943,-2.94,-2.9086,-2.9086,-2.8727,-2.8083,-2.8083,-2.7889,-2.7655,-2.7949,-2.8487,-2.9169,-2.9758,-3.0053,-3.0008,-2.9652,-2.9728,-2.9943,-2.9871,-3.0251,-3.0797,-3.1095,-3.119,-3.1326,-3.207,-3.2313,-3.251,-3.3643,-3.3694,-3.3406,-3.3389,-3.2831,-3.2188,-3.1833,-3.1461,-3.119,-3.119,-3.119,-3.119,-3.119,-3.119,-3.119,-3.119,-3.119,-3.119,-3.119,-3.119,-3.119,-3.119,-3.119,-3.119,-3.119,-3.119,-3.119,-3.119,-3.119,-3.1291,-3.147,-3.2265,-3.2545,-3.2196,-3.4123,-3.5137,-3.5002,-3.6255,-3.689,-3.689,-3.7294,-3.7716,-3.8102,-3.8102,-3.8102,0.0,0.0,0.0,0.0,0.0,0.0,0.0,0.0,-2.4615,-2.5277,-2.5362,-2.5586,-2.6517,-2.6654,-2.6627,-2.6706,-2.6691,-2.635,-2.5335,-2.5221,-2.4776,-2.3709,-2.4792,-2.5615,-2.5615,-2.6797,-2.7357,-2.6774,-2.6721,-2.6443,-2.5837,-2.639,-2.6721,-2.6721,-2.7306,-2.7625,-2.7625,-2.8128,-2.8412,-2.8412,-2.8936,-2.8906,-2.8412,-2.8412,-2.8098,-2.7625,-2.7625,-2.7625,-2.7625,-2.7625,-2.7991,-2.8641,-2.91,-2.9438,-2.9574,-2.9639,-2.9943,-3.0357,-3.032,-3.0699,-3.119,-3.119,-3.119,-3.1326,-3.207,-3.2188,-3.2256,-3.3152,-3.3203,-3.2865,-3.2408,-3.2171,-3.1918,-3.1326,-3.119,-3.119,-3.119,-3.119,-3.119,-3.119,-3.119,-3.119,-3.119,-3.119,-3.119,-3.119,-3.119,-3.119,-3.119,-3.119,-3.119,-3.119,-3.119,-3.123,-3.1329,-3.1329,-3.1524,-3.1933,-3.2735,-3.3108,-3.2864,-3.4613,-3.5322,-3.4769,-3.6559,-3.7507,-3.7507,-3.8303,-3.8707,-3.8707,-3.8707,-3.8707,-2.5505,-2.5447,-2.534,-2.5088,-2.493,-2.4756,0.0,0.0,-2.4467,-2.5237,-2.516,-2.5301,-2.649,-2.644,-2.6346,-2.6673,-2.6691,-2.635,-2.5335,-2.5221,-2.4776,-2.3709,-2.4792,-2.5615,-2.5615,-2.6797,-2.7575,-2.7458,-2.7458,-2.7458,-2.7357,-2.7408,-2.7458,-2.7458,-2.7575,-2.7625,-2.7625,-2.7649,-2.7679,-2.7679,-2.7805,-2.7754,-2.7679,-2.7679,-2.7685,-2.7625,-2.7625,-2.7625,-2.7625,-2.7625,-2.7955,-2.8539,-2.8587,-2.8936,-2.9482,-3.0068,-3.029,-3.0323,-3.0284,-3.0699,-3.119,-3.119,-3.119,-3.1326,-3.207,-3.1833,-3.1613,-3.3017,-3.2459,-3.1579,-3.2138,-3.1799,-3.1292,-3.1207,-3.119,-3.119,-3.119,-3.119,-3.119,-3.119,-3.119,-3.119,-3.119,-3.119,-3.119,-3.119,-3.119,-3.119,-3.119,-3.119,-3.119,-3.119,-3.119,-3.1351,-3.1696,-3.1804,-3.1985,-3.2384,-3.3141,-3.3734,-3.4186,-3.5047,-3.5688,-3.608,-3.7037,-3.7507,-3.7507,-3.8303,-3.8707,-3.8707,-3.8707,-3.8707,-2.5328,-2.5425,0.0,0.0,-2.5118,-2.5133,-2.5333,-2.4947,-2.485,-2.5884,-2.5612,-2.5419,-2.615,-2.6039,-2.5928,0.0,-2.6179,-2.5882,-2.5271,-2.5221,-2.4776,-2.3709,-2.4792,-2.5615,-2.5615,-2.6797,-2.7625,-2.7625,-2.7625,-2.7625,-2.7625,-2.7625,-2.7625,-2.7625,-2.7625,-2.7625,-2.7625,-2.7625,-2.7625,-2.7625,-2.7625,-2.7625,-2.7625,-2.7625,-2.7625,-2.7625,-2.7625,-2.781,-2.814,-2.814,-2.8496,-2.9042,-2.9406,-2.9717,-2.9984,-3.0233,-3.0326,-3.0351,-3.0699,-3.1015,-3.119,-3.119,-3.119,-3.1326,-3.207,-3.1765,-3.141,-3.2459,-3.2002,-3.1258,-3.1562,-3.1427,-3.119,-3.119,-3.119,-3.119,-3.119,-3.119,-3.119,-3.119,-3.119,-3.119,-3.119,-3.1372,-3.1545,-3.1545,-3.1545,-3.164,-3.1914,-3.1967,-3.1967,-3.1967,-3.1967,-3.2021,-3.2196,-3.2231,-3.2435,-3.289,-3.3655,-3.4047,-3.4051,-3.5271,-3.5835,-3.5569,-3.6817,-3.7507,-3.7507,-3.8303,-3.8707,-3.8707,-3.8707,-3.8707,-2.5329,0.0,0.0,-2.5341,-2.5284,-2.5337,-2.5655,-2.519,-2.5035,-2.6132,-2.5847,-2.55,-2.5799,-2.5831,-2.585,-2.5941,-2.5922,-2.5765,-2.5255,-2.5221,-2.4855,-2.398,-2.4911,-2.5674,-2.5869,-2.6901,-2.7625,-2.7625,-2.7625,-2.7625,-2.7625,-2.7625,-2.7625,-2.7625,-2.7625,-2.7625,-2.7625,-2.7625,-2.7625,-2.7625,-2.7625,-2.7625,-2.7625,-2.7625,-2.7625,-2.7625,-2.776,-2.8091,-2.8511,-2.8701,-2.9088,-2.9673,-3.0123,-3.0393,-3.0559,-3.0559,-3.0559,-3.0617,-3.1055,-3.119,-3.119,-3.119,-3.119,-3.1292,-3.1816,-3.1613,-3.1309,-3.1833,-3.1596,-3.119,-3.119,-3.119,-3.119,-3.119,-3.1291,-3.1389,-3.1389,-3.1449,-3.1562,-3.1562,-3.1562,-3.1562,-3.1562,-3.1806,-3.2022,-3.2161,-3.1986,-3.2002,-3.2449,-3.2484,-3.2484,-3.2484,-3.2484,-3.255,-3.2681,-3.2681,-3.289,-3.3332,-3.3905,-3.4095,-3.3825,-3.4963,-3.5312,-3.466,-3.6083,-3.6927,-3.7165,-3.7973,-3.8487,-3.8707,-3.8707,-3.8707,0.0,0.0,-2.5563,-2.5428,-2.5245,-2.509,-2.5034,-2.4771,-2.4737,-2.5558,-2.5559,-2.5418,-2.5493,-2.6136,-2.6433,-2.572,-2.6201,-2.6317,-2.5335,-2.5221,-2.5044,-2.4641,-2.5196,-2.5854,0.0,-2.7171,-2.7625,-2.7625,-2.7625,-2.7625,-2.7625,-2.7625,-2.7625,-2.7625,-2.7625,-2.7625,-2.7625,-2.7625,-2.7625,-2.7625,-2.7625,-2.7625,-2.7625,-2.7625,-2.7625,-2.7625,-2.8238,-2.8463,-2.8559,-2.9134,-2.9717,-3.0251,-3.0293,-3.0658,-3.119,-3.119,-3.119,-3.119,-3.119,-3.119,-3.119,-3.119,-3.119,-3.119,-3.1224,-3.1207,-3.119,-3.1224,-3.1207,-3.119,-3.119,-3.119,-3.119,-3.119,-3.1507,-3.1789,-3.1789,-3.2144,-3.2451,-3.2451,-3.2451,-3.2451,-3.2451,-3.2484,-3.2648,-3.3075,-3.2505,-3.214,-3.2462,-3.2484,-3.2484,-3.2484,-3.2484,-3.2681,-3.3154,-3.3184,-3.3361,-3.3762,-3.378,-3.3825,-3.3807,-3.3844,-3.3862,-3.3844,-3.4669,-3.5495,-3.634,-3.7129,-3.7936,-3.8707,-3.8707,-3.8707,-2.5625,0.0,-2.5586,-2.5498,-2.539,-2.5399,-2.5772,-2.5335,-2.4993,-2.5573,-2.5225,-2.4764,-2.4663,-2.4497,-2.4627,-2.5411,-2.5373,-2.5363,-2.5668,-2.5411,-2.5029,-2.4522,-2.5138,0.0,0.0,0.0,0.0,-2.7625,-2.7625,-2.7625,-2.7625,-2.7625,-2.7625,-2.7625,-2.7625,-2.7625,-2.7625,-2.7625,-2.7625,-2.7625,-2.7625,-2.7625,-2.761,-2.7993,-2.8189,-2.8238,-2.8826,-2.9316,-2.9717,-2.9892,-3.0335,-3.0878,-3.0878,-3.1015,-3.119,-3.119,-3.119,-3.119,-3.119,-3.119,-3.119,-3.119,-3.119,-3.119,-3.119,-3.119,-3.119,-3.119,-3.119,-3.119,-3.119,-3.1389,-3.1603,-3.1603,-3.1933,-3.2264,-3.2264,-3.2384,-3.2484,-3.2484,-3.2484,-3.2484,-3.2484,-3.2745,-3.2925,-3.2812,-3.3031,-3.303,-3.2617,-3.3034,-3.3343,-3.3343,-3.3343,-3.3419,-3.3578,-3.3606,-3.3652,-3.3788,-3.3807,-3.3807,-3.3807,-3.3807,-3.3807,-3.3807,-3.4596,-3.544,-3.6303,-3.7092,-3.79,-3.8707,-3.8707,-3.8707,-2.5644,-2.5644,-2.5624,-2.5559,-2.5493,-2.5563,-2.5899,-2.5482,-2.5113,-2.5401,-2.493,-2.4408,-2.4173,-2.3847,-2.3964,-2.5129,-2.5072,-2.5159,-2.5919,-2.554,-2.5084,-2.4772,-2.5272,-2.5704,0.0,0.0,0.0,-2.7625,-2.7625,-2.7625,-2.7625,-2.7625,-2.7625,-2.7625,-2.7625,-2.7625,-2.7625,-2.7625,-2.7625,-2.7625,-2.7625,-2.771,-2.7944,-2.8319,-2.8606,-2.8873,-2.9451,-2.9935,-3.0276,-3.0253,-3.0603,-3.1173,-3.0903,-3.097,-3.119,-3.119,-3.119,-3.119,-3.119,-3.119,-3.119,-3.119,-3.119,-3.119,-3.119,-3.1291,-3.1411,-3.1411,-3.1524,-3.1657,-3.1657,-3.1842,-3.2057,-3.2057,-3.24,-3.2745,-3.2745,-3.2872,-3.2965,-3.2965,-3.2965,-3.2965,-3.2965,-3.2979,-3.2693,-3.1865,-3.243,-3.2852,-3.2632,-3.3311,-3.3807,-3.3807,-3.3807,-3.3807,-3.3807,-3.3807,-3.3807,-3.3807,-3.3807,-3.3807,-3.3807,-3.3807,-3.3807,-3.3807,-3.4321,-3.5147,-3.6303,-3.6817,-3.7624,-3.8707,-3.8707,-3.8707,-2.5684,-2.5684,-2.5684,-2.5625,-2.5605,-2.5576,-2.5445,-2.5265,-2.509,-2.5027,-2.4747,-2.4424,0.0,0.0,-2.4443,-2.4951,-2.5347,-2.5681,-2.5969,-2.5561,-2.5243,0.0,0.0,0.0,0.0,0.0,0.0,-2.7625,0.0,-2.7625,-2.7625,-2.7625,-2.7625,-2.7625,-2.7625,-2.7625,-2.7625,-2.7625,-2.761,-2.7565,-2.7565,-2.7883,-2.8403,-2.845,-2.8809,-2.9383,-2.9966,-3.0236,-3.0228,-3.0118,-3.048,-3.1072,-3.0378,-3.0548,-3.119,-3.119,-3.119,-3.119,-3.119,-3.119,-3.119,-3.119,-3.119,-3.119,-3.123,-3.1507,-3.1825,-3.1825,-3.2179,-3.2484,-3.2484,-3.2517,-3.255,-3.255,-3.2872,-3.3243,-3.3243,-3.3522,-3.3807,-3.3807,-3.3807,-3.3807,-3.3807,-3.3109,-3.2027,-3.0485,-3.087,-3.1623,-3.2449,-3.3238,-3.3752,-3.3807,-3.3807,-3.3807,-3.3807,-3.3807,-3.3807,-3.3807,-3.3807,-3.3807,-3.3807,-3.3807,-3.3807,-3.3807,-3.3807,-3.4614,-3.6303,-3.6303,-3.711,-3.8719,-3.8719,-3.8719,-2.5604,-2.5625,-2.5625,-2.5664,-2.5644,-2.5585,-2.5568,-2.5421,-2.5274,-2.5109,-2.4972,-2.4776,0.0,0.0,0.0,-2.5226,-2.5264,0.0,-2.6387,-2.5746,0.0,-2.5243,0.0,-2.5136,-2.5794,-2.6452,0.0,0.0,-2.7625,-2.7625,-2.7625,-2.7625,-2.7625,-2.7625,-2.7625,-2.7625,-2.7625,-2.7625,-2.7554,-2.7471,-2.7471,-2.7473,-2.7553,-2.7981,-2.8273,-2.8478,-2.9082,-2.9328,-2.9328,-2.9293,-2.9719,-3.0362,-3.0176,-3.0548,-3.119,-3.119,-3.119,-3.119,-3.119,-3.119,-3.119,-3.119,-3.119,-3.1269,-3.1582,-3.1733,-3.188,-3.223,-3.2417,-3.2484,-3.2484,-3.2745,-3.3014,-3.3014,-3.3332,-3.3652,-3.3652,-3.3734,-3.3807,-3.3807,-3.3807,-3.3807,-3.3807,-3.2632,-3.1568,-3.1146,-3.076,-3.0797,-3.1604,-3.2412,-3.3146,-3.3733,-3.3807,-3.3807,-3.3807,-3.3807,-3.3807,-3.3807,-3.3807,-3.3807,-3.3807,-3.3807,-3.3807,-3.3807,-3.3807,-3.4614,-3.6303,-3.6303,-3.7219,-3.8999,-3.8999,-3.9117,-2.5532,-2.5586,-2.5605,-2.5644,-2.5644,-2.5624,-2.5572,-2.5503,-2.5398,-2.5216,-2.5083,0.0,-2.4685,0.0,0.0,0.0,0.0,0.0,-2.6504,-2.5557,-2.4846,0.0,-2.4856,0.0,-2.5136,-2.5779,-2.6318,0.0,-2.6976,-2.7141,-2.7141,-2.6871,-2.6707,-2.6707,-2.6707,-2.6707,-2.6707,-2.6935,-2.7023,-2.6948,-2.7203,-2.7395,-2.7615,-2.7938,-2.8229,-2.8515,0.0,-2.9011,-2.8958,-2.8619,-2.8924,-2.9583,-2.9245,-2.977,-3.0683,-3.0345,-3.051,-3.0902,-3.0577,-3.0568,-3.0747,-3.0908,-3.1175,-3.1476,-3.1568,-3.1949,-3.2466,-3.2745,-3.2934,-3.3057,-3.3057,-3.3273,-3.3465,-3.3465,-3.3652,-3.3807,-3.3807,-3.3807,-3.3807,-3.3807,-3.3807,-3.3587,-3.2871,-3.199,-3.1146,-3.0448,-2.9971,-2.9971,-3.076,-3.188,-3.2779,-3.3238,-3.3587,-3.3807,-3.3807,-3.3807,-3.3807,-3.3807,-3.3807,-3.3807,-3.3807,-3.3807,-3.3807,-3.3807,-3.3807,-3.4678,-3.6481,-3.6481,-3.7448,-3.9314,-3.9314,-3.9414,-2.5341,-2.5457,-2.5581,-2.5605,-2.5644,-2.5662,-2.5554,-2.5508,-2.546,-2.5351,0.0,-2.4986,-2.4828,-2.4416,-2.4365,-2.5204,0.0,-2.4522,-2.6182,-2.5062,-2.4345,-2.4974,-2.4718,-2.4477,-2.4567,-2.5151,-2.551,-2.56,-2.6063,-2.6363,-2.6452,-2.5914,-2.5615,-2.5615,-2.5615,-2.5615,-2.5615,-2.6123,-2.6375,-2.637,-2.6931,-2.7405,-2.7932,-2.7932,-2.8177,-2.867,0.0,0.0,-2.8619,-2.7943,-2.8129,-2.8755,-2.8078,-2.8687,-2.9888,-2.9228,-2.9621,-3.0352,-2.9713,-2.9754,-3.0149,-3.0437,-3.1011,-3.1533,-3.1288,-3.2,-3.2907,-3.2965,-3.3285,-3.3623,-3.3513,-3.3642,-3.377,-3.3678,-3.3642,-3.3642,-3.3642,-3.355,-3.3513,-3.3623,-3.355,-3.3109,-3.1916,-3.1439,-3.0797,-2.9512,-2.9122,-2.9255,-2.9953,-3.1347,-3.2375,-3.2596,-3.322,-3.3678,-3.3788,-3.3807,-3.3807,-3.3807,-3.3807,-3.3807,-3.3807,-3.3807,-3.3807,-3.3807,-3.3842,-3.48,-3.6702,-3.6752,-3.7746,-3.9668,-3.9668,-3.969,-2.4591,-2.4917,-2.5453,-2.5579,-2.5605,-2.5625,-2.5662,-2.5581,0.0,0.0,-2.5351,-2.516,-2.4861,-2.4727,-2.4631,-2.4515,0.0,0.0,0.0,0.0,-2.4132,0.0,0.0,0.0,0.0,0.0,0.0,0.0,0.0,-2.5211,-2.5749,-2.5674,-2.5615,-2.5615,-2.5615,-2.5615,-2.5615,-2.6123,-2.6346,-2.6243,-2.671,-2.6937,-2.6926,-2.6926,-2.7012,-2.7097,-2.7097,0.0,-2.708,-2.6945,-2.7334,-2.801,-2.784,-2.8383,-2.9161,-2.9025,-2.9279,-2.9661,-2.9523,-2.9754,-3.0092,-3.017,-3.0261,-3.0445,-3.0784,-3.106,-3.1281,-3.1608,-3.2232,-3.2651,-3.199,-3.2797,-3.3623,-3.2981,-3.2816,-3.2816,-3.2816,-3.2284,-3.2008,-3.2687,-3.2265,-3.2137,-3.3201,-3.1733,-3.054,-3.0925,-2.9861,-2.9049,-2.92,-3.0044,-3.1127,-3.2467,-3.2724,-3.3091,-3.3733,-3.3807,-3.3807,-3.3807,-3.3807,-3.3807,-3.3807,-3.3807,-3.3807,-3.3807,-3.4018,-3.4989,-3.6702,-3.693,-3.8064,-4.0002,-4.0002,-4.0139,-2.4245,-2.4764,-2.5427,-2.5523,-2.5579,-2.5488,-2.5078,0.0,0.0,0.0,-2.5053,-2.5201,-2.4874,0.0,0.0,0.0,0.0,0.0,0.0,0.0,0.0,0.0,0.0,0.0,0.0,0.0,0.0,0.0,0.0,-2.4388,-2.5061,-2.4762,-2.4567,-2.4567,-2.4567,-2.4567,-2.4567,-2.5381,-2.5749,-2.571,-2.6434,-2.6771,-2.6691,-2.6691,-2.6691,-2.6691,-2.6691,0.0,-2.6691,-2.6691,-2.6911,-2.7232,-2.7232,-2.7828,-2.8648,-2.8254,-2.8702,-2.9496,-2.9071,-2.918,-2.9521,-2.9521,-2.994,-3.0474,-3.0486,-3.0774,-3.1136,-3.1334,-3.1678,-3.188,-3.1494,-3.1953,-3.2449,-3.2063,-3.1971,-3.1971,-3.1971,-3.1659,-3.1641,-3.2449,-3.2302,-3.2265,-3.3036,-3.1861,-3.0797,-3.0779,-2.9769,-2.9044,-2.9181,-2.9555,-3.0337,-3.1831,-3.2357,-3.2944,-3.3733,-3.3928,-3.3993,-3.3993,-3.4165,-3.4279,-3.4279,-3.4279,-3.4279,-3.4279,-3.4398,-3.534,-3.7171,-3.7296,-3.8366,-4.0321,-4.0321,-4.0372,-2.359,-2.4312,-2.5139,-2.5226,-2.541,-2.5368,-2.4512,-2.4935,0.0,0.0,-2.4725,-2.5149,-2.4842,0.0,-2.459,0.0,0.0,0.0,0.0,0.0,0.0,0.0,0.0,0.0,0.0,0.0,0.0,0.0,0.0,0.0,-2.4313,-2.3894,-2.3595,-2.3595,-2.3724,-2.3752,-2.3752,-2.4831,-2.5373,-2.5373,-2.628,-2.6691,-2.6691,-2.6691,-2.6691,-2.6691,-2.6691,0.0,0.0,-2.6774,-2.6841,-2.6858,-2.6939,-2.7508,-2.8213,-2.7635,-2.824,-2.9233,-2.8611,-2.8658,-2.8994,-2.8994,-2.9624,-3.0377,-3.0039,-3.0375,-3.0889,-3.0889,-3.0999,-3.1091,-3.0925,-3.1127,-3.1347,-3.1182,-3.1127,-3.1091,-3.0907,-3.0889,-3.1164,-3.2155,-3.221,-3.221,-3.2559,-3.1788,-3.0925,-3.0301,-2.9531,-2.9067,-2.9289,-2.9372,-2.9943,-3.1347,-3.2109,-3.2908,-3.3913,-3.4189,-3.4311,-3.4311,-3.4551,-3.4694,-3.4694,-3.4694,-3.4694,-3.4694,-3.4773,-3.5704,-3.76,-3.7655,-3.8654,-4.0489,-4.0489,-4.0489,-2.1947,-2.2947,-2.4255,-2.438,-2.4967,-2.5317,-2.4568,0.0,0.0,-2.4369,-2.4643,-2.4974,-2.4832,-2.4654,-2.4265,0.0,0.0,0.0,0.0,0.0,0.0,0.0,0.0,0.0,0.0,0.0,0.0,0.0,0.0,0.0,-2.3625,-2.3625,-2.3595,-2.3595,-2.4074,-2.4307,-2.4307,-2.5373,-2.5924,-2.5924,-2.6436,-2.6691,-2.6691,-2.6691,-2.6691,-2.6691,-2.6691,0.0,0.0,-2.7083,-2.7224,-2.7272,-2.7666,-2.7847,-2.7929,-2.7858,-2.8128,-2.8484,-2.8438,-2.8658,-2.8994,-2.8994,-2.9062,-2.9172,-2.9122,-2.914,-2.9237,-2.9237,-2.9751,-3.0136,-2.942,-3.0301,-3.1219,-3.0485,-3.032,-3.0118,-2.936,-2.9237,-2.9677,-3.1201,-3.0925,-3.0889,-3.2357,-3.1329,-3.0283,-3.021,-2.9531,-2.9017,-2.9021,-2.9246,-3.0027,-3.1592,-3.2045,-3.288,-3.448,-3.4632,-3.4653,-3.4653,-3.4674,-3.4694,-3.4694,-3.4694,-3.4694,-3.4694,-3.4944,-3.5888,-3.76,-3.7843,-3.8839,-4.0489,-4.0489,-4.0489,-2.1564,-2.2389,-2.3485,-2.4149,-2.4145,-2.3934,-2.3728,0.0,-2.4488,-2.3658,-2.4285,-2.4962,-2.4814,-2.4639,-2.4211,0.0,-2.3189,-2.2923,-2.213,0.0,0.0,0.0,0.0,0.0,0.0,0.0,0.0,0.0,0.0,0.0,-2.2428,-2.2458,-2.2565,-2.2818,-2.3465,-2.3928,-2.4216,-2.5403,-2.6013,-2.6013,-2.647,-2.6691,-2.6691,-2.6691,-2.6691,-2.6691,-2.6691,0.0,0.0,-2.7224,-2.7439,-2.7695,-2.784,-2.802,-2.821,-2.821,-2.8438,-2.8749,-2.8749,-2.8863,-2.8994,-2.8994,-2.8994,-2.8994,-2.8994,-2.8994,-2.8994,-2.8994,-2.9214,-2.9402,-2.9067,-2.9494,-2.9879,-2.9549,-2.9494,-2.9402,-2.9067,-2.8994,-2.9375,-3.0664,-3.0672,-3.0847,-3.2079,-3.1376,-3.0611,-3.0611,-2.9939,-2.9456,-2.9588,-2.9695,-3.0267,-3.1594,-3.2029,-3.2883,-3.4562,-3.4851,-3.4944,-3.4944,-3.5088,-3.519,-3.519,-3.519,-3.519,-3.519,-3.5289,-3.6178,-3.7843,-3.7959,-3.8854,-4.0489,-4.0489,-4.0489,-2.1032,-2.1748,-2.2677,-2.3678,-2.3462,-2.3042,0.0,-2.3703,-2.3978,-2.3159,-2.403,-2.4917,-2.4832,-2.4594,-2.4155,0.0,-2.3189,-2.2923,-2.2203,-2.1446,0.0,0.0,0.0,0.0,0.0,0.0,0.0,0.0,0.0,0.0,-2.1273,-2.1311,-2.1592,-2.2262,-2.3073,-2.366,-2.3967,-2.5036,-2.5544,-2.5544,-2.6118,-2.637,-2.6387,-2.659,-2.6691,-2.6691,-2.6825,0.0,0.0,-2.718,-2.7441,-2.7691,-2.7817,-2.8144,-2.8565,-2.8565,-2.8749,-2.8957,-2.8741,-2.865,-2.865,-2.865,-2.865,-2.8705,-2.892,-2.8994,-2.8994,-2.8994,-2.8994,-2.8994,-2.8994,-2.8994,-2.8994,-2.8994,-2.8994,-2.9017,-2.9089,-2.9112,-2.9422,-3.0478,-3.0689,-3.0918,-3.1619,-3.128,-3.0809,-3.0582,-3.0054,-2.9746,-2.9893,-2.9969,-3.04,-3.1475,-3.2088,-3.2988,-3.4432,-3.4952,-3.5223,-3.5223,-3.5403,-3.5493,-3.5493,-3.5493,-3.5493,-3.5493,-3.5493,-3.6334,-3.8007,-3.8007,-3.8854,-4.0489,-4.0489,-4.0489,-2.0012,-2.0803,-2.1831,-2.2774,-2.3062,-2.3102,0.0,-2.3664,-2.3978,-2.3159,-2.3966,-2.4804,-2.4804,-2.4478,-2.3996,-2.3323,-2.3189,-2.283,-2.1744,-2.1244,0.0,0.0,0.0,0.0,0.0,0.0,0.0,0.0,0.0,0.0,-2.0296,-2.0296,-2.093,-2.2269,-2.3211,-2.3687,-2.3687,-2.424,-2.454,-2.4509,-2.527,-2.5625,-2.5642,-2.637,-2.6691,0.0,0.0,0.0,0.0,-2.6907,-2.7204,-2.7254,-2.7657,-2.8301,-2.8994,-2.8994,-2.8994,-2.8906,-2.8081,-2.7805,-2.7805,-2.7805,-2.7805,-2.7952,-2.8778,-2.8994,-2.8994,-2.8994,-2.8994,-2.8994,-2.8994,-2.8994,-2.8994,-2.8994,-2.8994,-2.9067,-2.933,-2.9392,-2.9678,-3.0697,-3.0903,-3.0903,-3.0903,-3.0903,-3.0639,-2.9828,-2.9696,-2.9696,-2.9713,-2.9877,-3.0338,-3.1211,-3.2248,-3.3256,-3.4122,-3.5007,-3.5493,-3.5493,-3.5493,-3.5493,-3.5493,-3.5493,-3.5493,-3.5493,-3.5493,-3.6334,-3.8007,-3.8007,-3.8854,-4.0489,-4.0489,-4.0489,-2.0143,-2.0452,-2.0939,-2.1878,-2.1707,-2.1634,-2.2823,-2.3254,-2.3448,-2.3697,-2.4302,-2.4804,-2.4804,-2.4283,-2.3714,-2.3259,-2.3021,0.0,0.0,0.0,0.0,0.0,0.0,0.0,0.0,0.0,0.0,0.0,0.0,0.0,-2.0764,-2.1039,-2.1375,-2.1795,-2.2589,-2.3156,-2.3486,-2.416,-2.4506,-2.4506,-2.4729,-2.4985,-2.521,-2.545,-2.5656,0.0,0.0,0.0,0.0,-2.6296,-2.653,-2.6812,-2.6918,-2.7145,-2.7365,-2.7365,-2.7365,-2.7328,-2.7071,-2.6979,-2.7071,-2.7622,-2.7787,-2.7952,-2.8778,-2.8994,-2.8994,-2.8994,-2.9134,-2.9267,-2.9267,-2.9375,-2.9494,-2.9494,-2.9494,-2.9495,-2.9589,-2.9607,-2.9736,-3.0203,-3.0273,-3.0338,-3.0543,-3.0557,-3.0461,-3.0226,-3.0188,-3.0188,-3.0188,-3.0228,-3.0382,-3.065,-3.1507,-3.241,-3.3237,-3.4103,-3.4603,-3.4603,-3.4603,-3.4872,-3.5488,-3.5493,-3.5493,-3.5493,-3.5493,-3.6026,-3.7123,-3.7123,-3.8007,-3.9681,-4.0239,-4.0489,0.0,-2.031,-2.06,-2.1512,-2.1138,-2.0989,-2.2709,-2.3056,-2.318,-2.3887,-2.4442,-2.4775,-2.47,-2.4155,-2.3588,-2.3236,-2.2923,0.0,0.0,0.0,0.0,0.0,0.0,0.0,0.0,0.0,0.0,0.0,0.0,0.0,-2.1181,-2.146,-2.1688,-2.1869,-2.2315,-2.2701,-2.2987,-2.3427,-2.3663,-2.3663,-2.3934,-2.4262,-2.459,-2.4884,-2.5174,0.0,0.0,0.0,0.0,-2.5715,-2.5929,-2.6153,-2.6153,-2.6337,-2.6612,-2.6612,-2.6612,-2.6557,-2.6245,-2.6153,-2.6227,-2.6722,-2.7359,-2.8091,-2.8989,-2.9206,-2.916,-2.9249,-2.9395,-2.9513,-2.9513,-2.9607,-2.9696,-2.9696,-2.9696,-2.9731,-2.9796,-2.9794,-2.9858,-3.0089,-3.015,-3.0209,-3.0367,-3.0398,-3.0398,-3.0398,-3.0398,-3.0398,-3.0398,-3.0398,-3.0398,-3.0398,-3.0898,-3.1417,-3.191,-3.3026,-3.3699,-3.3699,-3.4007,-3.443,-3.4988,-3.5334,-3.5493,-3.5493,-3.5493,-3.5911,-3.6699,-3.7353,-3.8238,-3.9315,-4.0123,-4.0489,0.0,-2.0307,-2.0685,-2.1517,-2.1146,-2.1013,-2.2631,-2.294,0.0,-2.3676,-2.4293,-2.4637,-2.4416,-2.3985,-2.3544,-2.3212,-2.2898,0.0,0.0,0.0,0.0,0.0,0.0,0.0,0.0,0.0,0.0,0.0,0.0,0.0,-2.1582,-2.1658,-2.1853,-2.2282,-2.231,-2.231,-2.231,-2.231,-2.231,-2.2338,-2.3016,-2.3551,-2.391,-2.4604,-2.5083,0.0,0.0,0.0,0.0,-2.515,-2.5311,-2.5311,-2.5311,-2.5768,-2.6429,-2.6429,-2.6429,-2.6321,-2.557,-2.5294,-2.5314,-2.5314,-2.6634,-2.839,-2.9397,-2.957,-2.9474,-2.9643,-2.9713,-2.9731,-2.9731,-2.9731,-2.9748,-2.9748,-2.9748,-2.9815,-2.9984,-2.999,-3.0032,-3.0336,-3.0398,-3.0398,-3.0398,-3.0398,-3.0398,-3.0398,-3.0398,-3.0398,-3.0398,-3.0398,-3.0398,-3.0398,-3.0405,-3.0393,-3.0398,-3.1948,-3.2891,-3.2891,-3.3718,-3.4218,-3.4295,-3.5064,-3.5493,-3.5493,-3.5493,-3.5872,-3.6622,-3.8354,-3.92,-3.9219,-4.0085,-4.0489,-2.0417,0.0,-2.055,-2.0743,-2.066,-2.0784,0.0,-2.1982,-2.2115,0.0,0.0,-2.3675,-2.3268,-2.3268,-2.3212,-2.2873,-2.2563,-2.2101,0.0,0.0,0.0,0.0,0.0,0.0,0.0,0.0,0.0,0.0,0.0,-2.1213,-2.2077,-2.2135,-2.218,-2.231,-2.231,-2.231,-2.231,-2.231,-2.2398,-2.2599,-2.2771,-2.3177,-2.3741,-2.3937,-2.4186,0.0,0.0,0.0,-2.4348,-2.4446,-2.4483,-2.4483,-2.4483,-2.4593,-2.4759,-2.4759,-2.4764,-2.4744,-2.454,-2.4493,-2.4476,-2.4487,-2.6681,-2.9368,-2.962,-2.968,-2.9625,-2.9696,-2.9813,-2.992,-2.9867,-3.0042,-3.0247,-3.0247,-3.0247,-3.026,-3.0299,-3.0292,-3.0323,-3.0379,-3.0398,-3.0398,-3.0398,-3.0398,-3.0398,-3.0398,-3.0398,-3.0398,-3.0398,-3.0398,-3.0398,-3.0398,-3.0398,-3.0405,-3.0393,-3.1936,-3.2891,-3.2891,-3.3718,-3.4507,-3.518,-3.5391,-3.5493,-3.5493,-3.5493,-3.5589,-3.5795,-3.7488,-3.8315,-3.8334,-3.9796,-4.0489,-2.0385,-2.0722,-2.1093,-2.1093,-2.1062,-2.1262,-2.2075,0.0,0.0,0.0,0.0,-2.2678,-2.2666,-2.2557,-2.2454,-2.2426,-2.2337,0.0,0.0,0.0,0.0,0.0,0.0,0.0,0.0,0.0,0.0,0.0,0.0,-2.1385,-2.2237,-2.231,-2.231,-2.231,-2.231,-2.231,-2.231,-2.2426,-2.2563,-2.2695,-2.2873,-2.3189,-2.3692,-2.3692,-2.3896,0.0,0.0,0.0,-2.419,-2.419,-2.419,-2.419,-2.419,-2.421,-2.421,-2.421,-2.4202,-2.4233,-2.4417,-2.4479,-2.4473,-2.4483,-2.5825,-2.7628,-2.8568,-2.941,-3.0028,-3.0013,-3.0103,-3.0184,-3.0132,-3.0266,-3.0402,-3.041,-3.0398,-3.0398,-3.0398,-3.0398,-3.0398,-3.0398,-3.0398,-3.0398,-3.0398,-3.0398,-3.0398,-3.0398,-3.0398,-3.0398,-3.0398,-3.0398,-3.0398,-3.0398,-3.0398,-3.0398,-3.0412,-3.1936,-3.3026,-3.3308,-3.35,-3.3987,-3.4872,-3.4911,-3.5084,-3.5474,-3.5493,-3.5493,-3.5493,-3.6776,-3.7603,-3.8027,-3.9335,-4.0142,-2.0342,-2.1111,-2.1833,-2.1596,-2.1575,-2.1746,-2.2306,0.0,0.0,0.0,0.0,0.0,0.0,0.0,0.0,0.0,0.0,0.0,0.0,0.0,0.0,0.0,0.0,0.0,0.0,0.0,0.0,0.0,0.0,-2.1462,-2.2254,-2.231,-2.231,-2.231,-2.2349,-2.236,-2.236,-2.2573,-2.2746,-2.2873,-2.3141,-2.3437,-2.3774,-2.3774,-2.3917,0.0,0.0,0.0,-2.419,-2.4191,-2.421,-2.4192,-2.4192,-2.419,-2.4211,-2.4323,-2.4373,-2.4422,-2.4761,-2.4888,-2.4883,-2.4873,-2.4879,-2.5201,-2.6982,-2.8489,-2.9619,-2.9616,-2.9809,-3.0078,-3.0321,-3.0398,-3.0406,-3.0402,-3.041,-3.0398,-3.0398,-3.0398,-3.0398,-3.0398,-3.0398,-3.0398,-3.0398,-3.0398,-3.0398,-3.0398,-3.0398,-3.0398,-3.0398,-3.0398,-3.0398,-3.0398,-3.0398,-3.0386,-3.04,-3.2167,-3.3532,-3.4032,-3.3577,-3.3622,-3.4372,-3.4391,-3.4757,-3.5488,-3.5493,-3.5493,-3.5493,-3.6315,-3.7084,-3.7815,-3.87,-3.9527,-2.0865,-2.1655,-2.1985,-2.0628,-2.0734,-2.1048,-2.0477,0.0,0.0,0.0,0.0,0.0,0.0,0.0,0.0,0.0,0.0,0.0,0.0,0.0,0.0,0.0,0.0,0.0,0.0,0.0,0.0,0.0,0.0,-2.1735,-2.2282,-2.231,-2.231,-2.231,-2.2527,-2.2634,-2.2634,-2.2669,-2.2996,-2.3544,-2.3588,-2.3795,-2.4113,-2.4113,-2.4151,0.0,0.0,-2.419,-2.4209,-2.4208,-2.4204,-2.4202,-2.4195,-2.4197,-2.4283,-2.4892,-2.5115,-2.5151,-2.5209,-2.5222,-2.5233,-2.5224,-2.5215,-2.5292,-2.5599,-2.5878,-2.6081,-2.6071,-2.7149,-2.8604,-3.0023,-3.0409,-3.0398,-3.0406,-3.0402,-3.0398,-3.0398,-3.0398,-3.0398,-3.0398,-3.0398,-3.0398,-3.0398,-3.0398,-3.0398,-3.0398,-3.0398,-3.0398,-3.0398,-3.0398,-3.0398,-3.0398,-3.0398,-3.0405,-3.0394,-3.3282,-3.5142,-3.522,-3.5155,-3.5161,-3.5295,-3.5315,-3.5372,-3.5507,-3.5493,-3.5493,-3.5493,-3.6315,-3.6776,-3.693,-3.7796,-3.8661,-2.0038,-2.0591,-2.0903,-2.0056,-2.0984,-2.1924,-2.1115,0.0,0.0,0.0,0.0,0.0,0.0,0.0,0.0,0.0,0.0,0.0,0.0,0.0,0.0,0.0,0.0,0.0,0.0,0.0,0.0,0.0,0.0,0.0,-2.2265,-2.231,-2.231,-2.231,-2.2417,-2.259,-2.2807,-2.2923,-2.3191,-2.3602,-2.384,-2.4054,-2.419,-2.419,-2.419,-2.419,0.0,-2.419,-2.4209,-2.4192,-2.4429,-2.4806,-2.4794,-2.4794,-2.4841,-2.5189,-2.5298,-2.5308,-2.5302,-2.5303,-2.5303,-2.5303,-2.5303,-2.5303,-2.5293,-2.5312,-2.5312,-2.5312,-2.5889,-2.6668,-2.7439,-2.7651,-2.8112,-2.9965,-3.0398,-3.0406,-3.0394,-3.0394,-3.0402,-3.041,-3.0398,-3.0398,-3.0398,-3.0398,-3.0398,-3.0398,-3.0398,-3.0398,-3.0398,-3.0398,-3.0398,-3.0398,-3.0398,-3.0405,-3.0388,-3.3537,-3.5502,-3.5496,-3.5509,-3.5213,-3.4622,-3.5166,-3.5493,-3.5493,-3.5493,-3.5493,-3.5493,-3.5872,-3.6276,-3.6719,-3.7123,-3.7757,-1.9104,-1.9417,-1.9676,-1.9524,0.0,-2.2005,-2.1531,0.0,0.0,0.0,0.0,0.0,0.0,0.0,0.0,0.0,0.0,0.0,0.0,0.0,0.0,0.0,0.0,0.0,0.0,0.0,0.0,0.0,0.0,0.0,-2.2265,-2.2141,-2.2118,-2.2303,-2.2375,-2.2625,-2.297,-2.3282,-2.3521,-2.3668,-2.4037,-2.419,-2.419,-2.419,-2.419,-2.419,-2.4192,-2.4192,-2.4211,-2.4209,-2.453,-2.5064,-2.5239,-2.5294,-2.5291,-2.5292,-2.5303,-2.5303,-2.5303,-2.5303,-2.5303,-2.5303,-2.5303,-2.5303,-2.5303,-2.5303,-2.5303,-2.5303,-2.5293,-2.5302,-2.5302,-2.5292,-2.5955,-2.8576,-2.9203,-2.9212,-2.922,-2.9828,-3.0406,-3.0402,-3.041,-3.0398,-3.0398,-3.0398,-3.0398,-3.0398,-3.0398,-3.0398,-3.0398,-3.0398,-3.0398,-3.0398,-3.0398,-3.0398,-3.0393,-3.28,-3.432,-3.4315,-3.5066,-3.511,-3.4237,-3.5032,-3.5493,-3.5493,-3.5493,-3.5493,-3.5493,-3.5493,-3.5834,-3.643,-3.643,-3.6892,-1.8714,-1.8847,-1.8876,-1.8853,0.0,0.0,-2.0206,-1.948,0.0,0.0,0.0,0.0,0.0,0.0,0.0,0.0,0.0,0.0,0.0,0.0,0.0,0.0,0.0,0.0,0.0,0.0,0.0,0.0,0.0,0.0,-2.2276,-2.1651,-2.1581,-2.2272,-2.266,-2.2975,-2.3171,-2.3812,-2.4152,-2.4152,-2.419,-2.419,-2.419,-2.419,-2.419,-2.4209,-2.419,-2.4184,-2.4199,-2.419,-2.4239,-2.434,-2.5037,-2.5292,-2.5293,-2.5303,-2.5303,-2.5303,-2.5303,-2.5303,-2.5303,-2.5303,-2.5303,-2.5303,-2.5303,-2.5303,-2.5303,-2.5303,-2.5303,-2.5303,-2.5303,-2.5302,-2.5369,-2.5609,-2.5666,-2.5663,-2.5663,-2.8148,-3.0398,-3.0398,-3.0402,-3.0398,-3.0398,-3.0398,-3.0398,-3.0398,-3.0398,-3.0398,-3.0398,-3.0398,-3.0398,-3.0398,-3.0398,-3.0398,-3.0398,-3.0631,-3.0772,-3.0772,-3.3737,-3.5457,-3.5391,-3.5468,-3.5493,-3.5493,-3.5493,-3.5493,-3.5493,-3.5493,-3.5532,-3.5603,-3.5603,-3.6026,-1.6891,-1.6717,-1.6629,-1.6863,0.0,0.0,0.0,0.0,0.0,0.0,0.0,0.0,0.0,0.0,0.0,0.0,0.0,0.0,0.0,0.0,0.0,0.0,0.0,0.0,0.0,0.0,0.0,0.0,0.0,0.0,0.0,-2.0926,-2.1083,-2.1354,-2.2123,-2.2563,-2.2638,-2.3672,-2.421,-2.419,-2.419,-2.419,-2.419,-2.419,-2.419,-2.4209,-2.4189,-2.4458,-2.4879,-2.4879,-2.4873,-2.4908,-2.5194,-2.5303,-2.5303,-2.5303,-2.5303,-2.5303,-2.5303,-2.5303,-2.5303,-2.5303,-2.5303,-2.5303,-2.5303,-2.5303,-2.5303,-2.5303,-2.5303,-2.5303,-2.5303,-2.5303,-2.5293,-2.5293,-2.5302,-2.5292,-2.5301,-2.6329,-2.786,-2.9982,-3.0402,-3.0398,-3.0398,-3.0398,-3.0398,-3.0398,-3.0398,-3.0398,-3.0398,-3.0398,-3.0398,-3.0398,-3.0398,-3.0398,-3.0398,-3.0393,-3.1309,-3.3448,-3.4777,-3.5495,-3.5507,-3.5493,-3.5493,-3.5493,-3.5493,-3.5493,-3.5493,-3.5493,-3.5493,-3.5493,-3.5493,-3.5661,-1.5373,-1.5186,-1.5204,0.0,0.0,0.0,0.0,0.0,0.0,0.0,0.0,0.0,0.0,0.0,0.0,0.0,0.0,0.0,0.0,0.0,0.0,0.0,0.0,0.0,0.0,0.0,0.0,0.0,0.0,0.0,0.0,-2.0308,-2.0627,-2.1256,-2.1931,-2.2002,-2.1363,-2.3254,-2.4192,-2.4192,-2.4192,-2.4192,-2.4192,-2.4191,-2.4208,-2.4207,-2.4204,-2.4629,-2.5292,-2.5294,-2.5291,-2.5302,-2.5292,-2.5303,-2.5303,-2.5303,-2.5303,-2.5303,-2.5303,-2.5303,-2.5303,-2.5303,-2.5303,-2.5303,-2.5303,-2.5303,-2.5303,-2.5303,-2.5303,-2.5303,-2.5303,-2.5303,-2.5303,-2.5303,-2.5303,-2.5303,-2.5302,-2.529,-2.6299,-2.9732,-3.0406,-3.0402,-3.041,-3.039,-3.039,-3.041,-3.0398,-3.0398,-3.0398,-3.0398,-3.0398,-3.0398,-3.0398,-3.0398,-3.0398,-3.0405,-3.1852,-3.527,-3.4982,-3.4924,-3.5482,-3.5507,-3.5493,-3.5493,-3.5493,-3.5493,-3.5493,-3.5493,-3.5493,-3.5493,-3.5493,-3.5493,-1.4469,-1.4543,-1.4984,0.0,0.0,0.0,0.0,0.0,0.0,0.0,0.0,0.0,0.0,0.0,0.0,0.0,0.0,0.0,0.0,0.0,0.0,0.0,0.0,0.0,0.0,0.0,0.0,0.0,0.0,0.0,0.0,-1.9836,-2.0217,-2.2203,-2.2277,-2.1315,-1.9324,-2.2533,-2.4149,-2.4149,-2.4137,-2.4172,-2.4199,-2.42,-2.4214,-2.4209,-2.4214,-2.4624,-2.5302,-2.529,-2.5303,-2.5303,-2.5303,-2.5303,-2.5303,-2.5303,-2.5303,-2.5303,-2.5303,-2.5303,-2.5303,-2.5303,-2.5303,-2.5303,-2.5303,-2.5303,-2.5303,-2.5303,-2.5303,-2.5303,-2.5303,-2.5303,-2.5303,-2.5303,-2.5303,-2.5303,-2.5303,-2.5311,-2.631,-2.9734,-3.0389,-3.0386,-3.0352,-3.0375,-3.0406,-3.041,-3.0398,-3.0398,-3.0398,-3.0398,-3.0398,-3.0398,-3.0398,-3.0398,-3.0398,-3.0405,-3.1852,-3.5251,-3.3846,-3.3686,-3.5432,-3.5501,-3.5493,-3.5493,-3.5493,-3.5493,-3.5493,-3.5493,-3.5493,-3.5493,-3.5493,-3.5493,-1.286,-1.2719,0.0,0.0,0.0,0.0,0.0,0.0,0.0,0.0,0.0,0.0,0.0,0.0,0.0,0.0,0.0,0.0,0.0,0.0,0.0,0.0,0.0,0.0,0.0,0.0,0.0,0.0,0.0,0.0,0.0,-1.8958,-1.9074,-1.9687,-2.0024,-1.9892,-1.9317,-2.027,-2.0754,-2.0749,-2.076,-2.2243,-2.4963,-2.4972,-2.4969,-2.4969,-2.4975,-2.5106,-2.5302,-2.529,-2.5303,-2.5303,-2.5303,-2.5303,-2.5303,-2.5303,-2.5303,-2.5303,-2.5303,-2.5303,-2.5303,-2.5303,-2.5303,-2.5303,-2.5303,-2.5303,-2.5303,-2.5303,-2.5303,-2.5303,-2.5303,-2.5303,-2.5303,-2.5303,-2.5303,-2.5303,-2.5303,-2.5293,-2.6303,-2.9745,-3.0386,-2.964,-2.722,-2.881,-3.039,-3.041,-3.0398,-3.0398,-3.0398,-3.0398,-3.0398,-3.0398,-3.0398,-3.0398,-3.0398,-3.0398,-3.0833,-3.1857,-3.3916,-3.5204,-3.5482,-3.5545,-3.5584,-3.5584,-3.5622,-3.5641,-3.5641,-3.5641,-3.5641,-3.5641,-3.5641,-3.5641,-1.2554,0.0,0.0,0.0,0.0,0.0,0.0,0.0,0.0,0.0,0.0,0.0,0.0,0.0,0.0,0.0,0.0,0.0,0.0,0.0,0.0,0.0,0.0,0.0,0.0,0.0,0.0,0.0,0.0,0.0,0.0,-1.8396,-1.8463,-1.8885,-1.9161,-1.9291,-1.9305,-1.9309,-1.9433,-1.9704,-1.9698,-2.097,-2.3356,-2.4696,-2.531,-2.5298,-2.5287,-2.5294,-2.5294,-2.5292,-2.5303,-2.5303,-2.5303,-2.5303,-2.5303,-2.5303,-2.5303,-2.5303,-2.5303,-2.5303,-2.5303,-2.5303,-2.5303,-2.5303,-2.5303,-2.5303,-2.5303,-2.5303,-2.5303,-2.5303,-2.5303,-2.5303,-2.5303,-2.5303,-2.5303,-2.5322,-2.5447,-2.5457,-2.6072,-2.8123,-2.8521,-2.8318,-2.7632,-2.9224,-3.0597,-3.0598,-3.0598,-3.0598,-3.0598,-3.0598,-3.0598,-3.0598,-3.0598,-3.0598,-3.0598,-3.0598,-3.0607,-3.0614,-3.3292,-3.5133,-3.5682,-3.5655,-3.565,-3.5646,-3.5684,-3.5704,-3.5704,-3.5704,-3.5704,-3.5704,-3.5704,-3.5704,-1.29,0.0,0.0,0.0,0.0,0.0,0.0,0.0,0.0,0.0,0.0,0.0,0.0,0.0,0.0,0.0,0.0,0.0,0.0,0.0,0.0,0.0,0.0,0.0,0.0,0.0,0.0,0.0,0.0,0.0,0.0,-1.8199,-1.8368,-1.9271,-1.93,-1.9327,-1.9383,-1.9394,-1.9688,0.0,-2.0304,-2.0307,-2.0402,-2.3775,-2.5303,-2.5293,-2.5303,-2.5303,-2.5303,-2.5303,-2.5303,-2.5303,-2.5303,-2.5303,-2.5303,-2.5303,-2.5303,-2.5303,-2.5303,-2.5303,-2.5303,-2.5303,-2.5303,-2.5293,-2.5332,-2.5322,-2.5303,-2.5303,-2.5303,-2.5313,-2.5332,-2.5341,-2.5341,-2.5341,-2.5322,-2.537,-2.5601,-2.5658,-2.5667,-2.5698,-2.5703,-2.6801,-3.0292,-3.0896,-3.0906,-3.09,-3.0898,-3.0905,-3.0895,-3.09,-3.09,-3.09,-3.09,-3.09,-3.09,-3.09,-3.0892,-3.0895,-3.2509,-3.4183,-3.5778,-3.5766,-3.5705,-3.5714,-3.571,-3.5729,-3.5729,-3.5729,-3.5729,-3.5729,-3.5729,-3.5729,0.0,-1.1579,0.0,0.0,0.0,0.0,0.0,0.0,0.0,0.0,0.0,0.0,0.0,0.0,0.0,0.0,0.0,0.0,0.0,0.0,0.0,0.0,0.0,0.0,0.0,0.0,0.0,0.0,0.0,0.0,-1.9111,-1.9034,-1.9081,-1.9289,-1.93,-1.9545,-2.0084,-2.0074,-2.0164,0.0,-2.0296,-2.0293,-2.041,-2.3762,-2.5292,-2.5303,-2.5303,-2.5303,-2.5303,-2.5303,-2.5303,-2.5303,-2.5303,-2.5303,-2.5303,-2.5303,-2.5303,-2.5303,-2.5303,-2.5303,-2.5303,-2.5303,-2.5303,-2.5341,-2.5557,-2.548,-2.5303,-2.5303,-2.5303,-2.5351,-2.5564,-2.5601,-2.5601,-2.5601,-2.5445,-2.5322,-2.537,-2.5399,-2.5451,-2.5658,-2.5691,-2.681,-3.0307,-3.0894,-3.0895,-3.0894,-3.0912,-3.0901,-3.0903,-3.0892,-3.0892,-3.0892,-3.0892,-3.0892,-3.0892,-3.0892,-3.0909,-3.0897,-3.3721,-3.5183,-3.4683,-3.5379,-3.5778,-3.5777,-3.588,-3.593,-3.593,-3.593,-3.593,-3.593,-3.593,-3.593,0.0,0.0,0.0,0.0,0.0,0.0,0.0,0.0,0.0,0.0,0.0,0.0,0.0,0.0,0.0,0.0,0.0,0.0,0.0,0.0,0.0,0.0,0.0,0.0,0.0,0.0,0.0,0.0,0.0,-1.8035,-1.8542,-1.9032,-1.9313,-1.9313,-1.9314,-1.9616,-2.0285,-2.0298,-2.0305,-2.0295,-2.0307,-2.0304,-2.0365,-2.212,-2.3773,-2.5293,-2.5303,-2.5303,-2.5303,-2.5303,-2.5378,-2.5495,-2.5495,-2.5495,-2.5495,-2.5495,-2.5495,-2.5495,-2.5495,-2.5495,-2.5495,-2.5495,-2.5481,-2.5514,-2.5665,-2.56,-2.5482,-2.5485,-2.55,-2.5515,-2.5662,-2.5692,-2.5707,-2.5707,-2.5589,-2.5495,-2.5495,-2.5492,-2.5522,-2.5662,-2.5703,-2.6816,-3.0293,-3.0898,-3.0898,-3.0898,-3.0895,-3.0901,-3.0897,-3.0898,-3.0898,-3.0898,-3.0898,-3.0898,-3.0898,-3.0898,-3.0898,-3.0898,-3.2567,-3.3658,-3.3867,-3.4135,-3.4788,-3.5864,-3.596,-3.5996,-3.5996,-3.5996,-3.5996,-3.5996,-3.5996,-3.5996,0.0,0.0,0.0,0.0,0.0,0.0,0.0,0.0,0.0,0.0,0.0,0.0,0.0,0.0,0.0,0.0,0.0,0.0,0.0,0.0,0.0,0.0,0.0,0.0,0.0,0.0,0.0,0.0,0.0,-1.8052,-1.8049,-1.8838,-1.9359,-1.9473,-1.9468,-1.9726,-2.0289,-2.0301,-2.0312,-2.0312,-2.0312,-2.0312,-2.0304,-2.031,-2.1805,-2.4475,-2.51,-2.536,-2.5369,-2.5361,-2.5506,-2.5696,-2.5702,-2.5699,-2.5699,-2.5699,-2.5699,-2.5699,-2.5699,-2.5699,-2.5699,-2.5699,-2.5698,-2.5701,-2.5707,-2.5705,-2.5702,-2.5701,-2.5692,-2.5708,-2.5708,-2.5692,-2.5699,-2.5699,-2.5699,-2.5699,-2.5699,-2.5706,-2.5708,-2.5708,-2.5707,-2.6816,-3.0293,-3.0391,-3.0,-3.0,-3.0508,-3.0898,-3.0898,-3.0898,-3.0898,-3.0898,-3.0898,-3.0898,-3.0898,-3.0898,-3.0898,-3.0898,-3.1035,-3.1758,-3.3144,-3.2891,-3.3633,-3.5508,-3.5547,-3.5547,-3.5547,-3.5547,-3.5547,-3.5547,-3.5703,-3.5781,0.0,0.0,0.0,0.0,0.0,0.0,0.0,0.0,0.0,0.0,0.0,0.0,0.0,0.0,0.0,0.0,0.0,0.0,0.0,0.0,0.0,0.0,0.0,0.0,0.0,0.0,0.0,0.0,-1.9136,-1.9103,-1.9101,-1.923,-1.9556,-2.0156,-2.0171,-2.0213,-2.0289,-2.0301,-2.0312,-2.0312,-2.0312,-2.0312,-2.0312,-2.0304,-2.0537,-2.1135,-2.4282,-2.5654,-2.5651,-2.5655,-2.5669,-2.5693,-2.571,-2.5702,-2.5702,-2.5702,-2.5702,-2.5702,-2.5702,-2.5702,-2.5702,-2.5702,-2.5699,-2.5697,-2.5701,-2.5703,-2.5703,-2.5702,-2.5699,-2.5696,-2.5696,-2.5699,-2.5702,-2.5702,-2.5702,-2.5702,-2.5702,-2.5699,-2.5696,-2.5696,-2.5702,-2.6816,-3.0293,-2.8398,-2.6387,-2.6387,-2.8965,-3.0898,-3.0898,-3.0898,-3.0898,-3.0898,-3.0898,-3.0898,-3.0898,-3.0898,-3.0898,-3.0898,-3.1601,-3.2129,-3.2344,-3.2969,-3.3437,-3.373,-3.375,-3.375,-3.375,-3.375,-3.375,-3.3769,-3.4512,-3.4863,-0.9578,0.0,0.0,0.0,0.0,0.0,0.0,0.0,0.0,0.0,0.0,0.0,0.0,0.0,0.0,0.0,0.0,0.0,0.0,0.0,0.0,0.0,0.0,0.0,0.0,0.0,0.0,0.0,-1.9311,-1.93,-1.9289,-1.9673,-1.999,-2.0294,-2.0298,-2.0304,-2.0304,-2.0307,-2.0312,-2.0312,-2.0418,-2.046,-2.046,-2.046,-2.0405,-2.0384,-2.209,-2.3921,-2.5703,-2.5707,-2.5706,-2.5695,-2.5698,-2.5703,-2.5703,-2.5703,-2.5703,-2.5703,-2.5703,-2.5703,-2.5703,-2.5703,-2.5703,-2.5703,-2.5703,-2.5703,-2.5703,-2.5703,-2.5703,-2.5703,-2.5703,-2.5703,-2.5703,-2.5703,-2.5703,-2.5703,-2.5703,-2.5703,-2.5703,-2.5703,-2.5703,-2.6191,-2.7715,-2.6719,-2.5703,-2.5703,-2.8672,-3.0898,-3.0898,-3.0898,-3.0898,-3.0898,-3.0898,-3.0898,-3.0898,-3.0898,-3.0898,-3.0898,-3.1269,-3.1465,-3.1465,-3.1816,-3.1992,-3.1992,-3.293,-3.3398,-3.3398,-3.3398,-3.3398,-3.3418,-3.3789,-3.3965,0.0,0.0,0.0,0.0,0.0,0.0,0.0,0.0,0.0,0.0,0.0,0.0,0.0,0.0,0.0,0.0,0.0,0.0,0.0,0.0,0.0,0.0,0.0,0.0,0.0,0.0,0.0,0.0,-1.9552,-1.9545,-1.9541,-2.0029,-2.0289,-2.0288,-2.0291,-2.0312,-2.0312,-2.0337,-2.0383,-2.0389,-2.0526,-2.0599,-2.0605,-2.0605,-2.0515,-2.0389,-2.0523,-2.2547,-2.5703,-2.5703,-2.5703,-2.5703,-2.5703,-2.5703,-2.5703,-2.5703,-2.5703,-2.5703,-2.5703,-2.5703,-2.5703,-2.5703,-2.5703,-2.5703,-2.5703,-2.5703,-2.5703,-2.5703,-2.5703,-2.5703,-2.5703,-2.5703,-2.5703,-2.5703,-2.5703,-2.5703,-2.5703,-2.5703,-2.5703,-2.5703,-2.5703,-2.5703,-2.5703,-2.5703,-2.5703,-2.5703,-2.8672,-3.0898,-3.0898,-3.0898,-3.0898,-3.0898,-3.0898,-3.0898,-3.0898,-3.0898,-3.0898,-3.0898,-3.0898,-3.0898,-3.0898,-3.0898,-3.0898,-3.0898,-3.2129,-3.2754,-3.2754,-3.2754,-3.2754,-3.2773,-3.2988,-3.3105,0.0,0.0,0.0,0.0,0.0,0.0,0.0,0.0,0.0,0.0,0.0,0.0,0.0,0.0,0.0,0.0,0.0,0.0,0.0,0.0,0.0,0.0,0.0,0.0,0.0,0.0,0.0,0.0,-2.0259,-2.0259,-2.025,-2.0288,-2.0299,-2.0296,-2.0304,-2.0312,-2.0312,-2.0496,-2.0574,-2.0589,-2.0597,-2.0598,-2.0605,-2.0605,-2.0598,-2.0589,-2.0608,-2.2547,-2.5703,-2.5703,-2.5703,-2.5703,-2.5703,-2.5703,-2.5703,-2.5703,-2.5703,-2.5703,-2.5703,-2.5703,-2.5703,-2.5703,-2.5703,-2.5703,-2.5703,-2.5703,-2.5703,-2.5703,-2.5703,-2.5703,-2.5703,-2.5703,-2.5703,-2.5703,-2.5703,-2.5703,-2.5703,-2.5703,-2.5703,-2.5703,-2.5703,-2.5703,-2.5703,-2.5703,-2.5703,-2.5703,-2.8672,-3.0898,-3.0898,-3.0898,-3.0898,-3.0898,-3.0898,-3.0898,-3.0898,-3.0898,-3.0898,-3.0898,-3.0898,-3.0898,-3.0898,-3.0898,-3.0898,-3.0898,-3.0996,-3.1035,-3.1035,-3.1035,-3.1035,-3.1055,-3.1875,-3.2266,0.0,0.0,0.0,0.0,0.0,0.0,0.0,0.0,0.0,0.0,0.0,0.0,0.0,0.0,0.0,0.0,0.0,0.0,0.0,0.0,0.0,0.0,0.0,0.0,0.0,0.0,0.0,0.0,0.0,-2.0287,-2.0293,-2.0304,-2.0366,-2.0496,-2.0501,-2.0488,-2.0485,-2.0559,-2.0604,-2.0603,-2.0603,-2.0597,-2.0596,-2.0596,-2.0605,-2.0603,-2.0603,-2.2545,-2.5703,-2.5703,-2.5703,-2.5703,-2.5703,-2.5703,-2.5703,-2.5703,-2.5703,-2.5703,-2.5703,-2.5703,-2.5703,-2.5703,-2.5703,-2.5703,-2.5703,-2.5703,-2.5703,-2.5703,-2.5703,-2.5703,-2.5703,-2.5703,-2.5703,-2.5703,-2.5703,-2.5703,-2.5703,-2.5703,-2.5703,-2.5703,-2.5703,-2.5703,-2.5703,-2.5703,-2.5703,-2.5703,-2.6758,-2.8379,-3.0605,-3.0898,-3.0898,-3.0898,-3.0898,-3.0898,-3.0898,-3.0898,-3.0898,-3.0898,-3.0898,-3.0898,-3.0898,-3.0898,-3.0898,-3.0898,-3.0898,-3.0898,-3.0898,-3.0898,-3.0898,-3.0918,-3.1211,-3.1367,0.0,0.0,0.0,0.0,0.0,0.0,0.0,0.0,0.0,0.0,0.0,0.0,0.0,0.0,0.0,0.0,0.0,0.0,0.0,0.0,0.0,0.0,0.0,0.0,0.0,0.0,0.0,0.0,0.0,0.0,-2.0405,-2.0407,-2.0463,-2.0606,-2.0589,-2.0604,-2.0604,-2.0604,-2.0604,-2.0605,-2.0605,-2.0605,-2.0605,-2.0607,-2.0603,-2.0591,-2.0603,-2.2535,-2.5703,-2.5703,-2.5696,-2.5704,-2.57,-2.5703,-2.5703,-2.5703,-2.5703,-2.5703,-2.5703,-2.5703,-2.5703,-2.5703,-2.5703,-2.5703,-2.5703,-2.5703,-2.5703,-2.5703,-2.5703,-2.5703,-2.5703,-2.5703,-2.5703,-2.5703,-2.5703,-2.5703,-2.5703,-2.5703,-2.5703,-2.5703,-2.5703,-2.5703,-2.5703,-2.5703,-2.5703,-2.5703,-2.5703,-2.6953,-3.0449,-3.0898,-3.0898,-3.0898,-3.0898,-3.0898,-3.0898,-3.0898,-3.0898,-3.0898,-3.0898,-3.0898,-3.0898,-3.0898,-3.0898,-3.0898,-3.0898,-3.0898,-3.0898,-3.0898,-3.0898,-3.0898,-3.0898,-3.0898,0.0,0.0,0.0,0.0,0.0,0.0,0.0,0.0,0.0,0.0,0.0,0.0,0.0,0.0,0.0,0.0,0.0,0.0,0.0,0.0,0.0,0.0,0.0,0.0,0.0,0.0,0.0,0.0,-2.0482,-2.0609,-2.0609,-2.0605,-2.0598,-2.0605,-2.0605,-2.0605,-2.0605,-2.0605,-2.0605,-2.0605,-2.0605,-2.0605,-2.0605,-2.0593,-2.0598,-2.0595,-2.0695,-2.263,-2.5683,-2.5703,-2.5699,-2.5706,-2.5693,-2.5683,-2.5703,-2.5703,-2.5703,-2.5703,-2.5703,-2.5703,-2.5703,-2.5703,-2.5703,-2.5703,-2.5703,-2.5703,-2.5703,-2.5703,-2.5703,-2.5703,-2.5703,-2.5703,-2.5703,-2.5703,-2.5703,-2.5703,-2.5703,-2.5703,-2.5703,-2.5703,-2.5703,-2.5703,-2.5703,-2.5703,-2.5703,-2.5703,-2.5703,-2.6953,-3.0449,-3.0898,-3.0898,-3.0898,-3.0898,-3.0898,-3.0898,-3.0898,-3.0898,-3.0898,-3.0898,-3.0898,-3.0898,-3.0898,-3.0898,-3.0898,-3.0898,-3.0898,-3.0898,-3.0898,-3.0898,-3.0898,-3.0898,-3.0898,-0.9281,0.0,0.0,0.0,0.0,0.0,0.0,0.0,0.0,0.0,0.0,0.0,0.0,0.0,0.0,0.0,0.0,0.0,0.0,0.0,0.0,0.0,0.0,0.0,0.0,0.0,0.0,0.0,-2.0575,-2.0599,-2.0599,-2.0609,-2.0594,-2.0605,-2.0605,-2.0607,-2.0601,-2.0596,-2.0609,-2.0603,-2.0603,-2.0603,-2.0603,-2.0608,-2.0521,-2.0521,-2.2962,-2.454,-2.5427,-2.5619,-2.5697,-2.568,-2.5492,-2.5535,-2.5694,-2.5694,-2.5707,-2.5703,-2.5703,-2.5703,-2.5703,-2.5703,-2.5703,-2.5703,-2.5703,-2.5703,-2.5703,-2.5703,-2.5703,-2.5703,-2.5703,-2.5703,-2.5703,-2.5703,-2.5703,-2.5703,-2.5703,-2.5703,-2.5703,-2.5703,-2.5703,-2.5703,-2.5703,-2.5703,-2.5703,-2.5703,-2.5703,-2.6953,-3.0449,-3.0898,-3.0898,-3.0898,-3.0898,-3.0898,-3.0898,-3.0898,-3.0898,-3.0898,-3.0898,-3.0898,-3.0898,-3.0898,-3.0898,-3.0898,-3.0898,-3.0898,-3.0898,-3.0898,-3.0898,-3.0898,-3.0898,-3.0898,0.0,0.0,0.0,0.0,0.0,0.0,0.0,-1.1585,0.0,0.0,0.0,0.0,0.0,0.0,0.0,0.0,0.0,0.0,0.0,0.0,0.0,0.0,0.0,0.0,0.0,-2.0511,-2.0471,-2.0471,-2.0471,-2.0506,-2.0591,-2.0591,-2.0591,-2.0591,-2.0591,-2.0594,-2.0605,-2.053,-2.0467,-2.0466,-2.0466,-2.0466,-2.0466,-2.0466,-2.0412,-2.0403,-2.2373,-2.4005,-2.5322,-2.5461,-2.5531,-2.5517,-2.5369,-2.5395,-2.5531,-2.5531,-2.5529,-2.5543,-2.5659,-2.5707,-2.5707,-2.5707,-2.5707,-2.5707,-2.5707,-2.5707,-2.5707,-2.5707,-2.5707,-2.5707,-2.5707,-2.5707,-2.5707,-2.5707,-2.5707,-2.5707,-2.5707,-2.5707,-2.5693,-2.5703,-2.5703,-2.5703,-2.5703,-2.5703,-2.5703,-2.5703,-2.5703,-2.6953,-3.0449,-2.9629,-2.9297,-3.0742,-3.0898,-3.0898,-3.0898,-3.0898,-3.0742,-3.0371,-3.0703,-3.0742,-3.0371,-3.0703,-3.0898,-3.0898,-3.0898,-3.0898,-3.0898,-3.0898,-3.0898,-3.0898,-3.0898,-3.0898,0.0,0.0,0.0,0.0,0.0,0.0,-1.1268,-1.1915,-1.251,0.0,0.0,0.0,0.0,0.0,0.0,0.0,0.0,0.0,0.0,0.0,0.0,0.0,0.0,0.0,-2.0577,-2.0398,-2.0307,-2.0296,-2.0307,-2.0371,-2.056,-2.0569,-2.0569,-2.0569,-2.0569,-2.0569,-2.0569,-2.0398,-2.0312,-2.0312,-2.0312,-2.0312,-2.0312,-2.0304,-2.0307,-2.0293,-2.0295,-2.22,-2.5293,-2.5303,-2.5303,-2.5303,-2.5303,-2.5303,-2.5303,-2.5303,-2.5303,-2.5322,-2.5577,-2.5662,-2.5662,-2.5662,-2.5662,-2.5662,-2.5662,-2.5662,-2.5662,-2.5662,-2.5662,-2.5662,-2.5662,-2.5662,-2.5662,-2.5662,-2.5662,-2.5662,-2.5662,-2.5662,-2.5658,-2.5654,-2.5683,-2.5703,-2.5703,-2.5703,-2.5703,-2.5703,-2.5703,-2.6816,-2.9922,-2.7617,-2.6894,-2.998,-3.0664,-3.0898,-3.0898,-3.0898,-3.0566,-2.9785,-3.0293,-3.0351,-2.9766,-3.0488,-3.0898,-3.0898,-3.0898,-3.0898,-3.0898,-3.0898,-3.0898,-3.0898,-3.0898,-3.0898,-1.1769,-1.1915,-1.1984,-1.1351,0.0,0.0,-1.1656,-1.2136,-1.2682,0.0,0.0,0.0,0.0,0.0,0.0,0.0,0.0,0.0,0.0,0.0,0.0,0.0,0.0,0.0,-2.0352,-2.0314,-2.0308,-2.0298,-2.0289,-2.0326,-2.0364,-2.0364,-2.0364,-2.0364,-2.0364,-2.0364,-2.0364,-2.0327,-2.0312,-2.0312,-2.0312,-2.0312,-2.0304,-2.0307,-2.0299,-2.0301,-2.0296,-2.221,-2.5293,-2.5303,-2.5303,-2.5303,-2.5303,-2.5303,-2.5303,-2.5303,-2.5303,-2.5313,-2.5369,-2.5378,-2.5378,-2.5378,-2.5378,-2.5378,-2.5378,-2.5378,-2.5378,-2.5378,-2.5378,-2.5378,-2.5378,-2.5378,-2.5378,-2.5378,-2.5378,-2.5378,-2.5378,-2.5378,-2.5376,-2.5379,-2.5551,-2.5703,-2.5703,-2.5703,-2.5703,-2.5703,-2.5703,-2.5957,-2.6621,-2.6113,-2.5957,-2.6641,-2.9238,-3.0898,-3.0898,-3.0898,-3.082,-3.0664,-2.9492,-2.9355,-3.0605,-3.0801,-3.0898,-3.0898,-3.0898,-3.0898,-3.0898,-3.0898,-3.0898,-3.0898,-3.0898,-3.0898,-1.2503,-1.2617,-1.27,-1.227,0.0,0.0,0.0,-1.2223,-1.2519,-1.2775,0.0,0.0,0.0,0.0,0.0,0.0,0.0,0.0,0.0,0.0,0.0,0.0,0.0,0.0,-2.0295,-2.0307,-2.0156,-1.9825,-1.9804,-1.9806,-1.9793,-2.0117,-2.0298,-2.0298,-2.0298,-2.0298,-2.0298,-2.0298,-2.0298,-2.0298,-2.0307,-2.0295,-2.0295,-2.0301,-2.1207,-2.2789,-2.2784,-2.3755,-2.5293,-2.5303,-2.5303,-2.5303,-2.5303,-2.5303,-2.5303,-2.5303,-2.5303,-2.5303,-2.5303,-2.5303,-2.5303,-2.5303,-2.5303,-2.5303,-2.5303,-2.5303,-2.5303,-2.5303,-2.5303,-2.5303,-2.5303,-2.5303,-2.5303,-2.5303,-2.5303,-2.5303,-2.5303,-2.5303,-2.5303,-2.5303,-2.5413,-2.5546,-2.5673,-2.5698,-2.5698,-2.5698,-2.5698,-2.5709,-2.5703,-2.5703,-2.5703,-2.5703,-2.7266,-2.8301,-2.8301,-2.9902,-3.0898,-3.0898,-3.0078,-2.9609,-2.9609,-3.0449,-3.0898,-3.0898,-3.0898,-3.0898,-3.0898,-3.0898,-3.0898,-3.0898,-3.0898,-3.0898,0.0,0.0,0.0,0.0,0.0,-1.2691,0.0,0.0,0.0,-1.2767,0.0,0.0,0.0,0.0,0.0,0.0,0.0,0.0,0.0,0.0,0.0,0.0,0.0,0.0,0.0,-2.0123,-1.9882,-1.9345,-1.9295,-1.9289,-1.9294,-1.98,-2.0099,-2.0115,-2.0115,-2.0115,-2.0115,-2.0104,-2.0104,-2.0115,-2.0101,-2.0172,-2.0297,-2.0288,-2.2132,-2.5292,-2.5293,-2.5312,-2.5303,-2.5293,-2.5293,-2.5292,-2.5293,-2.5303,-2.5303,-2.5303,-2.5303,-2.5303,-2.5303,-2.5303,-2.5303,-2.5303,-2.5303,-2.5303,-2.5303,-2.5303,-2.5303,-2.5303,-2.5303,-2.5303,-2.5303,-2.5303,-2.5303,-2.5303,-2.5303,-2.5303,-2.5303,-2.5303,-2.5303,-2.5303,-2.5303,-2.5369,-2.5583,-2.5626,-2.5626,-2.5626,-2.5626,-2.563,-2.5625,-2.5676,-2.5699,-2.5699,-2.5699,-2.5699,-2.5699,-2.8903,-3.0896,-3.0896,-3.0896,-3.0271,-2.8864,-3.0154,-3.0895,-3.0894,-3.0894,-3.0897,-3.0898,-3.0898,-3.0898,-3.0898,-3.0898,-3.0898,0.0,0.0,0.0,0.0,-1.3557,0.0,0.0,0.0,-1.3003,-1.27,0.0,0.0,0.0,0.0,0.0,0.0,0.0,0.0,0.0,0.0,0.0,0.0,0.0,0.0,0.0,-1.942,-1.9371,-1.9303,-1.9312,-1.9298,-1.9303,-1.9372,-1.9413,-1.9397,-1.9409,-1.9409,-1.9409,-1.9406,-1.9406,-1.9409,-1.9418,-1.9719,-2.0294,-2.0308,-2.2138,-2.5294,-2.5302,-2.5293,-2.5293,-2.5303,-2.5299,-2.5306,-2.5301,-2.5303,-2.5303,-2.5303,-2.5303,-2.5303,-2.5303,-2.5303,-2.5303,-2.5303,-2.5303,-2.5303,-2.5303,-2.5303,-2.5303,-2.5303,-2.5303,-2.5303,-2.5303,-2.5303,-2.5303,-2.5303,-2.5303,-2.5303,-2.5303,-2.5303,-2.5303,-2.5303,-2.5303,-2.5313,-2.5341,-2.5351,-2.5351,-2.5351,-2.5351,-2.534,-2.5348,-2.555,-2.5706,-2.5706,-2.5706,-2.5706,-2.5706,-2.8899,-3.0895,-3.0895,-3.0895,-3.0817,-3.0603,-3.0798,-3.0906,-3.0906,-3.0906,-3.0895,-3.0898,-3.0898,-3.0898,-3.0898,-3.0898,-3.0898,0.0,0.0,0.0,0.0,0.0,0.0,-1.2573,0.0,-1.2844,0.0,0.0,0.0,0.0,0.0,0.0,0.0,0.0,0.0,0.0,0.0,0.0,0.0,0.0,0.0,0.0,0.0,0.0,0.0,-1.8968,-1.9309,-1.9308,-1.9286,-1.9292,-1.9295,-1.931,-1.9298,-1.93,-1.9295,-2.0266,-2.2111,-2.0217,-1.9442,-1.9777,-2.1689,-2.3556,-2.5285,-2.5304,-2.5298,-2.5298,-2.5298,-2.5298,-2.5264,-2.4829,-2.4924,-2.5291,-2.5298,-2.5294,-2.5305,-2.5302,-2.5303,-2.5303,-2.5303,-2.5303,-2.5303,-2.5303,-2.5303,-2.5303,-2.5303,-2.5303,-2.5303,-2.5303,-2.5303,-2.5303,-2.5303,-2.5303,-2.5303,-2.5303,-2.5303,-2.5303,-2.5303,-2.5303,-2.5303,-2.5303,-2.5303,-2.5303,-2.5303,-2.5303,-2.5303,-2.5303,-2.5404,-2.548,-2.548,-2.548,-2.548,-2.548,-2.6819,-2.7648,-2.7648,-2.7648,-2.7648,-2.7648,-2.7648,-2.766,-2.7655,-2.9608,-3.0618,-3.06,-3.0808,-3.0898,-3.0898,-3.0895,-3.0898,-1.4084,0.0,0.0,0.0,0.0,0.0,0.0,0.0,0.0,0.0,0.0,0.0,0.0,0.0,0.0,0.0,0.0,0.0,0.0,0.0,0.0,0.0,0.0,0.0,0.0,0.0,0.0,0.0,0.0,-1.9757,-1.8939,-1.8898,-1.8873,-1.8896,-1.9147,-1.9305,-1.9303,-1.9305,-2.0491,-2.2843,-2.0437,-1.9302,-1.9408,-2.2694,-2.4492,-2.5001,-2.4993,-2.5007,-2.5007,-2.5007,-2.4997,-2.4938,-2.4418,-2.452,-2.4986,-2.4991,-2.5126,-2.5302,-2.5308,-2.5302,-2.5303,-2.5303,-2.5303,-2.5303,-2.5303,-2.5302,-2.5301,-2.5293,-2.5302,-2.5301,-2.5293,-2.5303,-2.5303,-2.5303,-2.5303,-2.5303,-2.5303,-2.5303,-2.5303,-2.5303,-2.5303,-2.5303,-2.5303,-2.5303,-2.5303,-2.5303,-2.5303,-2.5303,-2.5303,-2.5303,-2.5303,-2.5303,-2.5303,-2.5303,-2.5303,-2.5303,-2.5303,-2.5303,-2.5303,-2.5303,-2.5303,-2.5303,-2.5303,-2.5293,-2.7738,-2.8989,-2.9002,-3.0189,-3.0754,-3.0773,-3.086,-3.0898,0.0,0.0,0.0,-1.4023,0.0,0.0,0.0,0.0,-1.3421,0.0,0.0,0.0,0.0,0.0,0.0,0.0,0.0,0.0,0.0,0.0,0.0,0.0,0.0,0.0,0.0,0.0,0.0,0.0,0.0,0.0,-1.8003,-1.7844,-1.7855,-1.7835,-1.8801,-1.9308,-1.9288,-1.9291,-1.9359,-1.9467,-1.9342,-1.9299,-1.9413,-2.2704,-2.4211,-2.4234,-2.4253,-2.4233,-2.4233,-2.4233,-2.4242,-2.4234,-2.4199,-2.4208,-2.4247,-2.4229,-2.4688,-2.5309,-2.529,-2.5305,-2.5303,-2.5303,-2.5303,-2.5303,-2.5303,-2.5297,-2.5306,-2.5292,-2.5297,-2.5306,-2.5292,-2.5303,-2.5303,-2.5303,-2.5303,-2.5303,-2.5303,-2.5303,-2.5303,-2.5303,-2.5303,-2.5303,-2.5303,-2.5303,-2.5303,-2.5303,-2.5303,-2.5303,-2.5303,-2.5303,-2.5303,-2.5303,-2.5303,-2.5303,-2.5303,-2.5303,-2.5303,-2.5303,-2.5303,-2.5303,-2.5303,-2.5303,-2.5293,-2.5292,-2.5407,-2.5465,-2.5463,-2.8797,-3.0417,-3.0414,-3.0755,-3.0898,0.0,0.0,-1.5327,-1.4897,0.0,0.0,0.0,0.0,0.0,0.0,0.0,0.0,0.0,0.0,0.0,0.0,0.0,0.0,0.0,0.0,0.0,0.0,0.0,0.0,0.0,0.0,0.0,0.0,-2.0591,0.0,0.0,-1.8866,-1.7809,-1.7793,-1.812,-1.8301,-1.8313,-1.8983,-1.9309,-1.9299,-1.9305,-1.9305,-1.9408,-2.2706,-2.42,-2.4209,-2.419,-2.4207,-2.4207,-2.4207,-2.4191,-2.4192,-2.4192,-2.421,-2.4191,-2.4199,-2.4361,-2.464,-2.5139,-2.5297,-2.5298,-2.5298,-2.5298,-2.5298,-2.5298,-2.5297,-2.5194,-2.4708,-2.4924,-2.5302,-2.531,-2.5299,-2.5303,-2.5303,-2.5303,-2.5303,-2.5303,-2.5303,-2.5303,-2.5303,-2.5303,-2.5303,-2.5303,-2.5303,-2.5303,-2.5303,-2.5303,-2.5303,-2.5303,-2.5303,-2.5303,-2.5303,-2.5303,-2.5303,-2.5303,-2.5303,-2.5303,-2.5303,-2.5303,-2.5303,-2.5303,-2.5303,-2.5303,-2.5293,-2.5293,-2.5302,-2.5301,-2.6465,-2.7031,-2.7083,-2.9465,-3.0678,-1.5225,-1.5608,0.0,-1.5381,-1.5192,0.0,-1.424,0.0,0.0,0.0,0.0,0.0,0.0,0.0,0.0,0.0,0.0,0.0,0.0,0.0,0.0,0.0,0.0,0.0,0.0,0.0,-1.7954,-1.8314,0.0,0.0,0.0,0.0,-1.9395,-1.9399,-1.9399,-1.9395,-1.9408,-1.8979,-1.8949,-1.9306,-1.8932,-1.8967,-1.9379,-2.1497,-2.3087,-2.4188,-2.4184,-2.4185,-2.419,-2.419,-2.419,-2.419,-2.419,-2.419,-2.419,-2.4192,-2.4205,-2.4269,-2.4731,-2.4898,-2.4898,-2.4898,-2.4898,-2.4898,-2.4898,-2.4911,-2.481,-2.4331,-2.4535,-2.4972,-2.5234,-2.5291,-2.529,-2.5293,-2.5303,-2.5303,-2.5303,-2.5303,-2.5303,-2.5303,-2.5303,-2.5303,-2.5303,-2.5303,-2.5303,-2.5303,-2.5303,-2.5303,-2.5303,-2.5303,-2.5303,-2.5303,-2.5303,-2.5303,-2.5303,-2.5303,-2.5303,-2.5303,-2.5303,-2.5303,-2.5303,-2.5303,-2.5303,-2.5303,-2.5303,-2.5303,-2.5302,-2.5302,-2.5301,-2.5382,-2.8821,-3.053]}]]